[[{"header":{"parameterUnit":"m.s-1","parameterCategory":1,"la1":31.0,"la2":29.5877,"lo1":-88.7671,"lo2":-86.6584,"dy":0.0162,"dx":0.0185,"nx":115,"ny":88,"refTime":"2023-10-10T06:00:00:Z","depth":0,"parameterNumber":2,"parameterNumberName":"U-component_of_WINDS"},"data":[0.0,0.0,0.0,0.0,0.0,0.0,0.0,0.0,0.0,0.0,0.0,0.0,0.0,0.0,0.0,0.0,0.0,0.0,0.0,0.0,0.0,0.0,0.0,0.0,0.0,0.0,0.0,0.0,0.0,0.0,0.0,0.0,0.0,0.0,0.0,0.0,0.0,0.0,0.0,0.0,0.0,0.0,0.0,0.0,0.0,0.0,0.0,0.0,0.0,0.0,0.0,0.0,0.0,0.0,0.0,0.0,0.0,0.0,0.0,0.0,0.0,0.0,0.0,0.0,0.0,0.0,0.0,0.0,0.0,0.0,0.0,0.0,0.0,0.0,0.0,0.0,0.0,0.0,0.0,0.0,0.0,0.0,0.0,0.0,0.0,0.0,0.0,0.0,0.0,0.0,0.0,0.0,0.0,0.0,0.0,0.0,0.0,0.0,0.0,0.0,0.0,0.0,0.0,0.0,0.0,0.0,0.0,0.0,0.0,0.0,0.0,0.0,0.0,0.0,0.0,0.0,0.0,0.0,0.0,0.0,0.0,0.0,0.0,0.0,0.0,0.0,0.0,0.0,0.0,0.0,0.0,0.0,0.0,0.0,0.0,0.0,0.0,0.0,0.0,0.0,0.0,0.0,0.0,0.0,0.0,0.0,0.0,0.0,0.0,0.0,0.0,0.0,0.0,0.0,0.0,0.0,0.0,0.0,0.0,0.0,0.0,0.0,0.0,0.0,0.0,0.0,0.0,0.0,0.0,0.0,0.0,0.0,0.0,0.0,0.0,0.0,0.0,0.0,0.0,0.0,0.0,0.0,0.0,0.0,0.0,0.0,0.0,0.0,0.0,0.0,0.0,0.0,0.0,0.0,0.0,0.0,0.0,0.0,0.0,0.0,0.0,0.0,0.0,0.0,0.0,0.0,0.0,0.0,0.0,0.0,0.0,0.0,0.0,0.0,0.0,0.0,0.0,0.0,0.0,0.0,0.0,0.0,0.0,0.0,0.0,0.0,0.0,0.0,0.0,0.0,0.0,0.0,0.0,0.0,0.0,0.0,0.0,0.0,0.0,0.0,0.0,0.0,0.0,0.0,0.0,0.0,0.0,0.0,0.0,0.0,0.0,0.0,0.0,0.0,0.0,0.0,0.0,0.0,0.0,0.0,0.0,0.0,0.0,0.0,0.0,0.0,0.0,0.0,0.0,0.0,0.0,0.0,0.0,0.0,0.0,0.0,0.0,0.0,0.0,0.0,0.0,0.0,0.0,0.0,0.0,0.0,0.0,0.0,0.0,0.0,0.0,0.0,0.0,0.0,0.0,0.0,0.0,0.0,0.0,0.0,0.0,0.0,0.0,0.0,0.0,0.0,0.0,0.0,0.0,0.0,0.0,0.0,0.0,0.0,0.0,0.0,0.0,0.0,0.0,0.0,0.0,0.0,0.0,0.0,0.0,0.0,0.0,0.0,0.0,0.0,0.0,0.0,0.0,0.0,0.0,0.0,0.0,0.0,0.0,0.0,0.0,0.0,0.0,0.0,0.0,0.0,0.0,0.0,0.0,0.0,0.0,0.0,0.0,0.0,0.0,0.0,0.0,0.0,0.0,0.0,0.0,0.0,0.0,0.0,0.0,0.0,0.0,0.0,0.0,0.0,0.0,0.0,0.0,0.0,0.0,0.0,0.0,0.0,0.0,0.0,0.0,0.0,0.0,0.0,0.0,0.0,0.0,0.0,0.0,0.0,0.0,0.0,0.0,0.0,0.0,0.0,0.0,0.0,0.0,0.0,0.0,0.0,0.0,0.0,0.0,0.0,0.0,0.0,0.0,0.0,0.0,0.0,0.0,0.0,0.0,0.0,0.0,0.0,0.0,0.0,0.0,0.0,0.0,0.0,0.0,0.0,0.0,0.0,0.0,0.0,0.0,0.0,0.0,0.0,0.0,0.0,0.0,0.0,0.0,0.0,0.0,0.0,0.0,0.0,0.0,0.0,0.0,0.0,0.0,0.0,0.0,0.0,0.0,0.0,0.0,0.0,0.0,0.0,0.0,0.0,0.0,0.0,0.0,0.0,0.0,0.0,0.0,0.0,0.0,0.0,0.0,0.0,0.0,0.0,0.0,0.0,0.0,0.0,0.0,0.0,0.0,0.0,0.0,0.0,0.0,0.0,0.0,0.0,0.0,0.0,0.0,0.0,0.0,0.0,0.0,0.0,0.0,0.0,0.0,0.0,0.0,0.0,0.0,0.0,0.0,0.0,0.0,0.0,0.0,0.0,0.0,0.0,0.0,0.0,0.0,0.0,0.0,0.0,0.0,0.0,0.0,0.0,0.0,0.0,0.0,0.0,0.0,0.0,0.0,0.0,0.0,0.0,0.0,0.0,0.0,0.0,0.0,0.0,0.0,0.0,0.0,0.0,0.0,0.0,0.0,0.0,0.0,0.0,0.0,0.0,0.0,0.0,0.0,0.0,0.0,0.0,0.0,0.0,0.0,0.0,0.0,0.0,0.0,0.0,0.0,0.0,0.0,0.0,0.0,0.0,0.0,0.0,0.0,0.0,0.0,0.0,0.0,0.0,0.0,0.0,0.0,0.0,0.0,0.0,0.0,0.0,0.0,0.0,0.0,0.0,0.0,0.0,0.0,0.0,0.0,0.0,0.0,0.0,0.0,0.0,0.0,0.0,0.0,0.0,0.0,0.0,0.0,0.0,0.0,0.0,0.0,0.0,0.0,0.0,0.0,0.0,0.0,0.0,0.0,0.0,0.0,0.0,0.0,0.0,0.0,0.0,0.0,0.0,0.0,0.0,0.0,0.0,0.0,0.0,0.0,0.0,0.0,0.0,0.0,0.0,0.0,0.0,0.0,0.0,0.0,0.0,0.0,0.0,0.0,0.0,0.0,0.0,0.0,0.0,0.0,0.0,0.0,0.0,0.0,0.0,0.0,0.0,0.0,0.0,0.0,0.0,0.0,0.0,0.0,0.0,0.0,0.0,0.0,0.0,0.0,0.0,0.0,0.0,0.0,0.0,0.0,0.0,0.0,0.0,0.0,0.0,0.0,0.0,0.0,0.0,0.0,0.0,0.0,0.0,0.0,0.0,0.0,0.0,0.0,0.0,0.0,0.0,0.0,0.0,0.0,0.0,0.0,0.0,0.0,0.0,0.0,0.0,0.0,0.0,0.0,0.0,0.0,0.0,0.0,0.0,0.0,0.0,0.0,0.0,0.0,0.0,0.0,0.0,0.0,0.0,0.0,0.0,0.0,0.0,0.0,0.0,0.0,0.0,0.0,0.0,0.0,0.0,0.0,0.0,0.0,0.0,0.0,0.0,0.0,0.0,0.0,0.0,0.0,0.0,0.0,0.0,0.0,0.0,0.0,0.0,0.0,0.0,0.0,0.0,0.0,0.0,0.0,0.0,0.0,0.0,0.0,0.0,0.0,0.0,0.0,0.0,0.0,0.0,0.0,0.0,0.0,0.0,0.0,0.0,0.0,0.0,0.0,0.0,0.0,0.0,0.0,0.0,0.0,0.0,0.0,0.0,0.0,0.0,0.0,0.0,0.0,0.0,0.0,0.0,0.0,0.0,0.0,0.0,0.0,0.0,0.0,0.0,0.0,0.0,0.0,0.0,0.0,0.0,0.0,0.0,0.0,0.0,0.0,0.0,0.0,0.0,0.0,0.0,0.0,0.0,0.0,0.0,0.0,0.0,0.0,0.0,0.0,0.0,0.0,0.0,0.0,0.0,0.0,0.0,0.0,0.0,0.0,0.0,0.0,0.0,0.0,0.0,0.0,0.0,0.0,0.0,0.0,0.0,0.0,0.0,0.0,0.0,0.0,0.0,0.0,0.0,0.0,0.0,0.0,0.0,0.0,0.0,0.0,0.0,0.0,0.0,0.0,0.0,0.0,0.0,0.0,0.0,0.0,0.0,0.0,0.0,0.0,0.0,0.0,0.0,0.0,0.0,0.0,0.0,0.0,0.0,0.0,0.0,0.0,0.0,0.0,0.0,0.0,0.0,0.0,0.0,0.0,0.0,0.0,0.0,0.0,0.0,0.0,0.0,0.0,0.0,0.0,0.0,0.0,0.0,0.0,0.0,0.0,0.0,0.0,0.0,0.0,0.0,0.0,0.0,0.0,0.0,0.0,0.0,0.0,0.0,0.0,0.0,0.0,0.0,0.0,0.0,0.0,0.0,0.0,0.0,0.0,0.0,0.0,0.0,0.0,0.0,0.0,0.0,0.0,0.0,0.0,0.0,0.0,0.0,0.0,0.0,0.0,0.0,0.0,0.0,0.5226,0.0,0.0,0.0,0.0,0.0,0.0,0.0,0.0,0.0,0.0,0.0,0.0,0.0,0.0,0.0,0.0,0.0,0.0,0.0,0.0,0.0,0.0,0.0,0.0,0.0,0.0,0.0,0.0,0.0,0.0,0.0,0.0,0.0,0.0,0.0,0.0,0.0,0.0,0.0,0.0,0.0,0.0,0.0,0.0,0.0,0.0,0.0,0.0,0.0,0.0,0.0,0.0,0.0,0.0,0.0,0.0,0.0,0.0,0.0,0.0,0.0,0.0,0.0,0.0,0.0,0.0,0.0,0.0,0.0,0.0,0.0,0.0,0.0,0.0,0.0,0.0,0.0,0.0,0.0,0.0,0.0,0.0,0.0,0.0,0.0,0.0,0.0,0.0,0.0,0.0,0.0,0.0,0.0,0.0,0.0,0.0,0.0,0.0,0.0,0.0,0.0,0.0,0.0,0.0,0.0,0.0,0.0,0.0,0.0,0.0,0.6928,0.682,0.6218,0.5675,0.5087,0.0,0.0,0.0,0.0,0.0,0.0,0.0,0.0,0.0,0.0,0.0,0.0,0.0,0.0,0.0,0.0,0.0,0.0,0.0,0.0,0.0,0.0,0.0,0.0,0.0,0.0,0.0,0.0,0.0,0.0,0.0,0.0,0.0,0.0,0.0,0.0,0.0,0.0,0.0,0.0,0.0,0.0,0.0,0.0,0.0,0.0,0.0,0.0,0.0,0.0,0.0,0.0,0.0,0.0,0.0,0.0,0.0,0.0,0.0,0.0,0.0,0.0,0.0,0.0,0.0,0.0,0.0,0.0,0.0,0.0,0.0,0.0,0.0,0.0,0.0,0.0,0.0,0.0,0.0,0.0,0.0,0.0,0.0,0.0,0.0,0.0,0.0,0.0,0.0,0.0,0.0,0.0,0.0,0.0,0.0,0.0,0.0,0.0,0.0,0.0,0.0,0.0,0.0,0.0,0.0,0.0,0.0,0.0,0.0,0.0,0.0,0.0,0.6134,0.5369,0.4389,0.0,0.0,0.0,0.0,0.0,0.0,0.0,0.0,0.0,0.0,0.0,0.0,0.0,0.0,0.0,0.0,0.0,0.0,0.0,0.0,0.0,0.0,0.0,0.0,0.0,0.0,0.0,0.0,0.0,0.0,0.0,0.0,0.0,0.0,0.0,0.0,0.0,0.0,0.0,0.0,0.0,0.0,0.0,0.0,0.0,0.0,0.0,0.0,0.0,0.0,0.0,0.0,0.0,0.0,0.0,0.0,0.0,0.0,0.0,0.0,0.0,0.0,0.0,0.0,0.0,0.0,0.0,0.0,0.0,0.0,0.0,0.0,0.0,0.0,0.0,0.0,0.0,0.0,0.0,0.0,0.0,0.0,0.0,0.0,0.0,0.0,0.0,0.0,0.0,0.0,0.0,0.0,0.0,0.0,0.0,0.0,0.0,0.0,0.0,0.0,0.0,0.0,0.0,0.0,0.0,0.0,0.0,0.0,0.0,0.0,0.6462,0.6115,0.5557,0.0,0.3068,0.0,0.0,0.0,0.0,0.0,0.0,0.0,0.0,0.0,0.0,0.0,0.0,0.0,0.0,0.0,0.0,0.0,0.0,0.0,0.0,0.0,0.0,0.0,0.0,0.0,0.0,0.0,0.0,0.0,0.0,0.0,0.0,0.0,0.0,0.0,0.0,0.0,0.0,0.0,0.0,0.0,0.0,0.0,0.0,0.0,0.0,0.0,0.0,0.0,0.0,0.0,0.0,0.0,0.0,0.0,0.0,0.0,0.0,0.0,0.0,0.0,0.0,0.0,0.0,0.0,0.0,0.0,0.0,0.0,0.0,0.0,0.0,0.0,0.0,0.0,0.0,0.0,0.0,0.0,0.0,0.0,0.0,0.0,0.0,0.0,0.0,0.0,0.0,0.0,0.0,0.0,0.0,0.0,0.0,0.0,0.0,0.0,0.0,0.0,0.0,0.0,0.0,0.0,0.0,0.0,0.0,0.0,0.0,0.0,0.0,0.6774,0.6539,0.5705,0.4556,0.0,0.0,0.0,0.0,0.0,0.0,0.0,0.0,0.0,0.0,0.0,0.0,0.0,0.0,0.0,0.0,0.0,0.0,0.0,0.0,0.0,0.0,0.0,0.0,0.0,0.0,0.0,0.0,0.0,0.0,0.0,0.0,0.0,0.0,0.0,0.0,0.0,0.0,0.0,0.0,0.0,0.0,0.0,0.0,0.0,0.0,0.0,0.0,0.0,0.0,0.0,0.0,0.0,0.0,0.0,0.0,0.0,0.0,0.0,0.0,0.0,0.0,0.0,0.0,0.0,0.0,0.0,0.0,0.0,0.0,0.0,0.0,0.0,0.0,0.0,0.0,0.0,0.0,0.0,0.0,0.0,0.0,0.0,0.0,0.0,0.0,0.0,0.0,0.0,0.0,0.0,0.0,0.0,0.0,0.0,0.0,0.0,0.0,0.0,0.0,0.0,0.0,0.0,0.0,0.0,0.0,0.0,0.0,0.0,0.0,0.7039,0.6843,0.6444,0.56,0.4526,0.3183,0.0,0.0,0.0,0.0,0.0,0.0,0.0,0.0,0.0,0.0,0.0,0.0,0.0,0.0,0.0,0.0,0.0,0.0,0.0,0.0,0.0,0.0,0.0,0.0,0.0,0.0,0.0,0.0,0.0,0.0,0.0,0.0,0.0,0.0,0.0,0.0,0.0,0.0,0.0,0.0,0.0,0.0,0.0,0.0,0.0,0.0,0.0,0.0,0.0,0.0,0.0,0.0,0.0,0.0,0.0,0.0,0.0,0.0,0.0,0.0,0.0,0.0,0.0,0.0,0.0,0.0,0.0,0.0,0.0,0.0,0.0,0.0,0.0,0.0,0.0,0.0,0.0,0.0,0.0,0.0,0.0,0.0,0.0,0.0,0.0,0.0,0.0,0.0,0.0,0.0,0.0,0.0,0.0,0.0,0.0,0.0,0.0,0.0,0.0,0.0,0.0,0.0,0.0,0.0,0.0,0.0,0.0,0.0,0.7353,0.702,0.6368,0.5448,0.5015,0.4311,0.0,0.0,0.0,0.0,0.0,0.0,0.0,0.0,0.0,0.0,0.0,0.0,0.0,0.0,0.0,0.0,0.0,0.0,0.0,0.0,0.0,0.0,0.0,0.0,0.0,0.0,0.0,0.0,0.0,0.0,0.0,0.0,0.0,0.0,0.0,0.0,0.0,0.0,0.0,0.0,0.0,0.0,0.0,0.0,0.0,0.0,0.0,0.0,0.0,0.0,0.0,0.0,0.0,0.0,0.0,0.0,0.0,0.0,0.0,0.0,0.0,0.0,0.0,0.0,0.0,0.0,0.0,0.0,0.0,0.0,0.0,0.0,0.0,0.0,0.0,0.0,0.0,0.0,0.0,0.0,0.0,0.0,0.0,0.0,0.0,0.0,0.0,0.0,0.0,0.0,0.0,0.0,0.0,0.0,0.0,0.0,0.0,0.0,0.0,0.0,0.0,0.0,0.0,0.0,0.0,0.0,0.0,0.0,0.0,0.7759,0.7138,0.6532,0.5945,0.5291,0.4363,0.0,0.0,0.0,0.0,0.0,0.0,0.0,0.0,0.0,0.0,0.0,0.0,0.0,0.0,0.0,0.0,0.0,0.0,0.0,0.0,0.0,0.0,0.0,0.0,0.0,0.0,0.0,0.0,0.0,0.0,0.0,0.0,0.0,0.0,0.0,0.0,0.0,0.0,0.0,0.0,0.0,0.0,0.0,0.0,0.0,0.0,0.0,0.0,0.0,0.0,0.0,0.0,0.0,0.0,0.0,0.0,0.0,0.0,0.0,0.0,0.0,0.0,0.0,0.0,0.0,0.0,0.0,0.0,0.0,0.0,0.0,0.0,0.0,0.0,0.0,0.0,0.0,0.0,0.0,0.0,0.0,0.0,0.0,0.0,0.0,0.0,0.0,0.0,0.0,0.0,0.0,0.0,0.0,0.0,0.0,0.0,0.0,0.0,0.0,0.0,0.0,0.0,0.0,0.0,0.0,0.0,0.0,0.0,0.0,0.7765,0.0,0.6679,0.6039,0.5287,0.4322,0.0,0.0,0.0,0.0,0.0,0.0,0.0,0.0,0.0,0.0,0.0,0.0,0.0,0.0,0.0,0.0,0.0,0.0,0.0,0.0,0.0,0.0,0.0,0.0,0.0,0.0,0.0,0.0,0.0,0.0,0.0,0.0,0.0,0.0,0.0,0.0,0.0,0.0,0.0,0.0,0.0,0.0,0.0,0.0,0.0,0.0,0.0,0.0,0.0,0.0,0.0,0.0,0.0,0.0,0.0,0.0,0.0,0.0,0.0,0.0,0.0,0.0,0.0,0.0,0.0,0.0,0.0,0.0,0.0,0.0,0.0,0.0,0.0,0.0,0.0,0.0,0.0,0.0,0.0,0.0,0.0,0.0,0.0,0.0,0.0,0.0,0.0,0.0,0.0,0.0,0.0,0.0,0.0,0.0,0.0,0.0,0.0,0.0,0.0,0.0,0.0,0.0,0.0,0.0,0.0,0.0,0.0,0.0,0.8176,0.7371,0.7256,0.666,0.5555,0.4898,0.4171,0.0,0.0,0.0,0.0,0.0,0.0,0.0,0.0,0.0,0.0,0.0,0.0,0.0,0.0,0.0,0.0,0.0,0.0,0.0,0.0,0.0,0.0,0.0,0.0,0.0,0.0,0.0,0.0,0.0,0.0,0.0,0.0,0.0,0.0,0.0,0.0,0.0,0.0,0.0,0.0,0.0,0.0,0.0,0.0,0.0,0.0,0.0,0.0,0.0,0.0,0.0,0.0,0.0,0.0,0.0,0.0,0.0,0.0,0.0,0.0,0.0,0.0,0.0,0.0,0.0,0.0,0.0,0.0,0.0,0.0,0.0,0.0,0.0,0.0,0.0,0.0,0.0,0.0,0.0,0.0,0.0,0.0,0.0,0.0,0.0,0.0,0.0,0.0,0.0,0.0,0.0,0.0,0.0,0.0,0.0,0.0,0.0,0.0,0.0,0.0,0.0,0.0,0.0,0.0,0.0,0.0,0.0,0.0,0.0,0.7019,0.6408,0.5727,0.5038,0.411,0.3279,0.0,0.0,0.0,0.0,0.0,0.0,0.0,0.0,0.0,0.0,0.0,0.0,0.0,0.0,0.0,0.0,0.0,0.0,0.0,0.0,0.0,0.0,0.0,0.0,0.0,0.0,0.0,0.0,0.0,0.0,0.0,0.0,0.0,0.0,0.0,0.0,0.0,0.0,0.0,0.0,0.0,0.0,0.0,0.0,0.0,0.0,0.0,0.0,0.0,0.0,0.0,0.0,0.0,0.0,0.0,0.0,0.0,0.0,0.0,0.0,0.0,0.0,0.0,0.0,0.0,0.0,0.0,0.0,0.0,0.0,0.0,0.0,0.0,0.0,0.0,0.0,0.0,0.0,0.0,0.0,0.0,0.0,0.0,0.0,0.0,0.0,0.0,0.0,0.0,0.0,0.0,0.0,0.0,0.0,0.0,0.0,0.0,0.0,0.0,0.0,0.0,0.0,0.0,0.0,0.0,0.0,0.0,0.0,0.0,0.5732,0.5421,0.4986,0.4428,0.3531,0.2709,0.2047,0.0,0.0,0.0,0.0,0.0,0.0,0.0,0.0,0.0,0.0,0.0,0.0,0.0,0.0,0.0,0.0,0.0,0.0,0.0,0.0,0.0,0.0,0.0,0.0,0.0,0.0,0.0,0.0,0.0,0.0,0.0,0.0,0.0,0.0,0.0,0.0,0.0,0.0,0.0,0.0,0.0,0.0,0.0,0.0,0.0,0.0,0.0,0.0,0.0,0.0,0.0,0.0,0.0,0.0,0.0,0.0,0.0,0.0,0.0,0.0,0.0,0.0,0.0,0.0,0.0,0.0,0.0,0.0,0.0,0.0,0.0,0.0,0.0,0.0,0.0,0.0,0.0,0.0,0.0,0.0,0.0,0.0,0.0,0.0,0.0,0.0,0.0,0.0,0.0,0.0,0.0,0.0,0.0,0.0,0.0,0.0,0.0,0.0,0.0,0.0,0.0,0.0,0.0,0.0,0.0,0.0,0.0,0.0,0.3557,0.4259,0.4332,0.3763,0.3049,0.2318,0.0,0.0,0.0,0.0,0.0,0.0,0.0,0.0,0.0,0.0,0.0,0.0,0.0,0.0,0.0,0.0,0.0,0.0,0.0,0.0,0.0,0.0,0.0,0.0,0.0,0.0,0.0,0.0,0.0,0.0,0.0,0.0,0.0,0.0,0.0,0.0,0.0,0.0,0.0,0.0,0.0,0.0,0.0,0.0,0.0,0.0,0.0,0.0,0.0,0.0,0.0,0.0,0.0,0.0,0.0,0.0,0.0,0.0,0.0,0.0,0.0,0.0,0.0,0.0,0.0,0.0,0.0,0.0,0.0,0.0,0.0,0.0,0.0,0.0,0.0,0.0,0.0,0.0,0.0,0.0,0.0,0.0,0.0,0.0,0.0,0.0,0.0,0.0,0.0,0.0,0.0,0.0,0.0,0.0,0.0,0.0,0.0,0.0,0.0,0.0,0.0,0.0,0.0,0.0,0.0,0.0,0.0,0.0,0.0,0.2033,0.2232,0.2602,0.3156,0.2125,0.1377,0.0,0.0,0.0,0.0,0.0,0.0,0.0,0.0,0.0,0.0,0.0,0.0,0.0,0.0,0.0,0.0,0.0,0.0,0.0,0.0,0.0,0.0,0.0,0.0,0.0,0.0,0.0,0.0,0.0,0.0,0.0,0.0,0.0,0.0,0.0,0.0,0.0,0.0,0.0,0.0,0.0,0.0,0.0,0.0,0.0,0.0,0.0,0.0,0.0,0.0,0.0,0.0,0.0,0.0,0.0,0.0,0.0,0.0,0.0,0.0,0.0,0.0,0.0,0.0,0.0,0.0,0.0,0.0,0.0,0.0,0.0,0.0,0.0,0.0,0.0,0.0,0.0,0.0,0.0,0.0,0.0,0.0,0.0,0.0,0.0,0.0,0.0,0.0,0.0,0.0,0.0,0.0,0.0,0.0,0.0,0.0,0.0,0.0,0.0,0.0,0.0,0.0,0.0,0.0,0.0,0.0,0.0,0.0,0.0815,0.0533,-0.0142,-0.0146,0.0571,0.0538,0.0,0.0,0.0,0.0,0.0,0.0,0.0,0.0,0.0,0.0,0.0,0.0,0.0,0.0,0.0,0.0,0.0,0.0,0.0,0.0,0.0,0.0,0.0,0.0,0.0,0.0,0.0,0.0,0.0,0.0,0.0,0.0,0.0,0.0,0.0,0.0,0.0,0.0,0.0,0.0,0.0,0.0,0.0,0.0,0.0,0.0,0.0,0.0,0.0,0.0,0.0,0.0,0.0,0.0,0.0,0.0,0.0,0.0,0.0,0.0,0.0,0.0,0.0,0.0,0.0,0.0,0.0,0.0,0.0,0.0,0.0,0.0,0.0,0.0,0.0,0.0,0.0,0.0,0.0,0.0,0.0,0.0,0.0,0.0,0.0,0.0,0.0,0.0,0.0,0.0,0.0,0.0,0.0,0.0,0.0,0.0,0.0,0.0,0.0,0.0,0.0,0.0,0.0,0.0,0.0,0.0,0.0,0.0,0.0,-0.1186,-0.1189,-0.2636,-0.3406,-0.339,-0.1818,-0.1824,0.0,0.0,0.0,0.0,0.0,0.0,0.0,0.0,0.0,0.0,0.0,0.0,0.0,0.0,0.0,0.0,0.0,0.0,0.0,0.0,0.0,0.0,0.0,0.0,0.0,0.0,0.0,0.0,0.0,0.0,0.0,0.0,0.0,0.0,0.0,0.0,0.0,0.0,0.0,0.0,0.0,0.0,0.0,0.0,0.0,0.0,0.0,0.0,0.0,0.0,0.0,0.0,0.0,0.0,0.0,0.0,0.0,0.0,0.0,0.0,0.0,0.0,0.0,0.0,0.0,0.0,0.0,0.0,0.0,0.0,0.0,0.0,0.0,0.0,0.0,0.0,0.0,0.0,0.0,0.0,0.0,0.0,0.0,0.0,0.0,0.0,0.0,0.0,0.0,0.0,0.0,0.0,0.0,0.0,0.0,0.0,0.0,0.0,0.0,0.0,0.0,0.0,0.0,0.0,0.0,0.0,0.0,0.0,-0.2856,-0.4209,-0.4502,-0.5536,-0.7311,-0.5155,-0.4293,0.0,0.0,0.0,0.0,0.0,0.0,0.0,0.0,0.0,0.0,0.0,0.0,0.0,0.0,0.0,0.0,0.0,0.0,0.0,0.0,0.0,0.0,0.0,0.0,0.0,0.0,0.0,0.0,0.0,0.0,0.0,0.0,0.0,0.0,0.0,0.0,0.0,0.0,0.0,0.0,0.0,0.0,0.0,0.0,0.0,0.0,0.0,0.0,-2.8262,0.0,0.0,0.0,0.0,0.0,0.0,0.0,0.0,0.0,0.0,0.0,0.0,0.0,0.0,0.0,0.0,0.0,0.0,0.0,0.0,0.0,0.0,0.0,0.0,0.0,0.0,0.0,0.0,0.0,0.0,0.0,0.0,0.0,0.0,0.0,0.0,0.0,0.0,0.0,0.0,0.0,0.0,0.0,0.0,0.0,0.0,0.0,0.0,0.0,0.0,0.0,0.0,0.0,0.0,0.0,0.0,0.0,0.0,0.0,-0.4944,-0.6281,-0.7057,-0.8179,-0.9536,-0.8946,-0.827,0.0,0.0,0.0,0.0,0.0,0.0,0.0,0.0,0.0,0.0,0.0,0.0,0.0,0.0,0.0,0.0,0.0,0.0,0.0,0.0,0.0,0.0,0.0,0.0,0.0,0.0,0.0,0.0,0.0,0.0,0.0,0.0,0.0,0.0,0.0,0.0,0.0,0.0,0.0,0.0,0.0,0.0,0.0,0.0,0.0,0.0,0.0,0.0,0.0,0.0,0.0,0.0,0.0,0.0,0.0,0.0,0.0,0.0,0.0,0.0,0.0,0.0,0.0,0.0,0.0,0.0,0.0,0.0,0.0,0.0,0.0,0.0,0.0,0.0,0.0,0.0,0.0,0.0,0.0,0.0,0.0,0.0,0.0,0.0,0.0,0.0,0.0,0.0,0.0,0.0,0.0,0.0,0.0,0.0,0.0,0.0,0.0,0.0,0.0,0.0,0.0,0.0,0.0,0.0,0.0,0.0,0.0,-0.5647,-0.725,-0.8427,-0.9707,-1.072,-1.1279,-1.2331,-1.2148,-1.0599,0.0,0.0,0.0,0.0,0.0,0.0,0.0,0.0,0.0,0.0,0.0,0.0,0.0,0.0,0.0,0.0,0.0,0.0,0.0,0.0,0.0,0.0,0.0,0.0,0.0,0.0,0.0,0.0,0.0,0.0,0.0,0.0,0.0,0.0,0.0,0.0,0.0,0.0,-2.7048,-2.8326,0.0,0.0,0.0,0.0,0.0,0.0,0.0,0.0,-2.9029,0.0,0.0,0.0,0.0,0.0,0.0,0.0,0.0,0.0,0.0,0.0,0.0,0.0,0.0,0.0,0.0,0.0,0.0,0.0,0.0,0.0,0.0,0.0,0.0,0.0,0.0,0.0,0.0,0.0,0.0,0.0,0.0,0.0,0.0,0.0,0.0,0.0,0.0,0.0,0.0,0.0,0.0,0.0,0.0,0.0,0.0,0.0,0.0,0.0,0.0,0.0,0.0,0.0,0.0,0.0,0.0,-0.6136,-0.7117,-0.904,-1.2098,-1.1723,-1.2063,-1.3375,-1.3397,-1.3234,-1.2907,0.0,0.0,0.0,0.0,0.0,0.0,0.0,0.0,0.0,0.0,0.0,0.0,0.0,0.0,0.0,0.0,0.0,0.0,0.0,0.0,0.0,0.0,0.0,0.0,0.0,0.0,0.0,0.0,0.0,0.0,0.0,0.0,0.0,0.0,0.0,0.0,0.0,0.0,0.0,-2.8942,-2.9701,0.0,0.0,0.0,0.0,0.0,0.0,0.0,0.0,-2.8098,0.0,0.0,0.0,0.0,0.0,0.0,0.0,0.0,0.0,0.0,0.0,0.0,0.0,0.0,0.0,0.0,0.0,0.0,0.0,0.0,0.0,0.0,0.0,0.0,0.0,0.0,0.0,0.0,0.0,0.0,0.0,0.0,0.0,0.0,0.0,0.0,0.0,0.0,0.0,0.0,0.0,0.0,0.0,0.0,0.0,0.0,0.0,0.0,0.0,0.0,0.0,0.0,0.0,0.0,0.0,-0.7382,-0.9695,-1.203,-1.445,-1.4292,-1.4664,-1.5685,-1.5531,-1.523,0.0,0.0,0.0,0.0,0.0,0.0,0.0,0.0,0.0,0.0,0.0,0.0,0.0,0.0,0.0,0.0,0.0,0.0,0.0,0.0,0.0,0.0,0.0,0.0,0.0,0.0,0.0,0.0,0.0,0.0,0.0,0.0,0.0,0.0,0.0,0.0,0.0,0.0,0.0,0.0,-2.9789,-2.9975,-3.1264,0.0,0.0,0.0,0.0,0.0,0.0,-2.977,-2.9831,0.0,0.0,0.0,0.0,0.0,0.0,0.0,0.0,0.0,0.0,0.0,0.0,0.0,0.0,0.0,0.0,0.0,0.0,0.0,0.0,0.0,0.0,0.0,0.0,0.0,0.0,0.0,0.0,0.0,0.0,0.0,0.0,0.0,0.0,0.0,0.0,0.0,0.0,0.0,0.0,0.0,0.0,0.0,0.0,0.0,0.0,0.0,0.0,0.0,0.0,0.0,0.0,0.0,0.0,0.0,-0.9606,-1.3155,-1.5742,-1.7451,-1.7568,-1.777,-1.8278,-1.8035,-1.7473,0.0,0.0,0.0,0.0,0.0,0.0,0.0,0.0,0.0,0.0,0.0,0.0,0.0,0.0,0.0,0.0,0.0,0.0,0.0,0.0,0.0,0.0,0.0,0.0,0.0,0.0,0.0,0.0,0.0,0.0,0.0,0.0,0.0,0.0,0.0,0.0,0.0,0.0,0.0,0.0,0.0,-3.0608,-3.1324,-3.2069,0.0,0.0,0.0,0.0,-3.1917,-3.2278,0.0,0.0,0.0,0.0,0.0,0.0,0.0,0.0,0.0,0.0,0.0,0.0,0.0,0.0,0.0,0.0,0.0,0.0,0.0,0.0,0.0,0.0,0.0,0.0,0.0,0.0,0.0,0.0,0.0,0.0,0.0,0.0,0.0,0.0,0.0,0.0,0.0,0.0,0.0,0.0,0.0,0.0,0.0,0.0,0.0,0.0,0.0,0.0,0.0,0.0,0.0,0.0,0.0,0.0,0.0,0.0,-1.3955,-1.7682,-2.0665,-2.3003,-2.2002,-2.1425,-2.1656,-2.0558,-1.9657,0.0,0.0,0.0,0.0,0.0,0.0,0.0,0.0,0.0,0.0,0.0,0.0,0.0,0.0,0.0,0.0,0.0,0.0,0.0,0.0,0.0,0.0,0.0,0.0,0.0,0.0,0.0,0.0,0.0,0.0,0.0,0.0,0.0,0.0,0.0,0.0,0.0,0.0,0.0,0.0,0.0,-3.1901,-3.2072,-3.2668,-3.3069,0.0,0.0,-3.359,-3.463,-3.4915,0.0,0.0,0.0,0.0,0.0,0.0,0.0,0.0,0.0,0.0,0.0,0.0,0.0,0.0,0.0,0.0,0.0,0.0,0.0,0.0,0.0,0.0,0.0,0.0,0.0,0.0,0.0,0.0,0.0,0.0,0.0,0.0,0.0,0.0,0.0,0.0,0.0,0.0,0.0,0.0,0.0,0.0,0.0,0.0,0.0,0.0,0.0,0.0,0.0,0.0,0.0,0.0,0.0,0.0,0.0,-0.3944,-1.5992,-2.1247,-2.4721,-2.6586,-2.6232,-2.5656,-2.4869,-2.393,-2.287,0.0,0.0,0.0,0.0,0.0,0.0,0.0,0.0,0.0,0.0,0.0,0.0,0.0,0.0,0.0,0.0,0.0,0.0,0.0,0.0,0.0,0.0,0.0,0.0,0.0,0.0,0.0,0.0,0.0,0.0,0.0,0.0,0.0,0.0,0.0,0.0,0.0,0.0,0.0,0.0,0.0,0.0,-3.3175,-3.3892,0.0,0.0,0.0,-3.5325,-3.6544,0.0,0.0,0.0,0.0,0.0,0.0,0.0,0.0,0.0,0.0,0.0,0.0,0.0,0.0,0.0,0.0,0.0,0.0,0.0,0.0,0.0,0.0,0.0,0.0,0.0,0.0,0.0,0.0,0.0,0.0,0.0,0.0,0.0,0.0,0.0,0.0,0.0,0.0,0.0,0.0,0.0,0.0,0.0,0.0,0.0,0.0,0.0,0.0,0.0,0.0,0.0,0.0,0.0,0.0,0.0,0.0,0.0,-1.5909,-2.3954,-2.88,-3.0375,-3.0631,-3.0,-2.8554,-2.7596,0.0,0.0,0.0,0.0,0.0,0.0,0.0,0.0,0.0,0.0,0.0,0.0,0.0,0.0,0.0,0.0,0.0,0.0,0.0,0.0,0.0,0.0,0.0,0.0,0.0,0.0,0.0,-1.8738,0.0,0.0,0.0,0.0,0.0,0.0,0.0,0.0,0.0,0.0,0.0,0.0,0.0,0.0,-3.3815,-3.4696,-3.5653,-3.6278,0.0,0.0,-3.7702,-3.8533,-3.8129,-3.7459,0.0,0.0,0.0,0.0,0.0,0.0,0.0,0.0,0.0,0.0,0.0,0.0,0.0,0.0,0.0,0.0,0.0,0.0,0.0,0.0,0.0,0.0,0.0,0.0,0.0,0.0,0.0,0.0,0.0,0.0,0.0,0.0,0.0,0.0,0.0,0.0,0.0,0.0,0.0,0.0,0.0,0.0,0.0,0.0,0.0,0.0,0.0,0.0,0.0,0.0,0.0,0.0,0.0,0.0,-0.5801,-1.2872,-2.5571,-3.3208,-3.5377,-3.5305,-3.4461,-3.2998,-3.1271,-2.9653,0.0,0.0,0.0,0.0,0.0,0.0,0.0,0.0,0.0,0.0,0.0,0.0,0.0,0.0,0.0,0.0,0.0,0.0,0.0,0.0,0.0,0.0,0.0,0.0,0.0,0.0,0.0,0.0,0.0,0.0,0.0,0.0,0.0,0.0,0.0,0.0,0.0,0.0,0.0,0.0,0.0,-3.5602,-3.6894,-3.8111,-3.9021,0.0,-4.0382,-4.0966,-4.0941,-4.1662,-4.1157,-3.7941,0.0,0.0,0.0,0.0,0.0,0.0,0.0,0.0,0.0,0.0,0.0,0.0,0.0,0.0,0.0,0.0,0.0,0.0,0.0,0.0,0.0,0.0,0.0,0.0,0.0,0.0,0.0,0.0,0.0,0.0,0.0,0.0,0.0,0.0,0.0,0.0,0.0,0.0,0.0,0.0,0.0,0.0,0.0,0.0,0.0,0.0,0.0,0.0,0.0,0.0,0.0,0.0,0.0,-0.8329,-1.8107,-2.8421,-3.4917,-3.7288,-3.7315,-3.6364,-3.4472,-3.3828,-3.2297,0.0,0.0,0.0,0.0,0.0,0.0,0.0,0.0,0.0,0.0,0.0,0.0,0.0,0.0,0.0,0.0,0.0,0.0,0.0,0.0,0.0,0.0,0.0,0.0,0.0,0.0,0.0,0.0,-1.8491,-1.9305,-2.0985,0.0,0.0,0.0,0.0,0.0,0.0,0.0,0.0,0.0,0.0,-3.6503,-3.8003,-3.905,0.0,0.0,-4.0637,-4.1017,-4.086,-4.0555,-3.9862,-3.8376,-3.6973,0.0,0.0,0.0,0.0,0.0,0.0,0.0,0.0,0.0,0.0,0.0,0.0,0.0,0.0,0.0,0.0,0.0,0.0,0.0,0.0,0.0,0.0,0.0,0.0,0.0,0.0,0.0,0.0,0.0,0.0,0.0,0.0,0.0,0.0,0.0,0.0,0.0,0.0,0.0,0.0,0.0,0.0,0.0,0.0,0.0,0.0,0.0,0.0,0.0,0.0,0.0,0.0,-1.0285,-1.9829,-2.9214,-3.5271,-3.7778,-3.8084,-3.7356,-3.5534,-3.5266,-3.3841,0.0,0.0,0.0,0.0,0.0,0.0,0.0,0.0,0.0,0.0,0.0,0.0,0.0,0.0,0.0,0.0,0.0,0.0,0.0,0.0,0.0,0.0,0.0,0.0,0.0,0.0,0.0,0.0,-1.854,-1.9461,-2.1591,0.0,0.0,0.0,0.0,0.0,0.0,0.0,0.0,0.0,0.0,-3.7598,-3.9124,-4.0036,-4.0556,-4.0789,-4.1117,-4.1336,-4.1289,-4.0221,-3.9264,-3.8838,0.0,0.0,0.0,0.0,0.0,0.0,0.0,0.0,0.0,0.0,0.0,0.0,0.0,0.0,0.0,0.0,0.0,0.0,0.0,0.0,0.0,0.0,0.0,0.0,0.0,0.0,0.0,2.1065,0.0,0.0,2.0165,0.0,0.0,0.0,0.0,0.0,0.0,0.0,0.0,0.0,0.0,0.0,0.0,0.0,0.0,0.0,0.0,0.0,0.0,0.0,0.0,0.0,0.0,-1.1359,-1.5726,-2.7356,-3.4379,-3.6678,-3.7619,-3.7486,-3.6295,-3.545,-3.4023,-3.1996,0.0,0.0,0.0,0.0,0.0,0.0,0.0,0.0,0.0,0.0,0.0,0.0,0.0,0.0,0.0,0.0,0.0,0.0,0.0,0.0,0.0,0.0,0.0,0.0,0.0,0.0,-1.9788,-2.0109,-2.083,0.0,0.0,0.0,0.0,0.0,0.0,0.0,0.0,0.0,0.0,-3.7299,-3.9199,-4.0453,-4.1077,-4.1542,-4.2275,-4.2329,-4.2444,-4.2607,-4.1452,-4.0306,0.0,0.0,0.0,0.0,0.0,0.0,0.0,0.0,0.0,0.0,0.0,0.0,0.0,0.0,0.0,0.0,0.0,0.0,0.0,0.0,0.0,0.0,0.0,0.0,0.0,0.0,0.0,1.9125,2.2129,0.0,0.0,0.0,0.0,0.0,0.0,0.0,0.0,0.0,0.0,0.0,-0.5178,-0.4056,0.0,0.0,0.0,0.0,0.0,0.0,0.0,0.0,0.0,0.0,0.0,0.0,-1.5453,-2.1403,-2.8851,-3.4186,-3.7064,-3.6848,-3.6582,-3.6303,-3.5377,-3.3762,-3.1486,0.0,0.0,0.0,0.0,0.0,0.0,0.0,0.0,0.0,0.0,0.0,0.0,0.0,0.0,0.0,0.0,0.0,0.0,0.0,0.0,0.0,0.0,0.0,0.0,0.0,-1.9131,0.0,0.0,0.0,0.0,0.0,0.0,0.0,0.0,0.0,0.0,0.0,-3.446,-3.6468,-3.8006,-3.9409,-4.0487,-4.0816,-4.1174,0.0,0.0,0.0,0.0,0.0,0.0,0.0,0.0,0.0,0.0,0.0,0.0,0.0,0.0,-4.0337,-3.885,-3.8512,-3.8418,-3.8441,0.0,0.0,0.0,0.0,0.0,0.0,0.0,0.0,0.0,0.0,0.0,0.0,0.0,0.0,1.9891,0.0,1.6025,0.0,0.0,0.0,0.0,0.0,0.0,0.0,0.0,-0.8567,-1.2806,-1.4844,-1.394,-1.346,0.0,-1.2,-0.8659,0.0,0.0,0.0,0.0,0.0,0.0,0.0,0.0,-1.951,-2.5672,-3.0004,-3.3455,-3.598,-3.5937,-3.5774,-3.5578,-3.4446,-3.2854,-3.0787,-2.9502,-2.8281,0.0,0.0,0.0,0.0,0.0,0.0,0.0,0.0,0.0,0.0,0.0,0.0,0.0,0.0,0.0,0.0,0.0,0.0,0.0,0.0,0.0,0.0,0.0,-1.9965,0.0,0.0,0.0,0.0,0.0,0.0,0.0,0.0,0.0,-3.2287,-3.3811,-3.5512,-3.7552,-3.8821,-3.9776,-4.0383,0.0,0.0,0.0,0.0,0.0,0.0,0.0,-4.1722,-4.1328,-4.1651,-4.2165,-4.2786,-4.3737,-4.4344,-4.4127,0.0,0.0,-4.133,-4.1016,-4.1151,-4.1132,-4.1306,-4.1599,-4.2157,-4.2519,-4.2843,0.0,0.0,0.0,0.0,0.0,0.0,0.0,0.0,2.4416,2.2014,0.0,1.4753,0.0,0.0,0.0,0.0,0.6653,-0.2836,0.0,0.0,-2.2069,-2.6554,-2.5581,-2.4771,-2.5069,-2.599,-2.3433,-2.2337,-2.1919,-1.0981,0.0,0.0,0.0,0.0,0.0,0.0,-2.332,-2.8275,-3.0522,-3.2304,-3.3723,-3.4885,-3.5082,-3.424,-3.2799,-3.145,-3.0173,-3.0037,-2.8552,-2.5447,-2.537,0.0,0.0,0.0,0.0,0.0,0.0,0.0,0.0,0.0,0.0,0.0,0.0,0.0,0.0,0.0,0.0,0.0,0.0,0.0,0.0,-2.009,0.0,0.0,0.0,0.0,0.0,0.0,0.0,0.0,0.0,0.0,-3.3858,-3.5467,-3.7009,-3.8421,0.0,0.0,0.0,0.0,-4.1263,-4.215,-4.2415,-4.2835,-4.3787,-4.4067,-4.4004,-4.3576,0.0,0.0,-4.5359,-4.6186,-4.6597,-4.5875,-4.6617,-4.6542,-4.426,-4.3789,-4.3763,-4.3781,-4.4072,-4.4401,-4.4515,-4.5016,-4.5365,0.5674,0.0,0.0,0.0,0.0,1.8269,2.217,2.8605,1.5719,1.18,1.3598,0.1075,0.0,0.0,0.0,0.0,0.0,0.0,-1.6444,-1.9444,-2.6112,-2.9992,-3.1365,-3.0914,-3.1204,-3.2098,-3.0661,-2.9788,-2.9334,-2.4967,-2.0795,-1.707,0.0,0.0,0.0,0.0,-2.6826,-2.9439,-3.1074,-3.2546,-3.3828,-3.347,-3.316,-3.2886,-3.2466,-3.2066,-3.162,-3.0849,-2.9723,-2.8214,-2.6767,0.0,0.0,0.0,0.0,0.0,0.0,0.0,0.0,0.0,0.0,0.0,0.0,0.0,0.0,0.0,0.0,0.0,0.0,0.0,-1.9887,-2.0562,-2.1721,0.0,0.0,0.0,0.0,0.0,0.0,0.0,0.0,0.0,-3.6843,-3.6573,-3.6799,0.0,0.0,-4.0288,-4.0639,-4.1426,-4.2432,-4.356,-4.3863,0.0,-4.5383,-4.5536,-4.5658,-4.5818,-4.6784,-4.763,-4.7838,-4.8575,-4.9028,-4.8817,-4.9029,-4.9021,-4.8352,-4.6818,-4.5853,-4.5917,-4.6408,-4.7068,-4.774,-4.8442,-4.8926,0.361,1.0169,0.9874,1.2885,1.7909,2.001,2.1795,2.2685,1.2853,0.6656,0.279,-0.7103,-1.0907,-0.9755,-0.8261,0.0,0.0,0.0,-2.3284,-2.6834,-3.0833,-3.3505,-3.4807,-3.4707,-3.4781,-3.5152,-3.5102,-3.4572,-3.3713,-3.2685,-3.022,-2.6302,0.0,0.0,-2.7208,-2.8412,-2.9816,-3.152,-3.2555,-3.336,-3.393,-3.3112,-3.2761,-3.2748,-3.2322,-3.1977,-3.1739,-3.1112,-3.019,-2.9043,-2.7625,-2.5922,0.0,0.0,0.0,0.0,0.0,0.0,0.0,0.0,0.0,0.0,0.0,-2.0326,-2.0378,0.0,0.0,0.0,-1.909,-1.9626,-2.1706,-2.251,0.0,0.0,0.0,0.0,0.0,0.0,0.0,-3.3844,-3.5269,-3.6855,-3.8905,-3.8746,-3.8647,-3.9438,-4.0074,-4.075,-4.1438,0.0,-4.3119,-4.4568,-4.4989,-4.5476,-4.643,-4.6847,-4.7126,-4.7452,-4.8199,-4.8829,-4.8928,-4.9821,-5.0434,-5.0198,-5.0343,-5.0496,-5.0188,-4.8904,-4.7978,-4.8138,-4.8633,-4.9257,-4.9828,-5.043,-5.0867,0.1474,0.7597,1.0116,1.243,1.5233,2.2477,1.9648,1.0581,1.1793,0.372,-1.0754,-1.2149,-1.3378,-1.4659,-1.5283,0.0,-2.259,-2.5727,-2.9595,-3.4006,-3.591,-3.6826,-3.6842,-3.6744,-3.6607,-3.636,-3.7515,-3.7352,-3.5947,-3.5649,-3.4997,-3.3942,-3.0838,-2.9937,-3.1328,-3.1576,-3.2439,-3.3985,-3.4576,-3.4618,-3.4091,-3.3473,-3.3256,-3.3477,-3.2287,-3.1434,-3.098,-3.0934,-3.0081,-2.8405,-2.7925,-2.6847,-2.4936,0.0,0.0,0.0,0.0,0.0,0.0,0.0,0.0,0.0,0.0,0.0,0.0,0.0,0.0,-1.9648,-2.0018,0.0,-2.4055,-2.5377,0.0,0.0,0.0,-3.06,-3.2249,-3.2888,-3.3986,-3.6005,0.0,0.0,-4.0282,-4.1254,-4.171,-4.1189,-4.1271,-4.1717,-4.2741,-4.3063,-4.3736,-4.5544,-4.5919,-4.6323,-4.7233,-4.7963,-4.8495,-4.867,-4.8978,-4.9332,-4.935,-5.043,-5.0986,-5.0506,-5.0904,-5.1221,-5.0493,-5.0348,-5.0315,-5.0319,-5.0607,-5.0909,-5.0929,-5.1232,-5.1545,-1.9203,-1.8413,-1.1592,-0.0949,1.0261,-0.0627,-0.2493,0.131,-0.6266,-1.2136,-1.6613,-2.4728,-2.8274,-2.8193,-2.9073,-3.0244,-3.1608,-3.3737,-3.5705,-3.7487,-3.7519,-3.8348,-3.9737,-3.8523,-3.87,-4.0036,-3.9042,-3.8315,-3.7763,-3.6883,-3.5904,-3.4981,-3.4736,-3.4138,-3.313,-3.3655,-3.4368,-3.5245,-3.5799,-3.5675,-3.4924,-3.3419,-3.2909,-3.3392,-3.1965,-3.1165,-3.1113,-3.0964,-2.9963,-2.8184,-2.7698,-2.6783,-2.5197,-2.4533,0.0,0.0,0.0,0.0,0.0,0.0,0.0,0.0,0.0,-2.1895,-2.2251,0.0,-2.2731,0.0,-2.3114,-2.3867,-2.5629,-2.6572,0.0,0.0,-3.1579,-3.2775,-3.4972,-3.554,-3.6619,-3.8882,-3.9486,-4.0281,-4.1597,-4.2209,-4.272,-4.3263,-4.3548,-4.3856,-4.4338,-4.5135,-4.5993,-4.6997,-4.7454,-4.7995,-4.8626,-4.9516,-4.9829,-4.9528,-5.0488,-5.1213,-5.0809,-5.1551,-5.2136,-5.1955,-5.2063,-5.21,-5.1946,-5.1919,-5.19,-5.191,-5.1653,-5.1371,-5.1438,-5.2004,-5.2449,-2.5957,-2.4001,-2.4629,-1.7173,-0.5195,-0.8507,-1.0033,-1.0787,-1.5575,-2.0809,-2.6283,-3.0729,-3.2978,-3.3515,-3.402,-3.4865,-3.5981,-3.7189,-3.8017,-3.8381,-3.8541,-3.9176,-4.0085,-3.956,-3.9527,-3.9901,-3.9595,-3.8999,-3.8149,-3.7483,-3.6927,-3.6432,-3.6328,-3.606,-3.5634,-3.6166,-3.675,-3.7497,-3.6738,-3.6121,-3.563,-3.3922,-3.3169,-3.3341,-3.2056,-3.13,-3.1207,-3.0728,-3.0033,-2.9085,-2.8204,-2.7275,-2.6172,-2.5369,-2.4566,0.0,0.0,0.0,0.0,0.0,0.0,0.0,0.0,0.0,0.0,0.0,-2.4861,-2.5602,-2.5231,-2.5895,-2.8092,-2.9157,-3.075,-3.3396,-3.4273,-3.5457,-3.7443,-3.7822,-3.8616,-4.0307,-4.101,-4.1761,-4.2967,-4.3712,-4.4457,-4.5662,-4.5962,-4.6,-4.5827,-4.6217,-4.6762,-4.7713,-4.8034,-4.8293,-4.8714,-4.9084,-4.9368,-4.9428,-5.0276,-5.1034,-5.1121,-5.175,-5.234,-5.2498,-5.2498,-5.2498,-5.2498,-5.2498,-5.2498,-5.2444,-5.22,-5.2,-5.1991,-5.2336,-5.2645,-2.7959,-2.317,-3.3505,-3.3446,-2.544,-1.2751,-1.3819,-2.4063,-2.1446,-2.6299,-3.6054,-3.3152,-3.2786,-3.438,-3.4447,-3.5499,-3.7194,-3.7895,-3.8124,-3.7953,-3.8887,-3.9332,-3.9332,-3.9817,-3.9456,-3.8309,-3.9558,-3.9348,-3.7863,-3.7822,-3.7764,-3.7648,-3.6677,-3.6835,-3.8167,-3.8498,-3.8948,-3.955,-3.7528,-3.6425,-3.6303,-3.4614,-3.3666,-3.3563,-3.2315,-3.1477,-3.1142,-3.0465,-3.0119,-3.0055,-2.8893,-2.7944,-2.7322,-2.6279,-2.5294,0.0,-2.4699,0.0,0.0,0.0,0.0,0.0,0.0,0.0,0.0,-2.5612,-2.6637,-2.7553,-2.7027,-2.7839,-3.0774,-3.2137,-3.3642,-3.5638,-3.6857,-3.8072,-3.9484,-3.9738,-4.0203,-4.129,-4.207,-4.2986,-4.4206,-4.5101,-4.6127,-4.7323,-4.7556,-4.7375,-4.7173,-4.683,-4.7012,-4.7869,-4.8001,-4.8065,-4.8115,-4.8115,-4.8292,-4.8639,-4.9368,-5.0011,-5.0692,-5.1455,-5.2082,-5.2294,-5.2408,-5.2466,-5.2423,-5.2434,-5.2498,-5.2498,-5.2444,-5.2426,-5.2426,-5.2508,-5.2498,-4.1808,-4.2161,-4.3921,-4.3258,-4.0654,-3.6645,-3.4991,-3.4965,-3.331,-3.4089,-3.6438,-3.5302,-3.5051,-3.5518,-3.5932,-3.5824,-3.5374,-3.7008,-3.7758,-3.7817,-3.8044,-3.8663,-3.9513,-3.8476,-3.8525,-3.9476,-3.9351,-3.8778,-3.7946,-3.7847,-3.7531,-3.7071,-3.6845,-3.7638,-3.9439,0.0,0.0,0.0,-3.8244,-3.7652,-3.7198,-3.4851,-3.3861,-3.4545,-3.2342,0.0,-3.1051,-3.0398,-2.9708,-2.8872,-2.8681,0.0,0.0,0.0,0.0,0.0,0.0,0.0,0.0,0.0,0.0,0.0,-2.8131,-2.6963,-2.64,-2.7618,-2.8731,-2.9516,-2.9862,-3.0725,-3.2426,-3.3789,-3.5236,-3.6751,-3.8189,-3.9486,-4.0846,-4.1459,-4.2117,-4.2787,-4.2996,-4.3419,-4.431,-4.4659,-4.53,-4.6759,-4.7033,-4.7288,-4.7737,-4.7687,-4.777,-4.7984,-4.8001,-4.8001,-4.8001,-4.8275,-4.842,-4.8339,-4.9084,-4.987,-5.0309,-5.0957,-5.1518,-5.1772,-5.2148,-5.2246,-5.1879,-5.2162,-5.2452,-5.2498,-5.2498,-5.2498,-5.2498,-5.2498,-5.2498,-4.767,-4.8301,-4.755,-4.6612,0.0,-4.328,-4.1375,-3.9643,-3.8042,-3.6854,-3.5985,-3.5353,-3.5368,-3.5868,-3.6253,-3.6431,-3.6338,-3.7183,-3.7678,-3.79,-3.7865,-3.8237,-3.9028,-3.8237,-3.8165,-3.8641,-3.8652,-3.8334,-3.7706,-3.7663,-3.7445,-3.7163,-3.686,-3.739,-3.8686,-3.8824,-3.8963,-3.9253,-3.8647,-3.8104,-3.7477,-3.5692,-3.4574,-3.4429,-3.2968,0.0,0.0,0.0,0.0,0.0,0.0,0.0,0.0,-2.8598,0.0,-2.8929,-2.9013,-2.9328,-2.9896,-3.0031,-3.02,-3.0367,-2.9774,-2.9176,-2.8749,-2.9667,-3.0628,-3.1339,-3.1666,-3.2431,-3.3747,-3.5162,-3.6599,-3.7997,-3.9506,-4.0786,-4.1698,-4.2162,-4.2626,-4.3195,-4.3344,-4.363,-4.4358,-4.451,-4.4946,-4.604,-4.6604,-4.6965,-4.7337,-4.777,-4.8001,-4.8001,-4.8001,-4.8001,-4.8001,-4.8179,-4.8403,-4.842,-4.8855,-4.9555,-5.042,-5.0823,-5.1263,-5.1824,-5.1934,-5.1878,-5.2111,-5.1846,-5.1625,-5.2065,-5.2122,-5.2066,-5.2048,-5.2275,-5.2498,-4.9835,-4.9391,-4.8477,-4.7476,-4.6215,-4.3694,-4.2117,-4.1173,-3.9266,0.0,0.0,-3.4927,-3.5049,-3.5753,-3.6003,-3.6678,-3.7569,-3.7561,-3.7762,-3.8028,-3.8125,-3.8261,-3.8479,-3.8307,-3.8046,-3.765,-3.8017,-3.7895,-3.7401,-3.7401,-3.7401,-3.7342,-3.6785,-3.683,-3.7492,-3.8185,-3.8723,-3.9123,-3.855,-3.792,-3.7323,-3.6336,-3.5243,-3.4152,-3.3778,-3.292,-3.1693,-3.048,-3.0234,-3.1055,-2.9479,-2.9218,-3.0686,-3.0174,-3.0086,-3.0681,-3.1127,-3.1286,-3.1302,-3.2111,-3.2033,-3.0563,-3.1146,-3.1474,-3.131,-3.1551,-3.215,-3.3014,-3.3001,-3.3529,-3.5104,-3.6387,-3.765,-3.8967,-4.0586,-4.1758,-4.2282,-4.2476,-4.2776,-4.3225,-4.3344,-4.363,-4.4358,-4.451,-4.4812,-4.5608,-4.6324,-4.688,-4.7033,-4.7621,-4.8001,-4.8001,-4.8001,-4.8001,-4.8001,-4.8001,-4.8179,-4.8467,-4.853,-4.908,-5.0134,-5.06,-5.09,-5.1511,-5.1346,-5.1384,-5.1871,-5.1245,-5.0777,-5.1482,-5.1529,-5.1449,-5.15,-5.1835,-5.2209,-5.0273,-5.0017,-4.9252,-4.8284,-4.7122,-4.5364,-4.3243,-4.0918,-3.8432,-3.6954,-3.6376,-3.5459,-3.5008,-3.5068,-3.537,-3.5818,-3.6351,-3.7375,-3.7969,-3.8273,-3.881,-3.8952,-3.8696,-3.8279,-3.818,-3.8435,-3.7966,-3.7621,-3.7401,-3.7401,-3.7401,-3.7282,-3.6785,-3.6815,-3.7507,-3.8169,-3.8262,-3.7784,-3.7418,-3.7036,-3.6645,-3.5738,-3.5156,-3.4774,-3.4332,-3.3788,-3.3139,-3.2626,-3.247,-3.2445,-3.2053,-3.1776,-3.1655,-3.1506,-3.1674,-3.2004,-3.2093,-3.2642,-3.3839,-3.3519,-3.31,-3.2718,-3.3882,-3.4297,-3.3531,-3.2881,-3.3172,-3.4543,-3.3967,-3.4446,-3.6556,-3.7408,-3.8147,-3.9141,-4.1,-4.2267,-4.2402,-4.2851,-4.3195,-4.3314,-4.3344,-4.363,-4.4297,-4.4434,-4.4662,-4.5536,-4.6182,-4.6981,-4.7638,-4.7919,-4.8001,-4.8001,-4.8001,-4.8001,-4.8001,-4.8001,-4.8049,-4.8066,-4.8131,-4.8412,-4.9324,-4.9523,-4.9639,-4.9771,-5.0181,-5.0298,-5.0138,-5.0258,-5.0471,-5.0756,-5.0819,-5.0822,-5.0822,-5.0982,-5.1312,-4.9656,-4.9451,-4.906,-4.7794,-4.5922,-4.3973,-4.2059,-4.0293,-3.8631,-3.7575,-3.7092,-3.629,-3.6105,-3.6361,-3.6542,-3.6954,-3.7434,-3.7714,-3.8113,-3.8432,-3.8697,-3.8874,-3.8939,-3.8614,-3.8543,-3.867,-3.7996,-3.7606,-3.7421,-3.7201,-3.7013,-3.6907,-3.66,-3.6708,-3.7063,-3.7372,-3.7435,-3.7313,-3.7355,-3.7026,-3.6241,-3.6276,-3.5677,-3.4457,-3.4515,-3.4075,-3.2956,-3.2478,-3.2324,-3.2547,-3.2305,-3.2338,-3.2796,-3.2952,-3.324,-3.3691,-3.372,-3.4051,-3.4852,-3.4574,-3.4752,-3.5311,-3.5148,-3.544,-3.6203,-3.479,-3.4138,-3.4674,-3.4727,-3.5292,-3.6816,-3.8215,-3.9348,-4.0089,-4.1814,-4.2865,-4.291,-4.312,-4.3329,-4.3344,-4.3344,-4.3409,-4.3771,-4.3849,-4.3927,-4.4434,-4.539,-4.662,-4.7787,-4.8001,-4.8001,-4.8001,-4.8001,-4.8001,-4.8001,-4.8001,-4.8001,-4.8001,-4.8001,-4.8315,-4.8945,-4.911,-4.926,-4.9692,-4.9774,-4.9799,-4.9953,-4.9767,-4.9812,-5.0231,-5.0253,-5.0289,-5.0293,-5.0497,-5.1034,-4.8993,-4.8765,-4.8444,-4.6841,-4.4355,-4.2518,-4.106,-3.9793,-3.8841,-3.8023,-3.7491,-3.6964,-3.6964,-3.7204,-3.7548,-3.7986,-3.8411,-3.8241,-3.8385,-3.8792,-3.875,-3.8984,-3.9382,-3.9164,-3.9051,-3.8973,-3.8353,-3.7899,-3.771,-3.7156,-3.6755,-3.6507,-3.6492,-3.6554,-3.6723,-3.6723,-3.6831,-3.7181,-3.7297,-3.6999,-3.6178,-3.6631,-3.6045,-3.4486,-3.4793,-3.4364,-3.3092,-3.2504,-3.2474,-3.294,-3.2708,-3.2962,-3.395,-3.4183,-3.4484,-3.4942,-3.5001,-3.5156,-3.5436,-3.5583,-3.605,-3.7208,-3.6014,-3.5955,-3.7468,-3.6177,-3.5125,-3.5288,-3.5724,-3.6361,-3.7602,-3.9173,-4.0625,-4.1389,-4.2515,-4.3205,-4.3329,-4.3344,-4.3344,-4.3344,-4.3344,-4.3344,-4.3344,-4.3344,-4.3551,-4.4066,-4.4962,-4.6269,-4.7638,-4.8001,-4.8001,-4.8001,-4.8001,-4.8001,-4.8001,-4.8001,-4.8001,-4.8001,-4.8001,-4.8249,-4.868,-4.8829,-4.9011,-4.9375,-4.9294,-4.921,-4.9809,-4.9385,-4.9056,-4.948,-4.9545,-4.9538,-4.9639,-4.9913,-5.0442,-4.8872,-4.8277,-4.7557,-4.5513,-4.3136,-4.2537,-4.1377,-3.9793,-3.8546,-3.7734,-3.7289,-3.7042,-3.6638,-3.6336,-3.7175,-3.7803,-3.8208,-3.8766,-3.9128,-3.9531,-3.9698,-3.9947,-4.0224,-3.9812,-3.9734,-3.9835,-3.9196,-3.866,-3.8304,-3.7723,-3.7092,-3.6553,-3.6492,-3.6616,-3.6723,-3.6723,-3.68,-3.6999,-3.6739,-3.66,-3.6616,-3.6243,-3.5706,-3.5145,-3.513,-3.5014,-3.4434,-3.4464,-3.4501,-3.4677,-3.4589,-3.4765,-3.5029,-3.5059,-3.5154,-3.5439,-3.5454,-3.5693,-3.6312,-3.638,-3.6591,-3.7113,-3.6568,-3.6352,-3.6979,-3.636,-3.6463,-3.7226,-3.6974,-3.7602,-3.9664,-4.0589,-4.1316,-4.2183,-4.2891,-4.3344,-4.3344,-4.3344,-4.3344,-4.3344,-4.3344,-4.3344,-4.3344,-4.3344,-4.3849,-4.4962,-4.5258,-4.6056,-4.7421,-4.7853,-4.7853,-4.7935,-4.8001,-4.8001,-4.8001,-4.8001,-4.8001,-4.8001,-4.8001,-4.81,-4.8199,-4.8199,-4.8183,-4.8514,-4.8381,-4.8365,-4.843,-4.8229,-4.8358,-4.8604,-4.8728,-4.8719,-4.8877,-4.9063,-4.9376,-4.9547,-4.9025,-4.7767,-4.5682,-4.3323,-4.2375,-4.104,-3.9523,-3.8575,-3.7734,-3.7134,-3.7134,-3.6978,-3.6822,-3.712,-3.763,-3.8323,-3.8649,-3.8738,-3.887,-3.922,-3.9508,-3.9692,-3.994,-4.0078,-4.0318,-3.98,-3.9226,-3.8552,-3.7773,-3.7319,-3.7201,-3.7202,-3.7126,-3.6999,-3.7013,-3.6968,-3.6785,-3.6677,-3.6523,-3.6258,-3.5976,-3.5544,-3.4854,-3.5052,-3.5052,-3.4765,-3.4698,-3.475,-3.4868,-3.5001,-3.5082,-3.5213,-3.5294,-3.5603,-3.6043,-3.6088,-3.6207,-3.6477,-3.6399,-3.6766,-3.7822,-3.6713,-3.6437,-3.751,-3.6531,-3.6521,-3.8159,-3.83,-3.8867,-4.0546,-4.1445,-4.2164,-4.2787,-4.318,-4.3344,-4.3344,-4.3344,-4.3344,-4.3344,-4.3344,-4.3344,-4.3344,-4.3344,-4.3771,-4.4737,-4.5036,-4.5536,-4.648,-4.6981,-4.7253,-4.7337,-4.7638,-4.8001,-4.8001,-4.8001,-4.8001,-4.8001,-4.8001,-4.8001,-4.8001,-4.8001,-4.8017,-4.8001,-4.8066,-4.8115,-4.8181,-4.8244,-4.8356,-4.8356,-4.842,-4.8547,-4.861,-4.8707,-4.8956,-4.9523,-4.8978,-4.7625,-4.5738,-4.3524,-4.2426,-4.1031,-3.9533,-3.86,-3.7753,-3.7084,-3.7239,-3.7133,-3.6993,-3.712,-3.7567,-3.8202,-3.8352,-3.8366,-3.8277,-3.8649,-3.8958,-3.9177,-3.9651,-4.0005,-4.0209,-4.0137,-3.9662,-3.8903,-3.8395,-3.8071,-3.8054,-3.7961,-3.7762,-3.753,-3.7281,-3.6956,-3.6722,-3.6444,-3.6054,-3.5737,-3.5608,-3.5299,-3.4735,-3.4854,-3.4935,-3.475,-3.475,-3.4817,-3.5067,-3.5213,-3.5294,-3.5309,-3.5589,-3.6058,-3.6656,-3.6746,-3.6821,-3.6985,-3.6851,-3.7239,-3.8087,-3.7082,-3.6858,-3.7672,-3.6999,-3.732,-3.921,-3.9549,-4.0147,-4.1208,-4.211,-4.2851,-4.3269,-4.3344,-4.3344,-4.3344,-4.3344,-4.3344,-4.3344,-4.3344,-4.3344,-4.3344,-4.3344,-4.3615,-4.4373,-4.451,-4.4812,-4.5551,-4.6198,-4.6534,-4.6759,-4.7321,-4.7704,-4.7935,-4.8001,-4.8001,-4.8001,-4.8001,-4.8001,-4.8001,-4.8001,-4.8001,-4.8001,-4.8115,-4.8115,-4.8115,-4.8244,-4.8373,-4.8373,-4.8373,-4.8356,-4.842,-4.8564,-4.8644,-4.8312,-4.7665,-4.6625,-4.5193,-4.3526,-4.3044,-4.1744,-3.9936,-3.8779,-3.7763,-3.7111,-3.7292,-3.6902,-3.6353,-3.7479,-3.7749,-3.7734,-3.8052,-3.8277,-3.8202,-3.8277,-3.8575,-3.909,-3.9162,-3.9394,-3.9753,-4.0015,-4.0025,-3.9704,-3.9776,-3.9632,-3.9058,-3.8446,-3.8188,-3.8104,-3.7208,-3.6753,-3.6788,-3.5979,-3.5344,-3.5264,-3.4979,-3.5008,-3.5052,-3.4735,-3.4601,-3.4868,-3.4854,-3.5067,-3.5439,-3.5469,-3.5534,-3.5564,-3.6133,-3.6761,-3.7255,-3.736,-3.7644,-3.8138,-3.8117,-3.8216,-3.8222,-3.7994,-3.8052,-3.8156,-3.7898,-3.8653,-4.0976,-4.0935,-4.12,-4.1907,-4.2657,-4.3225,-4.3299,-4.3344,-4.3344,-4.3344,-4.3344,-4.3344,-4.3344,-4.3344,-4.3389,-4.3374,-4.3344,-4.369,-4.4327,-4.4511,-4.4723,-4.5368,-4.5687,-4.6104,-4.6496,-4.6844,-4.7118,-4.7803,-4.8017,-4.8001,-4.8001,-4.8001,-4.8001,-4.8001,-4.8001,-4.8001,-4.8001,-4.8001,-4.8066,-4.8001,-4.8001,-4.8066,-4.8066,-4.8131,-4.8115,-4.8244,-4.8227,-4.8292,-4.8941,-4.7375,-4.642,-4.5107,-4.3625,-4.2962,-4.1761,-4.025,-3.919,-3.8355,-3.781,-3.7991,-3.8112,-3.8239,-3.8846,-3.8494,-3.7562,-3.8202,-3.8412,-3.8202,-3.8202,-3.8352,-3.8501,-3.8797,-3.9017,-3.9322,-3.9666,-4.0039,-4.017,-3.968,-3.936,-3.9247,-3.8788,-3.8356,-3.8013,-3.7607,-3.7285,-3.7045,-3.6603,-3.6103,-3.553,-3.5746,-3.5683,-3.5045,-3.4802,-3.4802,-3.4935,-3.5016,-3.5228,-3.5504,-3.5908,-3.6133,-3.6237,-3.7135,-3.7584,-3.7464,-3.7808,-3.8138,-3.8277,-3.7952,-3.8017,-3.8782,-3.7933,-3.7658,-3.8138,-3.8448,-3.9208,-4.0422,-4.1488,-4.2125,-4.2737,-4.3155,-4.3344,-4.3344,-4.3344,-4.3344,-4.3344,-4.3344,-4.3344,-4.3344,-4.3344,-4.3479,-4.3793,-4.3614,-4.3738,-4.4765,-4.4679,-4.4595,-4.4862,-4.5615,-4.6113,-4.574,-4.6462,-4.7351,-4.7084,-4.7683,-4.8017,-4.8017,-4.8001,-4.8017,-4.8017,-4.8017,-4.8001,-4.8001,-4.8001,-4.7935,-4.7919,-4.7935,-4.7935,-4.7853,-4.7919,-4.8001,-4.8066,-4.8115,-4.8227,-4.8546,-4.69,-4.6111,-4.4934,-4.3594,-4.2999,-4.1848,-4.0517,-3.9701,-3.8851,-3.8297,-3.8519,-3.8851,-3.9215,-3.9828,-3.9319,-3.7919,-3.8597,-3.8706,-3.8277,-3.8202,-3.8202,-3.8277,-3.8486,-3.8634,-3.887,-3.9322,-3.9737,-4.0146,-3.9606,-3.9436,-3.9558,-3.9043,-3.8622,-3.8187,-3.7878,-3.7441,-3.7175,-3.6984,-3.6476,-3.6029,-3.645,-3.6344,-3.5701,-3.5606,-3.5452,-3.5045,-3.534,-3.5606,-3.5908,-3.6432,-3.6881,-3.7165,-3.7913,-3.8302,-3.8138,-3.8452,-3.8721,-3.865,-3.7974,-3.7856,-3.8502,-3.8121,-3.7825,-3.8155,-3.9078,-3.9964,-4.0881,-4.1612,-4.2565,-4.3115,-4.3344,-4.3344,-4.3344,-4.3344,-4.3344,-4.3344,-4.3344,-4.3464,-4.3643,-4.3703,-4.3973,-4.4436,-4.4212,-4.4436,-4.5214,-4.487,-4.4661,-4.4779,-4.5242,-4.5896,-4.5372,-4.6131,-4.6861,-4.713,-4.7648,-4.7893,-4.7896,-4.7934,-4.7935,-4.7952,-4.8017,-4.7935,-4.8001,-4.7935,-4.7853,-4.7787,-4.7853,-4.7787,-4.7704,-4.7853,-4.8001,-4.8066,-4.8049,-4.8115,-4.6831,-4.5985,-4.5536,-4.4646,-4.3539,-4.3051,-4.2085,-4.0781,-4.0108,-3.9243,-3.8406,-3.8906,-3.8949,-3.8783,-4.033,-4.0126,-3.8968,-3.9214,-3.9037,-3.85,-3.8277,-3.8202,-3.8202,-3.8277,-3.8277,-3.8352,-3.887,-3.9322,-3.9681,-3.9707,-3.9788,-3.9733,-3.9275,-3.8854,-3.9015,-3.7916,-3.7375,-3.7274,-3.6837,-3.656,-3.6629,-3.6887,-3.6969,-3.6832,-3.7109,-3.6656,-3.5391,-3.5882,-3.6343,-3.6552,-3.7075,-3.7719,-3.8227,-3.8452,-3.8706,-3.917,-3.9349,-3.9394,-3.9352,-3.8738,-3.8037,-3.7949,-3.8385,-3.8793,-3.8732,-3.9845,-4.1207,-4.1892,-4.2158,-4.2482,-4.3155,-4.3344,-4.3344,-4.3344,-4.3344,-4.3344,-4.3344,-4.3359,-4.3569,-4.4062,-4.4212,-4.4586,-4.5065,-4.5095,-4.5185,-4.5424,-4.5409,-4.5319,-4.5274,-4.5324,-4.5304,-4.5825,-4.6298,-4.6702,-4.7174,-4.7716,-4.775,-4.7723,-4.783,-4.7858,-4.7869,-4.7869,-4.7638,-4.7638,-4.7354,-4.7202,-4.6981,-4.7066,-4.727,-4.7253,-4.7571,-4.7935,-4.8001,-4.8066,-4.8001,-4.6095,-4.5478,-4.4526,-4.3849,-4.3314,-4.2784,-4.1889,-4.0955,-4.0562,-3.9768,-3.9011,-4.0068,-4.0054,-3.9871,-4.1353,-4.1478,-4.0161,-4.0423,-3.9824,-3.851,-3.8231,-3.8231,-3.8217,-3.8202,-3.8202,-3.8277,-3.8797,-3.9177,-3.925,-3.9307,-3.9364,-3.922,-3.8782,-3.8501,-3.8501,-3.8088,-3.7912,-3.7883,-3.7723,-3.7565,-3.7489,-3.7971,-3.7923,-3.7362,-3.7769,-3.7659,-3.6813,-3.6948,-3.7052,-3.7135,-3.7734,-3.8407,-3.8945,-3.9095,-3.9185,-3.9379,-3.9424,-3.9664,-4.0023,-3.9876,-3.9742,-3.9839,-3.9809,-3.9989,-4.0246,-4.0633,-4.1462,-4.2261,-4.2704,-4.309,-4.325,-4.3344,-4.3344,-4.3344,-4.3344,-4.3344,-4.3389,-4.3718,-4.3838,-4.3778,-4.4421,-4.502,-4.5244,-4.5334,-4.5738,-4.6411,-4.6277,-4.6007,-4.6032,-4.6154,-4.6031,-4.591,-4.6199,-4.6624,-4.7006,-4.7325,-4.746,-4.7416,-4.7493,-4.7459,-4.7498,-4.7421,-4.727,-4.7134,-4.6844,-4.648,-4.6269,-4.6269,-4.655,-4.6742,-4.7033,-4.7404,-4.7853,-4.8001,-4.8001,-4.5274,-4.4752,-4.3849,-4.3235,-4.2945,-4.2363,-4.1702,-4.093,-4.0916,-4.0215,-3.9516,-4.0617,-4.0958,-4.0703,-4.1961,-4.2049,-4.1266,-4.1462,-4.0686,-3.9317,-3.899,-3.8797,-3.8565,-3.8304,-3.8202,-3.8277,-3.8575,-3.8723,-3.8797,-3.8797,-3.8797,-3.8664,-3.8352,-3.8202,-3.8202,-3.8202,-3.8202,-3.8277,-3.8337,-3.8311,-3.834,-3.8649,-3.8689,-3.8277,-3.8556,-3.8542,-3.8167,-3.8153,-3.8033,-3.7958,-3.8407,-3.8975,-3.9394,-3.9424,-3.9529,-3.9666,-3.9505,-3.9669,-4.0502,-4.0123,-3.9949,-4.0251,-4.0421,-4.0394,-4.0856,-4.0937,-4.1785,-4.2634,-4.2758,-4.293,-4.325,-4.3344,-4.3344,-4.3344,-4.3344,-4.3344,-4.3434,-4.3913,-4.4302,-4.4347,-4.5035,-4.5648,-4.5963,-4.6067,-4.6337,-4.7085,-4.6965,-4.6696,-4.6706,-4.6833,-4.6379,-4.6115,-4.6456,-4.6698,-4.6746,-4.6993,-4.7154,-4.7137,-4.7072,-4.6909,-4.6835,-4.6582,-4.641,-4.634,-4.6182,-4.5825,-4.5536,-4.5769,-4.5969,-4.6253,-4.6448,-4.6965,-4.7404,-4.7853,-4.8001,-4.4328,-4.3912,-4.3472,-4.3025,-4.2622,-4.2102,-4.1521,-4.0944,-4.124,-4.0631,-3.9881,-4.0802,-4.1296,-4.1296,-4.1811,-4.2026,-4.1972,-4.1927,-4.1504,-4.0867,-4.0412,-3.9979,-3.9262,-3.8754,-3.8551,-3.8478,-3.8376,-3.8379,-3.8437,-3.8321,-3.8202,-3.8277,-3.8277,-3.8202,-3.8202,-3.8202,-3.8277,-3.8441,-3.8516,-3.8634,-3.8957,-3.9075,-3.9147,-3.9218,-3.9305,-3.9305,-3.923,-3.92,-3.9005,-3.8616,-3.9035,-3.9307,-3.9397,-3.9397,-3.9637,-4.0144,-3.9481,-3.9985,-4.061,-4.029,-3.9472,-3.9643,-4.0383,-4.0804,-4.0399,-4.1101,-4.2024,-4.2812,-4.2614,-4.2578,-4.317,-4.3449,-4.3479,-4.3479,-4.3569,-4.3524,-4.3524,-4.4122,-4.4691,-4.5214,-4.5888,-4.6516,-4.6965,-4.7025,-4.7189,-4.7249,-4.7249,-4.7189,-4.71,-4.6961,-4.68,-4.6811,-4.6821,-4.6911,-4.695,-4.7145,-4.7226,-4.6701,-4.6608,-4.6376,-4.6144,-4.5873,-4.539,-4.539,-4.539,-4.5036,-4.4887,-4.4962,-4.5258,-4.5536,-4.5953,-4.6518,-4.7101,-4.7704,-4.7919,-4.4297,-4.4887,-4.3756,-4.3379,-4.3472,-4.322,-4.2319,-4.131,-4.1961,-4.131,-4.0402,-4.0972,-4.138,-4.0944,-4.1811,-4.1971,-4.1826,-4.2298,-4.2313,-4.1843,-4.1799,-4.1033,-4.0046,-3.9697,-3.9567,-3.9494,-3.9102,-3.8942,-3.8899,-3.8507,-3.8275,-3.8202,-3.826,-3.8217,-3.8202,-3.8202,-3.8292,-3.8441,-3.8516,-3.8738,-3.9031,-3.9104,-3.9192,-3.9352,-3.9424,-3.9424,-3.9424,-3.9424,-3.9364,-3.92,-3.9305,-3.9269,-3.9101,-3.9174,-3.9466,-3.9993,-3.9906,-4.0089,-4.0944,-4.1263,-4.123,-4.1083,-4.0936,-4.0955,-4.14,-4.1098,-4.1547,-4.2155,-4.2563,-4.304,-4.3354,-4.3793,-4.4197,-4.4631,-4.4392,-4.4257,-4.4691,-4.5364,-4.5708,-4.5514,-4.6337,-4.68,-4.683,-4.704,-4.7294,-4.7309,-4.7309,-4.7309,-4.7234,-4.7204,-4.707,-4.713,-4.7201,-4.716,-4.7242,-4.7417,-4.7201,-4.6479,-4.6165,-4.5768,-4.5481,-4.52,-4.4586,-4.4066,-4.4297,-4.4082,-4.3849,-4.3771,-4.422,-4.4812,-4.539,-4.6024,-4.7186,-4.7919,-4.7853,-4.4526,-4.4737,-4.3974,-4.3756,-4.3756,-4.3096,-4.2452,-4.2111,-4.2222,-4.1825,-4.124,-4.2058,-4.2222,-4.1645,-4.2333,-4.2496,-4.2237,-4.2659,-4.2769,-4.2688,-4.2496,-4.1748,-4.0735,-4.0292,-4.0104,-4.006,-3.9741,-3.961,-3.9538,-3.9175,-3.8884,-3.8681,-3.8699,-3.8629,-3.8366,-3.8427,-3.859,-3.8738,-3.8738,-3.8885,-3.9177,-3.925,-3.9265,-3.9352,-3.9439,-3.9499,-3.9783,-4.0098,-3.998,-3.9432,-3.9224,-3.9084,-3.8939,-3.9246,-3.9706,-4.03,-4.0052,-4.0406,-4.1602,-4.1843,-4.1584,-4.1529,-4.1365,-4.1691,-4.1863,-4.1596,-4.2077,-4.3387,-4.3537,-4.3716,-4.4131,-4.4526,-4.502,-4.5514,-4.5379,-4.52,-4.5334,-4.5843,-4.6082,-4.6097,-4.6561,-4.7204,-4.677,-4.71,-4.7249,-4.7309,-4.7309,-4.7309,-4.7294,-4.7309,-4.7309,-4.7309,-4.7309,-4.7279,-4.7279,-4.7332,-4.7114,-4.644,-4.5664,-4.5309,-4.4849,-4.4526,-4.4112,-4.3596,-4.3423,-4.3359,-4.3419,-4.3404,-4.363,-4.422,-4.4871,-4.5463,-4.6394,-4.7354,-4.7337,-4.4887,-4.4143,-4.4205,-4.4159,-4.3834,-4.2585,-4.2504,-4.2776,-4.2629,-4.2319,-4.2237,-4.3314,-4.3155,-4.2769,-4.2835,-4.317,-4.317,-4.293,-4.293,-4.2945,-4.2739,-4.2093,-4.1236,-4.0771,-4.0554,-4.0466,-4.0278,-4.0191,-4.0147,-4.0104,-3.977,-3.947,-3.9492,-3.9305,-3.9042,-3.8987,-3.9106,-3.9387,-3.9461,-3.955,-3.9785,-3.9785,-3.9888,-3.9873,-3.9858,-4.0068,-4.0516,-4.086,-4.0662,-3.9073,-3.9156,-3.9211,-3.8993,-3.9576,-4.0227,-4.0732,-4.0467,-4.0943,-4.232,-4.1612,-4.0958,-4.1171,-4.2383,-4.2945,-4.2324,-4.2582,-4.3364,-4.4462,-4.4347,-4.4541,-4.5138,-4.5394,-4.5723,-4.6232,-4.6381,-4.6112,-4.5813,-4.6052,-4.6426,-4.6441,-4.6995,-4.7234,-4.7309,-4.7309,-4.7309,-4.7309,-4.7309,-4.7309,-4.7309,-4.7309,-4.7309,-4.7309,-4.7309,-4.7309,-4.7309,-4.7336,-4.6886,-4.6367,-4.5477,-4.4825,-4.4237,-4.3935,-4.3623,-4.3449,-4.3464,-4.3539,-4.3614,-4.3554,-4.3498,-4.3849,-4.4586,-4.4737,-4.4946,-4.5969,-4.641,-4.5258,-4.5697,-4.4962,-4.4768,-4.4889,-4.4572,-4.3912,-4.3269,-4.3756,-4.3379,-4.2835,-4.309,-4.3235,-4.317,-4.2835,-4.2659,-4.309,-4.309,-4.3105,-4.2754,-4.2622,-4.2266,-4.1927,-4.1613,-4.1628,-4.1482,-4.1076,-4.0887,-4.0815,-4.0466,-4.006,-4.0037,-4.0164,-4.0198,-4.0099,-4.0168,-4.0497,-4.0664,-4.0619,-4.0696,-4.0831,-4.0831,-4.0846,-4.0846,-4.0891,-4.0995,-4.113,-4.1294,-4.072,-4.0046,-4.0284,-4.0456,-3.9683,-4.0153,-4.0699,-4.077,-4.1219,-4.1389,-4.1435,-4.2049,-4.2291,-4.1624,-4.2408,-4.316,-4.3458,-4.3559,-4.3874,-4.4291,-4.4674,-4.5367,-4.5923,-4.6097,-4.6396,-4.6845,-4.701,-4.698,-4.6905,-4.6965,-4.701,-4.7085,-4.7174,-4.7309,-4.7309,-4.7309,-4.7309,-4.7309,-4.7309,-4.7309,-4.7309,-4.7309,-4.7309,-4.7309,-4.7309,-4.7309,-4.7309,-4.7264,-4.6935,-4.6516,-4.5648,-4.487,-4.4287,-4.3898,-4.3868,-4.3748,-4.3614,-4.3718,-4.3928,-4.3643,-4.3558,-4.394,-4.4312,-4.4526,-4.477,-4.5321,-4.5677,-4.564,-4.5728,-4.5379,-4.5336,-4.5262,-4.4799,-4.4389,-4.4082,-4.3927,-4.3849,-4.363,-4.3566,-4.3488,-4.3581,-4.3076,-4.2915,-4.3076,-4.325,-4.309,-4.2769,-4.2622,-4.2459,-4.231,-4.216,-4.2092,-4.2034,-4.1773,-4.1584,-4.1439,-4.1258,-4.1077,-4.0806,-4.1057,-4.1008,-4.0831,-4.0971,-4.1111,-4.1188,-4.1247,-4.1308,-4.1384,-4.1384,-4.1384,-4.1489,-4.1654,-4.1848,-4.1848,-4.2177,-4.1962,-4.1617,-4.1883,-4.1332,-3.9929,-4.0294,-4.0716,-4.0774,-4.1463,-4.1999,-4.206,-4.212,-4.228,-4.2086,-4.2855,-4.3286,-4.3936,-4.4385,-4.5224,-4.5501,-4.6007,-4.6441,-4.6741,-4.6785,-4.7025,-4.7174,-4.7309,-4.7309,-4.7309,-4.7309,-4.7309,-4.7309,-4.7294,-4.7309,-4.7309,-4.7309,-4.7309,-4.7309,-4.7309,-4.7309,-4.7309,-4.7309,-4.7309,-4.7309,-4.7309,-4.7309,-4.7309,-4.7204,-4.698,-4.6606,-4.6082,-4.5454,-4.4915,-4.4586,-4.4347,-4.4257,-4.4197,-4.4167,-4.4272,-4.3928,-4.3599,-4.3642,-4.391,-4.4327,-4.4619,-4.4619,-4.4987,-4.5857,-4.5336,-4.5646,-4.5662,-4.5352,-4.4541,-4.4389,-4.4632,-4.3927,-4.3927,-4.4343,-4.4127,-4.3895,-4.3817,-4.3503,-4.3374,-4.3494,-4.3459,-4.3388,-4.3368,-4.3094,-4.2983,-4.2775,-4.2509,-4.2175,-4.2092,-4.202,-4.202,-4.2102,-4.2281,-4.1924,-4.1682,-4.1927,-4.1907,-4.154,-4.1637,-4.1848,-4.1893,-4.1908,-4.1878,-4.1833,-4.1833,-4.1848,-4.1953,-4.2237,-4.2491,-4.2596,-4.291,-4.3096,-4.317,-4.309,-4.1879,-4.0603,-4.053,-4.1,-4.1128,-4.2158,-4.2658,-4.2638,-4.251,-4.2566,-4.2721,-4.3412,-4.4065,-4.4512,-4.5274,-4.612,-4.6778,-4.713,-4.713,-4.7294,-4.7219,-4.7234,-4.7309,-4.7309,-4.7309,-4.7309,-4.7309,-4.7309,-4.7309,-4.7309,-4.7309,-4.7309,-4.7309,-4.7309,-4.7309,-4.7309,-4.7309,-4.7309,-4.7309,-4.7309,-4.7309,-4.7309,-4.7309,-4.7309,-4.7294,-4.7055,-4.6815,-4.6411,-4.5992,-4.5544,-4.5394,-4.5155,-4.4975,-4.49,-4.484,-4.4631,-4.4302,-4.3943,-4.3554,-4.3618,-4.4176,-4.4142,-4.3763,-4.4437,-4.6032,-4.5719,-4.5807,-4.5589,-4.5294,-4.5055,-4.4814,-4.4663,-4.4419,-4.4266,-4.4143,-4.4205,-4.3879,-4.3581,-4.3611,-4.3803,-4.4047,-4.4167,-4.4229,-4.4317,-4.4012,-4.3693,-4.3372,-4.2878,-4.2494,-4.2175,-4.2092,-4.2092,-4.216,-4.2295,-4.2356,-4.2283,-4.2628,-4.2639,-4.2674,-4.2812,-4.2821,-4.2746,-4.2776,-4.2806,-4.2806,-4.2806,-4.2806,-4.2806,-4.2985,-4.306,-4.312,-4.316,-4.2996,-4.2319,-4.2252,-4.199,-4.1843,-4.2704,-4.3065,-4.2873,-4.3642,-4.398,-4.317,-4.3833,-4.3878,-4.3753,-4.4028,-4.523,-4.5962,-4.6241,-4.6564,-4.7016,-4.7309,-4.7309,-4.7309,-4.7309,-4.7309,-4.7309,-4.7309,-4.7309,-4.7309,-4.7309,-4.7309,-4.7309,-4.7309,-4.7309,-4.7309,-4.7309,-4.7309,-4.7309,-4.7309,-4.7309,-4.7309,-4.7309,-4.7309,-4.7309,-4.7309,-4.7309,-4.7309,-4.7309,-4.7204,-4.707,-4.677,-4.6501,-4.6187,-4.6172,-4.6022,-4.5858,-4.5559,-4.5334,-4.5065,-4.4691,-4.4092,-4.3554,-4.3808,-4.4152,-4.4242,-4.4302,-4.4362,-4.592,-4.5807,-4.5807,-4.5589,-4.522,-4.522,-4.498,-4.4648,-4.4572,-4.4511,-4.4358,-4.4205,-4.3972,-4.375,-4.3908,-4.4308,-4.4691,-4.4825,-4.4937,-4.5019,-4.4742,-4.451,-4.4172,-4.3514,-4.3196,-4.2884,-4.2611,-4.2272,-4.2228,-4.2459,-4.2622,-4.2769,-4.301,-4.317,-4.3155,-4.319,-4.3344,-4.3344,-4.3344,-4.3344,-4.3344,-4.3344,-4.3344,-4.3344,-4.3344,-4.3344,-4.3344,-4.3344,-4.317,-4.2835,-4.2659,-4.2659,-4.3116,-4.376,-4.4235,-4.3602,-4.4462,-4.4966,-4.3861,-4.4298,-4.4131,-4.4647,-4.4672,-4.5176,-4.6167,-4.6521,-4.6726,-4.7121,-4.7309,-4.7309,-4.7309,-4.7309,-4.7309,-4.7309,-4.7309,-4.7309,-4.7309,-4.7309,-4.7309,-4.7309,-4.7309,-4.7309,-4.7309,-4.7309,-4.7309,-4.7309,-4.7309,-4.7309,-4.7309,-4.7309,-4.7309,-4.7309,-4.7309,-4.7309,-4.7309,-4.7309,-4.7309,-4.7204,-4.71,-4.683,-4.6756,-4.6711,-4.677,-4.6741,-4.6411,-4.5978,-4.5394,-4.4975,-4.4272,-4.3688,-4.4003,-4.4332,-4.4661,-4.4855,-4.493,-4.6136,-4.6008,-4.6008,-4.5703,-4.522,-4.522,-4.498,-4.4648,-4.4572,-4.4511,-4.4419,-4.422,-4.4063,-4.418,-4.4404,-4.487,-4.5469,-4.5514,-4.5618,-4.5684,-4.5436,-4.5347,-4.5084,-4.4487,-4.3794,-4.3581,-4.3484,-4.2708,-4.2474,-4.2688,-4.2835,-4.2996,-4.317,-4.3344,-4.3344,-4.325,-4.3344,-4.3344,-4.3344,-4.3344,-4.3344,-4.3344,-4.3344,-4.3389,-4.3449,-4.3569,-4.3614,-4.3838,-4.3883,-4.3802,-4.3758,-4.3713,-4.3928,-4.4855,-4.4867,-4.4137,-4.5,-4.5309,-4.5026,-4.4847,-4.5049,-4.5439,-4.4995,-4.5312,-4.5973,-4.6931,-4.7222,-4.7309,-4.7309,-4.7309,-4.7309,-4.7309,-4.7309,-4.7309,-4.7309,-4.7309,-4.7309,-4.7309,-4.7309,-4.7309,-4.7309,-4.7309,-4.7309,-4.7309,-4.7309,-4.7309,-4.7309,-4.7309,-4.7309,-4.7309,-4.7309,-4.7309,-4.7309,-4.7309,-4.7309,-4.7309,-4.7309,-4.7279,-4.7234,-4.7115,-4.7145,-4.7189,-4.7219,-4.716,-4.713,-4.6666,-4.5978,-4.5274,-4.4631,-4.4272,-4.4347,-4.4541,-4.4915,-4.5349,-4.5603,-4.7288,-4.6689,-4.6689,-4.6088,-4.5278,-4.5204,-4.498,-4.4648,-4.4648,-4.4435,-4.422,-4.4281,-4.4337,-4.4544,-4.4982,-4.5559,-4.6037,-4.6232,-4.6441,-4.6696,-4.6326,-4.6017,-4.5898,-4.54,-4.4561,-4.4264,-4.4427,-4.3841,-4.3197,-4.2998,-4.2996,-4.309,-4.317,-4.3344,-4.3344,-4.3464,-4.3344,-4.3344,-4.3344,-4.3359,-4.3389,-4.3404,-4.3419,-4.3599,-4.3898,-4.4197,-4.4272,-4.4571,-4.484,-4.4915,-4.4975,-4.502,-4.5185,-4.5768,-4.6112,-4.6192,-4.6465,-4.6621,-4.5976,-4.5947,-4.605,-4.6033,-4.5584,-4.6166,-4.6741,-4.7121,-4.7309,-4.7309,-4.7309,-4.7309,-4.7309,-4.7309,-4.7309,-4.7309,-4.7309,-4.7309,-4.7309,-4.7309,-4.7309,-4.7309,-4.7309,-4.7309,-4.7309,-4.7309,-4.7309,-4.7309,-4.7309,-4.7309,-4.7309,-4.7309,-4.7309,-4.7309,-4.7309,-4.7309,-4.7309,-4.7309,-4.7309,-4.7309,-4.7309,-4.7309,-4.7309,-4.7309,-4.7309,-4.7279,-4.7309,-4.7174,-4.6501,-4.5783,-4.508,-4.484,-4.4885,-4.502,-4.5214,-4.5678,-4.6232,-4.7638,-4.6657,-4.7053,-4.6673,-4.5744,-4.5672,-4.5526,-4.5142,-4.4783,-4.4496,-4.445,-4.4709,-4.508,-4.5522,-4.5867,-4.6247,-4.677,-4.6845,-4.6995,-4.7234,-4.701,-4.6774,-4.6625,-4.6047,-4.5397,-4.5218,-4.4986,-4.4816,-4.4095,-4.3679,-4.3507,-4.323,-4.328,-4.3344,-4.3524,-4.3748,-4.3629,-4.3464,-4.3374,-4.3539,-4.3778,-4.3898,-4.4047,-4.4407,-4.4721,-4.484,-4.496,-4.508,-4.5289,-4.5289,-4.5289,-4.5289,-4.5439,-4.5888,-4.6307,-4.6367,-4.692,-4.7046,-4.6726,-4.6638,-4.6535,-4.6535,-4.6255,-4.6255,-4.7019,-4.7309,-4.7309,-4.7309,-4.7309,-4.7309,-4.7309,-4.7309,-4.7309,-4.7309,-4.7309,-4.7309,-4.7309,-4.7309,-4.7309,-4.7309,-4.7309,-4.7309,-4.7309,-4.7309,-4.7309,-4.7309,-4.7309,-4.7309,-4.7309,-4.7309,-4.7309,-4.7309,-4.7309,-4.7309,-4.7309,-4.7309,-4.7309,-4.7309,-4.7309,-4.7309,-4.7309,-4.7309,-4.7309,-4.7309,-4.7309,-4.71,-4.68,-4.6307,-4.5618,-4.5484,-4.5439,-4.5574,-4.5768,-4.6367,-4.6815,-4.8158,-4.7069,-4.7389,-4.6916,-4.5985,-4.5985,-4.5857,-4.5624,-4.4933,-4.4648,-4.4879,-4.5278,-4.587,-4.6463,-4.6541,-4.6901,-4.7264,-4.7309,-4.7309,-4.7309,-4.7309,-4.7279,-4.7013,-4.6554,-4.6286,-4.6352,-4.5943,-4.5466,-4.5147,-4.481,-4.4393,-4.3853,-4.4032,-4.3943,-4.3988,-4.4272,-4.4362,-4.4032,-4.3973,-4.4182,-4.4466,-4.4556,-4.4825,-4.5155,-4.5439,-4.5559,-4.5574,-4.5813,-4.5858,-4.5888,-4.5918,-4.5992,-4.6082,-4.6411,-4.6651,-4.6741,-4.713,-4.7294,-4.7019,-4.6829,-4.6741,-4.6829,-4.6829,-4.6638,-4.7121,-4.7309,-4.7309,-4.7309,-4.7309,-4.7309,-4.7309,-4.7309,-4.7309,-4.7309,-4.7309,-4.7309,-4.7309,-4.7309,-4.7309,-4.7309,-4.7309,-4.7309,-4.7309,-4.7309,-4.7309,-4.7309,-4.7309,-4.7309,-4.7309,-4.7309,-4.7309,-4.7309,-4.7309,-4.7309,-4.7309,-4.7309,-4.7309,-4.7309,-4.7309,-4.7309,-4.7309,-4.7309,-4.7309,-4.7309,-4.7309,-4.7234,-4.7055,-4.6621,-4.6202,-4.6007,-4.5903,-4.6097,-4.6411,-4.6965,-4.7234,-4.9273,-4.8192,-4.7589,-4.6831,-4.6056,-4.5985,-4.5913,-4.5769,-4.5008,-4.4996,-4.5425,-4.5723,-4.6085,-4.6506,-4.7046,-4.7347,-4.7309,-4.7309,-4.7309,-4.7309,-4.7309,-4.7309,-4.7234,-4.7115,-4.6819,-4.6576,-4.652,-4.6162,-4.5753,-4.5908,-4.555,-4.5244,-4.493,-4.5065,-4.5035,-4.4945,-4.5125,-4.4945,-4.493,-4.499,-4.517,-4.5244,-4.5334,-4.5499,-4.5918,-4.6262,-4.6277,-4.6681,-4.6905,-4.6905,-4.686,-4.6875,-4.6845,-4.698,-4.7055,-4.713,-4.7189,-4.7309,-4.7207,-4.7121,-4.7207,-4.7207,-4.7207,-4.7019,-4.7309,-4.7309,-4.7309,-4.7309,-4.7309,-4.7309,-4.7309,-4.7309,-4.7309,-4.7309,-4.7309,-4.7309,-4.7309,-4.7309,-4.7309,-4.7309,-4.7384,-4.7519,-4.7549,-4.7593,-4.7384,-4.7354,-4.7309,-4.7309,-4.7309,-4.7309,-4.7309,-4.7309,-4.7309,-4.7309,-4.7309,-4.7309,-4.7309,-4.7309,-4.7309,-4.7309,-4.7309,-4.7309,-4.7309,-4.7309,-4.7309,-4.7309,-4.7264,-4.6875,-4.6546,-4.6381,-4.6367,-4.6546,-4.6681,-4.7025,-4.7234,-4.9073,-4.9012,-4.808,-4.7523,-4.7255,-4.7204,-4.6864,-4.6324,-4.564,-4.5581,-4.6067,-4.6085,-4.6486,-4.7151,-4.7272,-4.7381,-4.7309,-4.7309,-4.7309,-4.7309,-4.7309,-4.7309,-4.7309,-4.7279,-4.716,-4.6995,-4.7174,-4.7189,-4.6711,-4.6756,-4.677,-4.6426,-4.5783,-4.5349,-4.5274,-4.5454,-4.5589,-4.5738,-4.5589,-4.5469,-4.5903,-4.5963,-4.6127,-4.6561,-4.6681,-4.692,-4.6965,-4.716,-4.7279,-4.7309,-4.7309,-4.7309,-4.7309,-4.7309,-4.7309,-4.7309,-4.7309,-4.7309,-4.7309,-4.7309,-4.7309,-4.7309,-4.7309,-4.7309,-4.7309,-4.7309,-4.7309,-4.7309,-4.7309,-4.7309,-4.7309,-4.7309,-4.7309,-4.7309,-4.7369,-4.7444,-4.7399,-4.7444,-4.7444,-4.7504,-4.7758,-4.7982,-4.7967,-4.7952,-4.7653,-4.7399,-4.7354,-4.7309,-4.7309,-4.7309,-4.7309,-4.7309,-4.7309,-4.7309,-4.7309,-4.7309,-4.7309,-4.7309,-4.7309,-4.7309,-4.7309,-4.7309,-4.7309,-4.7309,-4.7309,-4.7309,-4.7234,-4.7085,-4.692,-4.68,-4.683,-4.6965,-4.7085,-4.7145,-4.7219,-4.8995,-4.929,-4.8639,-4.8208,-4.7982,-4.7671,-4.7272,-4.6673,-4.5697,-4.5615,-4.6137,-4.6047,-4.6486,-4.7226,-4.7493,-4.7381,-4.7309,-4.7309,-4.7309,-4.7309,-4.7309,-4.7309,-4.7309,-4.7309,-4.7279,-4.7309,-4.7309,-4.7234,-4.7174,-4.7279,-4.7204,-4.6905,-4.6456,-4.6082,-4.5978,-4.5918,-4.6157,-4.6352,-4.6262,-4.6067,-4.6606,-4.6636,-4.6726,-4.716,-4.7234,-4.7234,-4.7219,-4.7294,-4.7294,-4.7309,-4.7309,-4.7309,-4.7309,-4.7309,-4.7309,-4.7309,-4.7309,-4.7309,-4.7309,-4.7309,-4.7309,-4.7309,-4.7309,-4.7309,-4.7309,-4.7309,-4.7309,-4.7309,-4.7309,-4.7309,-4.7339,-4.7489,-4.7668,-4.7773,-4.8132,-4.8207,-4.7863,-4.7773,-4.7728,-4.7743,-4.7997,-4.8147,-4.7833,-4.7743,-4.7623,-4.7384,-4.7339,-4.7309,-4.7309,-4.7309,-4.7309,-4.7309,-4.7309,-4.7309,-4.7309,-4.7309,-4.7309,-4.7309,-4.7309,-4.7309,-4.7309,-4.7309,-4.7309,-4.7309,-4.7309,-4.7309,-4.7264,-4.7174,-4.7204,-4.7249,-4.7249,-4.7189,-4.7204,-4.7234,-4.7249,-4.9453,-4.9229,-4.9168,-4.8685,-4.795,-4.7137,-4.6896,-4.6604,-4.5363,-4.4926,-4.5349,-4.5883,-4.6325,-4.6665,-4.7207,-4.7347,-4.7309,-4.7309,-4.7309,-4.7309,-4.7309,-4.7309,-4.7309,-4.7309,-4.7309,-4.7309,-4.7309,-4.7309,-4.7309,-4.7309,-4.7309,-4.7309,-4.704,-4.698,-4.7204,-4.7234,-4.7249,-4.7264,-4.713,-4.713,-4.713,-4.713,-4.7219,-4.7264,-4.7309,-4.7309,-4.7309,-4.7309,-4.7309,-4.7309,-4.7309,-4.7309,-4.7309,-4.7309,-4.7309,-4.7309,-4.7309,-4.7309,-4.7309,-4.7309,-4.7309,-4.7309,-4.7309,-4.7309,-4.7309,-4.7309,-4.7309,-4.7309,-4.7309,-4.7309,-4.7504,-4.7758,-4.7908,-4.8057,-4.8356,-4.8386,-4.7982,-4.7803,-4.7713,-4.7967,-4.8117,-4.8132,-4.7698,-4.7429,-4.7429,-4.7354,-4.7324,-4.7309,-4.7309,-4.7309,-4.7309,-4.7309,-4.7309,-4.7309,-4.7309,-4.7309,-4.7309,-4.7309,-4.7309,-4.7309,-4.7309,-4.7309,-4.7309,-4.7309,-4.7309,-4.7309,-4.7309,-4.7294,-4.7309,-4.7309,-4.7309,-4.7279,-4.7309,-4.7309,-4.7309,-4.929,-4.9168,-4.9107,-4.8923,-4.853,-4.7819,-4.7288,-4.6604,-4.541,-4.4895,-4.537,-4.566,-4.6153,-4.663,-4.6816,-4.7076,-4.7279,-4.7309,-4.7309,-4.7309,-4.7309,-4.7309,-4.7309,-4.7309,-4.7309,-4.7309,-4.7309,-4.7309,-4.7309,-4.7309,-4.7309,-4.7309,-4.7309,-4.7309,-4.7294,-4.7309,-4.7309,-4.7309,-4.7279,-4.7294,-4.7309,-4.7309,-4.7309,-4.7309,-4.7309,-4.7309,-4.7309,-4.7309,-4.7309,-4.7309,-4.7309,-4.7309,-4.7309,-4.7309,-4.7309,-4.7309,-4.7309,-4.7309,-4.7309,-4.7309,-4.7309,-4.7309,-4.7309,-4.7309,-4.7309,-4.7309,-4.7309,-4.7309,-4.7309,-4.7309,-4.7414,-4.7459,-4.7549,-4.7534,-4.7683,-4.7698,-4.7504,-4.7519,-4.7563,-4.8147,-4.8476,-4.8641,-4.8431,-4.7818,-4.7638,-4.7384,-4.7309,-4.7309,-4.7309,-4.7309,-4.7309,-4.7309,-4.7309,-4.7309,-4.7309,-4.7309,-4.7309,-4.7309,-4.7309,-4.7309,-4.7309,-4.7309,-4.7309,-4.7309,-4.7309,-4.7309,-4.7309,-4.7309,-4.7309,-4.7309,-4.7309,-4.7309,-4.7309,-4.7309,-4.7309,-4.9168,-4.9107,-4.9063,-4.9018,-4.8877,-4.8225,-4.7355,-4.6324,-4.5157,-4.4849,-4.5064,-4.5199,-4.5662,-4.6282,-4.6584,-4.6836,-4.7264,-4.7309,-4.7309,-4.7309,-4.7309,-4.7309,-4.7309,-4.7309,-4.7309,-4.7309,-4.7309,-4.7309,-4.7309,-4.7309,-4.7309,-4.7309,-4.7309,-4.7309,-4.7309,-4.7309,-4.7309,-4.7309,-4.7309,-4.7309,-4.7309,-4.7309,-4.7309,-4.7309,-4.7309,-4.7309,-4.7309,-4.7309,-4.7309,-4.7309,-4.7309,-4.7309,-4.7309,-4.7309,-4.7309,-4.7309,-4.7309,-4.7309,-4.7309,-4.7309,-4.7309,-4.7309,-4.7309,-4.7309,-4.7309,-4.7309,-4.7309,-4.7309,-4.7309,-4.7309,-4.7309,-4.7324,-4.7549,-4.7549,-4.7758,-4.7788,-4.7623,-4.7668,-4.7563,-4.8162,-4.8521,-4.879,-4.894,-4.8491,-4.7967,-4.7638,-4.7309,-4.7309,-4.7309,-4.7309,-4.7309,-4.7309,-4.7309,-4.7309,-4.7309,-4.7309,-4.7309,-4.7309,-4.7309,-4.7309,-4.7309,-4.7309,-4.7309,-4.7309,-4.7309,-4.7309,-4.7309,-4.7309,-4.7309,-4.7309,-4.7309,-4.7309,-4.7309,-4.7309,-4.7309,-4.9107,-4.9001,-4.9001,-4.9018,-4.8861,-4.8225,-4.7053,-4.5697,-4.5008,-4.4587,-4.4419,-4.5,-4.5437,-4.5686,-4.6267,-4.6816,-4.7216,-4.7234,-4.7309,-4.7309,-4.7309,-4.7309,-4.7309,-4.7309,-4.7309,-4.7309,-4.7309,-4.7309,-4.7309,-4.7309,-4.7309,-4.7309,-4.7309,-4.7309,-4.7309,-4.7309,-4.7309,-4.7309,-4.7309,-4.7309,-4.7309,-4.7309,-4.7309,-4.7309,-4.7309,-4.7309,-4.7309,-4.7309,-4.7309,-4.7309,-4.7309,-4.7309,-4.7309,-4.7309,-4.7309,-4.7309,-4.7309,-4.7309,-4.7309,-4.7309,-4.7309,-4.7309,-4.7309,-4.7309,-4.7309,-4.7309,-4.7309,-4.7309,-4.7309,-4.7309,-4.7309,-4.7653,-4.7982,-4.8192,-4.8476,-4.8356,-4.8087,-4.7923,-4.7713,-4.7908,-4.8162,-4.8386,-4.8491,-4.8222,-4.8072,-4.7608,-4.7309,-4.7309,-4.7309,-4.7309,-4.7309,-4.7309,-4.7309,-4.7309,-4.7309,-4.7309,-4.7309,-4.7309,-4.7309,-4.7309,-4.7309,-4.7309,-4.7309,-4.7309,-4.7309,-4.7309,-4.7309,-4.7309,-4.7309,-4.7309,-4.7309,-4.7309,-4.7309,-4.7309,-4.7309,-4.9063,-4.9018,-4.9018,-4.9018,-4.8877,-4.8225,-4.7069,-4.5769,-4.5421,-4.5067,-4.4526,-4.4711,-4.5093,-4.5437,-4.5864,-4.6381,-4.6701,-4.7111,-4.7249,-4.7309,-4.7279,-4.7294,-4.7309,-4.7309,-4.7309,-4.7309,-4.7309,-4.7309,-4.7309,-4.7309,-4.7309,-4.7309,-4.7309,-4.7309,-4.7309,-4.7309,-4.7309,-4.7309,-4.7309,-4.7309,-4.7309,-4.7309,-4.7309,-4.7309,-4.7309,-4.7309,-4.7309,-4.7309,-4.7309,-4.7309,-4.7309,-4.7309,-4.7309,-4.7309,-4.7309,-4.7309,-4.7309,-4.7309,-4.7309,-4.7309,-4.7309,-4.7309,-4.7309,-4.7309,-4.7309,-4.7309,-4.7309,-4.7309,-4.7309,-4.7309,-4.7309,-4.7563,-4.7773,-4.7923,-4.8117,-4.7997,-4.7773,-4.7713,-4.7534,-4.7623,-4.7878,-4.8132,-4.8207,-4.8282,-4.8087,-4.7593,-4.7309,-4.7309,-4.7309,-4.7309,-4.7309,-4.7309,-4.7309,-4.7309,-4.7309,-4.7309,-4.7309,-4.7309,-4.7309,-4.7309,-4.7309,-4.7309,-4.7309,-4.7309,-4.7309,-4.7309,-4.7309,-4.7309,-4.7309,-4.7309,-4.7309,-4.7309,-4.7309,-4.7309,-4.7309,-4.9018,-4.9018,-4.9018,-4.9018,-4.894,-4.8513,-4.7622,-4.6657,-4.6253,-4.5624,-4.4723,-4.4949,-4.5094,-4.5273,-4.5688,-4.5973,-4.6115,-4.6946,-4.7189,-4.6905,-4.7204,-4.7279,-4.7309,-4.7309,-4.7309,-4.7309,-4.7309,-4.7309,-4.7309,-4.7309,-4.7309,-4.7309,-4.7309,-4.7309,-4.7309,-4.7309,-4.7309,-4.7309,-4.7309,-4.7309,-4.7309,-4.7309,-4.7309,-4.7309,-4.7309,-4.7309,-4.7309,-4.7309,-4.7309,-4.7309,-4.7309,-4.7309,-4.7309,-4.7309,-4.7309,-4.7309,-4.7309,-4.7309,-4.7309,-4.7309,-4.7309,-4.7309,-4.7309,-4.7309,-4.7309,-4.7309,-4.7309,-4.7309,-4.7309,-4.7309,-4.7309,-4.7324,-4.7324,-4.7354,-4.7354,-4.7354,-4.7339,-4.7339,-4.7369,-4.7429,-4.7638,-4.7938,-4.8102,-4.8207,-4.8087,-4.7578,-4.7309,-4.7309,-4.7309,-4.7309,-4.7309,-4.7309,-4.7309,-4.7309,-4.7309,-4.7309,-4.7309,-4.7309,-4.7309,-4.7309,-4.7309,-4.7309,-4.7309,-4.7309,-4.7309,-4.7309,-4.7309,-4.7309,-4.7309,-4.7309,-4.7309,-4.7309,-4.7309,-4.7309,-4.7309,-4.9018,-4.9018,-4.9018,-4.9018,-4.9001,-4.8861,-4.837,-4.7819,-4.7001,-4.6056,-4.4993,-4.5274,-4.5244,-4.5044,-4.5349,-4.5475,-4.577,-4.6426,-4.686,-4.6396,-4.7055,-4.7294,-4.7309,-4.7309,-4.7309,-4.7309,-4.7309,-4.7309,-4.7309,-4.7309,-4.7309,-4.7309,-4.7309,-4.7309,-4.7309,-4.7309,-4.7309,-4.7309,-4.7309,-4.7309,-4.7309,-4.7309,-4.7309,-4.7309,-4.7309,-4.7309,-4.7309,-4.7309,-4.7309,-4.7309,-4.7309,-4.7309,-4.7309,-4.7309,-4.7309,-4.7309,-4.7309,-4.7309,-4.7309,-4.7309,-4.7309,-4.7309,-4.7309,-4.7309,-4.7309,-4.7309,-4.7309,-4.7309,-4.7309,-4.7309,-4.7309,-4.7309,-4.7309,-4.7309,-4.7309,-4.7309,-4.7309,-4.7309,-4.7324,-4.7399,-4.7534,-4.7773,-4.7698,-4.7773,-4.7833,-4.7429,-4.7309,-4.7309,-4.7309,-4.7309,-4.7309,-4.7309,-4.7309,-4.7309,-4.7309,-4.7309,-4.7309,-4.7309,-4.7309,-4.7309,-4.7309,-4.7309,-4.7309,-4.7309,-4.7309,-4.7309,-4.7309,-4.7309,-4.7309,-4.7309,-4.7309,-4.7309,-4.7309,-4.7309,-4.7309,-4.9018,-4.9018,-4.9018,-4.9018,-4.894,-4.8386,-4.7754,-4.7085,-4.688,-4.6253,-4.5478,-4.4949,-4.4649,-4.4586,-4.491,-4.4926,-4.5101,-4.5963,-4.6367,-4.6546,-4.695,-4.7294,-4.7309,-4.7309,-4.7309,-4.7309,-4.7309,-4.7309,-4.7309,-4.7309,-4.7309,-4.7309,-4.7309,-4.7309,-4.7309,-4.7309,-4.7309,-4.7309,-4.7309,-4.7309,-4.7309,-4.7309,-4.7309,-4.7309,-4.7309,-4.7309,-4.7309,-4.7309,-4.7309,-4.7309,-4.7309,-4.7309,-4.7309,-4.7309,-4.7309,-4.7309,-4.7309,-4.7309,-4.7309,-4.7309,-4.7309,-4.7309,-4.7309,-4.7309,-4.7309,-4.7309,-4.7309,-4.7309,-4.7309,-4.7309,-4.7309,-4.7309,-4.7309,-4.7309,-4.7309,-4.7309,-4.7309,-4.7309,-4.7309,-4.7384,-4.7489,-4.7459,-4.7384,-4.7369,-4.7399,-4.7384,-4.7324,-4.7309,-4.7309,-4.7309,-4.7309,-4.7309,-4.7309,-4.7309,-4.7309,-4.7309,-4.7309,-4.7309,-4.7309,-4.7309,-4.7309,-4.7309,-4.7309,-4.7309,-4.7309,-4.7309,-4.7309,-4.7309,-4.7309,-4.7309,-4.7309,-4.7309,-4.7309,-4.7309,-4.7309,-4.9018,-4.9018,-4.9001,-4.8798,-4.845,-4.8096,-4.7489,-4.6811,-4.6464,-4.604,-4.5624,-4.5126,-4.4632,-4.4388,-4.4576,-4.4383,-4.4434,-4.5648,-4.5918,-4.6172,-4.6815,-4.7204,-4.7309,-4.7309,-4.7309,-4.7309,-4.7309,-4.7309,-4.7309,-4.7309,-4.7309,-4.7309,-4.7309,-4.7309,-4.7309,-4.7309,-4.7309,-4.7309,-4.7309,-4.7309,-4.7309,-4.7309,-4.7309,-4.7309,-4.7309,-4.7309,-4.7309,-4.7309,-4.7309,-4.7309,-4.7309,-4.7309,-4.7309,-4.7309,-4.7309,-4.7309,-4.7309,-4.7309,-4.7309,-4.7309,-4.7309,-4.7309,-4.7309,-4.7309,-4.7309,-4.7309,-4.7309,-4.7309,-4.7309,-4.7309,-4.7309,-4.7309,-4.7309,-4.7309,-4.7309,-4.7309,-4.7309,-4.7309,-4.7309,-4.7339,-4.7399,-4.7384,-4.7324,-4.7324,-4.7354,-4.7354,-4.7309,-4.7309,-4.7309,-4.7309,-4.7309,-4.7309,-4.7309,-4.7309,-4.7309,-4.7309,-4.7309,-4.7309,-4.7309,-4.7309,-4.7309,-4.7309,-4.7309,-4.7309,-4.7309,-4.7309,-4.7309,-4.7309,-4.7309,-4.7309,-4.7309,-4.7309,-4.7309,-4.7309,-4.7309,-4.9018,-4.9001,-4.8877,-4.8513,-4.7885,-4.7671,-4.7204,-4.6534,-4.5841,-4.5421,-4.52,-4.5258,-4.4843,-4.4511,-4.4425,-4.3897,-4.4128,-4.5319,-4.5574,-4.5873,-4.6756,-4.7145,-4.7309,-4.7309,-4.7309,-4.7309,-4.7309,-4.7309,-4.7309,-4.7309,-4.7309,-4.7309,-4.7309,-4.7309,-4.7309,-4.7309,-4.7309,-4.7309,-4.7309,-4.7309,-4.7309,-4.7309,-4.7309,-4.7309,-4.7309,-4.7309,-4.7309,-4.7309,-4.7309,-4.7309,-4.7309,-4.7309,-4.7309,-4.7309,-4.7309,-4.7309,-4.7309,-4.7309,-4.7309,-4.7309,-4.7309,-4.7309,-4.7309,-4.7309,-4.7309,-4.7309,-4.7309,-4.7309,-4.7309,-4.7309,-4.7309,-4.7309,-4.7309,-4.7309,-4.7309,-4.7309,-4.7309,-4.7309,-4.7309,-4.7309,-4.7309,-4.7309,-4.7309,-4.7309,-4.7309,-4.7309,-4.7309,-4.7309,-4.7309,-4.7309,-4.7309,-4.7309,-4.7309,-4.7309,-4.7309,-4.7309,-4.7309,-4.7309,-4.7309,-4.7309,-4.7309,-4.7309,-4.7309,-4.7309,-4.7309,-4.7309,-4.7309,-4.7309,-4.7309,-4.7309,-4.7309,-4.7309,-4.7309,-4.7309,-4.7309,-4.9018,-4.894,-4.837,-4.8015,-4.7671,-4.6657,-4.5969,-4.5551,-4.4918,-4.4496,-4.4419,-4.4266,-4.4065,-4.3769,-4.3578,-4.3404,-4.3658,-4.4915,-4.5349,-4.5544,-4.6606,-4.7085,-4.7309,-4.7309,-4.7309,-4.7309,-4.7309,-4.7309,-4.7309,-4.7309,-4.7309,-4.7309,-4.7309,-4.7309,-4.7309,-4.7309,-4.7309,-4.7309,-4.7309,-4.7309,-4.7309,-4.7309,-4.7309,-4.7309,-4.7309,-4.7309,-4.7309,-4.7309,-4.7309,-4.7309,-4.7309,-4.7309,-4.7309,-4.7309,-4.7309,-4.7309,-4.7309,-4.7309,-4.7309,-4.7309,-4.7309,-4.7309,-4.7309,-4.7309,-4.7309,-4.7309,-4.7309,-4.7309,-4.7309,-4.7309,-4.7309,-4.7309,-4.7309,-4.7309,-4.7309,-4.7309,-4.7309,-4.7309,-4.7309,-4.7309,-4.7309,-4.7309,-4.7309,-4.7309,-4.7309,-4.7309,-4.7309,-4.7309,-4.7309,-4.7309,-4.7309,-4.7309,-4.7309,-4.7309,-4.7309,-4.7309,-4.7309,-4.7309,-4.7309,-4.7309,-4.7309,-4.7309,-4.7309,-4.7309,-4.7309,-4.7309,-4.7309,-4.7309,-4.7309,-4.7309,-4.7309,-4.7309,-4.7309,-4.7309,-4.7309]},{"header":{"parameterUnit":"m.s-1","parameterCategory":1,"la1":31.0,"la2":29.5877,"lo1":-88.7671,"lo2":-86.6584,"dy":0.0162,"dx":0.0185,"nx":115,"ny":88,"refTime":"2023-10-10T06:00:00:Z","depth":0,"parameterNumber":3,"parameterNumberName":"V-component_of_WINDS"},"data":[0.0,0.0,0.0,0.0,0.0,0.0,0.0,0.0,0.0,0.0,0.0,0.0,0.0,0.0,0.0,0.0,0.0,0.0,0.0,0.0,0.0,0.0,0.0,0.0,0.0,0.0,0.0,0.0,0.0,0.0,0.0,0.0,0.0,0.0,0.0,0.0,0.0,0.0,0.0,0.0,0.0,0.0,0.0,0.0,0.0,0.0,0.0,0.0,0.0,0.0,0.0,0.0,0.0,0.0,0.0,0.0,0.0,0.0,0.0,0.0,0.0,0.0,0.0,0.0,0.0,0.0,0.0,0.0,0.0,0.0,0.0,0.0,0.0,0.0,0.0,0.0,0.0,0.0,0.0,0.0,0.0,0.0,0.0,0.0,0.0,0.0,0.0,0.0,0.0,0.0,0.0,0.0,0.0,0.0,0.0,0.0,0.0,0.0,0.0,0.0,0.0,0.0,0.0,0.0,0.0,0.0,0.0,0.0,0.0,0.0,0.0,0.0,0.0,0.0,0.0,0.0,0.0,0.0,0.0,0.0,0.0,0.0,0.0,0.0,0.0,0.0,0.0,0.0,0.0,0.0,0.0,0.0,0.0,0.0,0.0,0.0,0.0,0.0,0.0,0.0,0.0,0.0,0.0,0.0,0.0,0.0,0.0,0.0,0.0,0.0,0.0,0.0,0.0,0.0,0.0,0.0,0.0,0.0,0.0,0.0,0.0,0.0,0.0,0.0,0.0,0.0,0.0,0.0,0.0,0.0,0.0,0.0,0.0,0.0,0.0,0.0,0.0,0.0,0.0,0.0,0.0,0.0,0.0,0.0,0.0,0.0,0.0,0.0,0.0,0.0,0.0,0.0,0.0,0.0,0.0,0.0,0.0,0.0,0.0,0.0,0.0,0.0,0.0,0.0,0.0,0.0,0.0,0.0,0.0,0.0,0.0,0.0,0.0,0.0,0.0,0.0,0.0,0.0,0.0,0.0,0.0,0.0,0.0,0.0,0.0,0.0,0.0,0.0,0.0,0.0,0.0,0.0,0.0,0.0,0.0,0.0,0.0,0.0,0.0,0.0,0.0,0.0,0.0,0.0,0.0,0.0,0.0,0.0,0.0,0.0,0.0,0.0,0.0,0.0,0.0,0.0,0.0,0.0,0.0,0.0,0.0,0.0,0.0,0.0,0.0,0.0,0.0,0.0,0.0,0.0,0.0,0.0,0.0,0.0,0.0,0.0,0.0,0.0,0.0,0.0,0.0,0.0,0.0,0.0,0.0,0.0,0.0,0.0,0.0,0.0,0.0,0.0,0.0,0.0,0.0,0.0,0.0,0.0,0.0,0.0,0.0,0.0,0.0,0.0,0.0,0.0,0.0,0.0,0.0,0.0,0.0,0.0,0.0,0.0,0.0,0.0,0.0,0.0,0.0,0.0,0.0,0.0,0.0,0.0,0.0,0.0,0.0,0.0,0.0,0.0,0.0,0.0,0.0,0.0,0.0,0.0,0.0,0.0,0.0,0.0,0.0,0.0,0.0,0.0,0.0,0.0,0.0,0.0,0.0,0.0,0.0,0.0,0.0,0.0,0.0,0.0,0.0,0.0,0.0,0.0,0.0,0.0,0.0,0.0,0.0,0.0,0.0,0.0,0.0,0.0,0.0,0.0,0.0,0.0,0.0,0.0,0.0,0.0,0.0,0.0,0.0,0.0,0.0,0.0,0.0,0.0,0.0,0.0,0.0,0.0,0.0,0.0,0.0,0.0,0.0,0.0,0.0,0.0,0.0,0.0,0.0,0.0,0.0,0.0,0.0,0.0,0.0,0.0,0.0,0.0,0.0,0.0,0.0,0.0,0.0,0.0,0.0,0.0,0.0,0.0,0.0,0.0,0.0,0.0,0.0,0.0,0.0,0.0,0.0,0.0,0.0,0.0,0.0,0.0,0.0,0.0,0.0,0.0,0.0,0.0,0.0,0.0,0.0,0.0,0.0,0.0,0.0,0.0,0.0,0.0,0.0,0.0,0.0,0.0,0.0,0.0,0.0,0.0,0.0,0.0,0.0,0.0,0.0,0.0,0.0,0.0,0.0,0.0,0.0,0.0,0.0,0.0,0.0,0.0,0.0,0.0,0.0,0.0,0.0,0.0,0.0,0.0,0.0,0.0,0.0,0.0,0.0,0.0,0.0,0.0,0.0,0.0,0.0,0.0,0.0,0.0,0.0,0.0,0.0,0.0,0.0,0.0,0.0,0.0,0.0,0.0,0.0,0.0,0.0,0.0,0.0,0.0,0.0,0.0,0.0,0.0,0.0,0.0,0.0,0.0,0.0,0.0,0.0,0.0,0.0,0.0,0.0,0.0,0.0,0.0,0.0,0.0,0.0,0.0,0.0,0.0,0.0,0.0,0.0,0.0,0.0,0.0,0.0,0.0,0.0,0.0,0.0,0.0,0.0,0.0,0.0,0.0,0.0,0.0,0.0,0.0,0.0,0.0,0.0,0.0,0.0,0.0,0.0,0.0,0.0,0.0,0.0,0.0,0.0,0.0,0.0,0.0,0.0,0.0,0.0,0.0,0.0,0.0,0.0,0.0,0.0,0.0,0.0,0.0,0.0,0.0,0.0,0.0,0.0,0.0,0.0,0.0,0.0,0.0,0.0,0.0,0.0,0.0,0.0,0.0,0.0,0.0,0.0,0.0,0.0,0.0,0.0,0.0,0.0,0.0,0.0,0.0,0.0,0.0,0.0,0.0,0.0,0.0,0.0,0.0,0.0,0.0,0.0,0.0,0.0,0.0,0.0,0.0,0.0,0.0,0.0,0.0,0.0,0.0,0.0,0.0,0.0,0.0,0.0,0.0,0.0,0.0,0.0,0.0,0.0,0.0,0.0,0.0,0.0,0.0,0.0,0.0,0.0,0.0,0.0,0.0,0.0,0.0,0.0,0.0,0.0,0.0,0.0,0.0,0.0,0.0,0.0,0.0,0.0,0.0,0.0,0.0,0.0,0.0,0.0,0.0,0.0,0.0,0.0,0.0,0.0,0.0,0.0,0.0,0.0,0.0,0.0,0.0,0.0,0.0,0.0,0.0,0.0,0.0,0.0,0.0,0.0,0.0,0.0,0.0,0.0,0.0,0.0,0.0,0.0,0.0,0.0,0.0,0.0,0.0,0.0,0.0,0.0,0.0,0.0,0.0,0.0,0.0,0.0,0.0,0.0,0.0,0.0,0.0,0.0,0.0,0.0,0.0,0.0,0.0,0.0,0.0,0.0,0.0,0.0,0.0,0.0,0.0,0.0,0.0,0.0,0.0,0.0,0.0,0.0,0.0,0.0,0.0,0.0,0.0,0.0,0.0,0.0,0.0,0.0,0.0,0.0,0.0,0.0,0.0,0.0,0.0,0.0,0.0,0.0,0.0,0.0,0.0,0.0,0.0,0.0,0.0,0.0,0.0,0.0,0.0,0.0,0.0,0.0,0.0,0.0,0.0,0.0,0.0,0.0,0.0,0.0,0.0,0.0,0.0,0.0,0.0,0.0,0.0,0.0,0.0,0.0,0.0,0.0,0.0,0.0,0.0,0.0,0.0,0.0,0.0,0.0,0.0,0.0,0.0,0.0,0.0,0.0,0.0,0.0,0.0,0.0,0.0,0.0,0.0,0.0,0.0,0.0,0.0,0.0,0.0,0.0,0.0,0.0,0.0,0.0,0.0,0.0,0.0,0.0,0.0,0.0,0.0,0.0,0.0,0.0,0.0,0.0,0.0,0.0,0.0,0.0,0.0,0.0,0.0,0.0,0.0,0.0,0.0,0.0,0.0,0.0,0.0,0.0,0.0,0.0,0.0,0.0,0.0,0.0,0.0,0.0,0.0,0.0,0.0,0.0,0.0,0.0,0.0,0.0,0.0,0.0,0.0,0.0,0.0,0.0,0.0,0.0,0.0,0.0,0.0,0.0,0.0,0.0,0.0,0.0,0.0,0.0,0.0,0.0,0.0,0.0,0.0,0.0,0.0,0.0,0.0,0.0,0.0,0.0,0.0,0.0,0.0,0.0,0.0,0.0,0.0,0.0,0.0,0.0,0.0,0.0,0.0,0.0,0.0,0.0,0.0,0.0,0.0,0.0,0.0,0.0,0.0,0.0,0.0,0.0,0.0,0.0,0.0,0.0,0.0,0.0,0.0,0.0,0.0,0.0,0.0,0.0,0.0,0.0,0.0,0.0,0.0,0.0,0.0,0.0,0.0,0.0,0.0,0.0,0.0,0.0,0.0,0.0,0.0,0.0,0.0,0.0,0.0,0.0,0.0,2.5126,0.0,0.0,0.0,0.0,0.0,0.0,0.0,0.0,0.0,0.0,0.0,0.0,0.0,0.0,0.0,0.0,0.0,0.0,0.0,0.0,0.0,0.0,0.0,0.0,0.0,0.0,0.0,0.0,0.0,0.0,0.0,0.0,0.0,0.0,0.0,0.0,0.0,0.0,0.0,0.0,0.0,0.0,0.0,0.0,0.0,0.0,0.0,0.0,0.0,0.0,0.0,0.0,0.0,0.0,0.0,0.0,0.0,0.0,0.0,0.0,0.0,0.0,0.0,0.0,0.0,0.0,0.0,0.0,0.0,0.0,0.0,0.0,0.0,0.0,0.0,0.0,0.0,0.0,0.0,0.0,0.0,0.0,0.0,0.0,0.0,0.0,0.0,0.0,0.0,0.0,0.0,0.0,0.0,0.0,0.0,0.0,0.0,0.0,0.0,0.0,0.0,0.0,0.0,0.0,0.0,0.0,0.0,0.0,0.0,0.0,2.4772,2.4802,2.494,2.4828,2.4457,0.0,0.0,0.0,0.0,0.0,0.0,0.0,0.0,0.0,0.0,0.0,0.0,0.0,0.0,0.0,0.0,0.0,0.0,0.0,0.0,0.0,0.0,0.0,0.0,0.0,0.0,0.0,0.0,0.0,0.0,0.0,0.0,0.0,0.0,0.0,0.0,0.0,0.0,0.0,0.0,0.0,0.0,0.0,0.0,0.0,0.0,0.0,0.0,0.0,0.0,0.0,0.0,0.0,0.0,0.0,0.0,0.0,0.0,0.0,0.0,0.0,0.0,0.0,0.0,0.0,0.0,0.0,0.0,0.0,0.0,0.0,0.0,0.0,0.0,0.0,0.0,0.0,0.0,0.0,0.0,0.0,0.0,0.0,0.0,0.0,0.0,0.0,0.0,0.0,0.0,0.0,0.0,0.0,0.0,0.0,0.0,0.0,0.0,0.0,0.0,0.0,0.0,0.0,0.0,0.0,0.0,0.0,0.0,0.0,0.0,0.0,0.0,2.4377,2.4217,2.3679,0.0,0.0,0.0,0.0,0.0,0.0,0.0,0.0,0.0,0.0,0.0,0.0,0.0,0.0,0.0,0.0,0.0,0.0,0.0,0.0,0.0,0.0,0.0,0.0,0.0,0.0,0.0,0.0,0.0,0.0,0.0,0.0,0.0,0.0,0.0,0.0,0.0,0.0,0.0,0.0,0.0,0.0,0.0,0.0,0.0,0.0,0.0,0.0,0.0,0.0,0.0,0.0,0.0,0.0,0.0,0.0,0.0,0.0,0.0,0.0,0.0,0.0,0.0,0.0,0.0,0.0,0.0,0.0,0.0,0.0,0.0,0.0,0.0,0.0,0.0,0.0,0.0,0.0,0.0,0.0,0.0,0.0,0.0,0.0,0.0,0.0,0.0,0.0,0.0,0.0,0.0,0.0,0.0,0.0,0.0,0.0,0.0,0.0,0.0,0.0,0.0,0.0,0.0,0.0,0.0,0.0,0.0,0.0,0.0,0.0,2.33,2.2626,2.2709,0.0,2.292,0.0,0.0,0.0,0.0,0.0,0.0,0.0,0.0,0.0,0.0,0.0,0.0,0.0,0.0,0.0,0.0,0.0,0.0,0.0,0.0,0.0,0.0,0.0,0.0,0.0,0.0,0.0,0.0,0.0,0.0,0.0,0.0,0.0,0.0,0.0,0.0,0.0,0.0,0.0,0.0,0.0,0.0,0.0,0.0,0.0,0.0,0.0,0.0,0.0,0.0,0.0,0.0,0.0,0.0,0.0,0.0,0.0,0.0,0.0,0.0,0.0,0.0,0.0,0.0,0.0,0.0,0.0,0.0,0.0,0.0,0.0,0.0,0.0,0.0,0.0,0.0,0.0,0.0,0.0,0.0,0.0,0.0,0.0,0.0,0.0,0.0,0.0,0.0,0.0,0.0,0.0,0.0,0.0,0.0,0.0,0.0,0.0,0.0,0.0,0.0,0.0,0.0,0.0,0.0,0.0,0.0,0.0,0.0,0.0,0.0,2.3821,2.2994,2.2672,2.2393,0.0,0.0,0.0,0.0,0.0,0.0,0.0,0.0,0.0,0.0,0.0,0.0,0.0,0.0,0.0,0.0,0.0,0.0,0.0,0.0,0.0,0.0,0.0,0.0,0.0,0.0,0.0,0.0,0.0,0.0,0.0,0.0,0.0,0.0,0.0,0.0,0.0,0.0,0.0,0.0,0.0,0.0,0.0,0.0,0.0,0.0,0.0,0.0,0.0,0.0,0.0,0.0,0.0,0.0,0.0,0.0,0.0,0.0,0.0,0.0,0.0,0.0,0.0,0.0,0.0,0.0,0.0,0.0,0.0,0.0,0.0,0.0,0.0,0.0,0.0,0.0,0.0,0.0,0.0,0.0,0.0,0.0,0.0,0.0,0.0,0.0,0.0,0.0,0.0,0.0,0.0,0.0,0.0,0.0,0.0,0.0,0.0,0.0,0.0,0.0,0.0,0.0,0.0,0.0,0.0,0.0,0.0,0.0,0.0,0.0,2.3764,2.3476,2.2473,2.2255,2.2,2.1622,0.0,0.0,0.0,0.0,0.0,0.0,0.0,0.0,0.0,0.0,0.0,0.0,0.0,0.0,0.0,0.0,0.0,0.0,0.0,0.0,0.0,0.0,0.0,0.0,0.0,0.0,0.0,0.0,0.0,0.0,0.0,0.0,0.0,0.0,0.0,0.0,0.0,0.0,0.0,0.0,0.0,0.0,0.0,0.0,0.0,0.0,0.0,0.0,0.0,0.0,0.0,0.0,0.0,0.0,0.0,0.0,0.0,0.0,0.0,0.0,0.0,0.0,0.0,0.0,0.0,0.0,0.0,0.0,0.0,0.0,0.0,0.0,0.0,0.0,0.0,0.0,0.0,0.0,0.0,0.0,0.0,0.0,0.0,0.0,0.0,0.0,0.0,0.0,0.0,0.0,0.0,0.0,0.0,0.0,0.0,0.0,0.0,0.0,0.0,0.0,0.0,0.0,0.0,0.0,0.0,0.0,0.0,0.0,2.3321,2.2607,2.1498,2.0156,2.0891,2.1426,0.0,0.0,0.0,0.0,0.0,0.0,0.0,0.0,0.0,0.0,0.0,0.0,0.0,0.0,0.0,0.0,0.0,0.0,0.0,0.0,0.0,0.0,0.0,0.0,0.0,0.0,0.0,0.0,0.0,0.0,0.0,0.0,0.0,0.0,0.0,0.0,0.0,0.0,0.0,0.0,0.0,0.0,0.0,0.0,0.0,0.0,0.0,0.0,0.0,0.0,0.0,0.0,0.0,0.0,0.0,0.0,0.0,0.0,0.0,0.0,0.0,0.0,0.0,0.0,0.0,0.0,0.0,0.0,0.0,0.0,0.0,0.0,0.0,0.0,0.0,0.0,0.0,0.0,0.0,0.0,0.0,0.0,0.0,0.0,0.0,0.0,0.0,0.0,0.0,0.0,0.0,0.0,0.0,0.0,0.0,0.0,0.0,0.0,0.0,0.0,0.0,0.0,0.0,0.0,0.0,0.0,0.0,0.0,0.0,2.3189,2.2468,2.1878,2.1437,2.1829,2.1934,0.0,0.0,0.0,0.0,0.0,0.0,0.0,0.0,0.0,0.0,0.0,0.0,0.0,0.0,0.0,0.0,0.0,0.0,0.0,0.0,0.0,0.0,0.0,0.0,0.0,0.0,0.0,0.0,0.0,0.0,0.0,0.0,0.0,0.0,0.0,0.0,0.0,0.0,0.0,0.0,0.0,0.0,0.0,0.0,0.0,0.0,0.0,0.0,0.0,0.0,0.0,0.0,0.0,0.0,0.0,0.0,0.0,0.0,0.0,0.0,0.0,0.0,0.0,0.0,0.0,0.0,0.0,0.0,0.0,0.0,0.0,0.0,0.0,0.0,0.0,0.0,0.0,0.0,0.0,0.0,0.0,0.0,0.0,0.0,0.0,0.0,0.0,0.0,0.0,0.0,0.0,0.0,0.0,0.0,0.0,0.0,0.0,0.0,0.0,0.0,0.0,0.0,0.0,0.0,0.0,0.0,0.0,0.0,0.0,2.3208,0.0,2.273,2.2343,2.2452,2.2499,0.0,0.0,0.0,0.0,0.0,0.0,0.0,0.0,0.0,0.0,0.0,0.0,0.0,0.0,0.0,0.0,0.0,0.0,0.0,0.0,0.0,0.0,0.0,0.0,0.0,0.0,0.0,0.0,0.0,0.0,0.0,0.0,0.0,0.0,0.0,0.0,0.0,0.0,0.0,0.0,0.0,0.0,0.0,0.0,0.0,0.0,0.0,0.0,0.0,0.0,0.0,0.0,0.0,0.0,0.0,0.0,0.0,0.0,0.0,0.0,0.0,0.0,0.0,0.0,0.0,0.0,0.0,0.0,0.0,0.0,0.0,0.0,0.0,0.0,0.0,0.0,0.0,0.0,0.0,0.0,0.0,0.0,0.0,0.0,0.0,0.0,0.0,0.0,0.0,0.0,0.0,0.0,0.0,0.0,0.0,0.0,0.0,0.0,0.0,0.0,0.0,0.0,0.0,0.0,0.0,0.0,0.0,0.0,2.3914,2.3377,2.4108,2.3813,2.2488,2.256,2.3063,0.0,0.0,0.0,0.0,0.0,0.0,0.0,0.0,0.0,0.0,0.0,0.0,0.0,0.0,0.0,0.0,0.0,0.0,0.0,0.0,0.0,0.0,0.0,0.0,0.0,0.0,0.0,0.0,0.0,0.0,0.0,0.0,0.0,0.0,0.0,0.0,0.0,0.0,0.0,0.0,0.0,0.0,0.0,0.0,0.0,0.0,0.0,0.0,0.0,0.0,0.0,0.0,0.0,0.0,0.0,0.0,0.0,0.0,0.0,0.0,0.0,0.0,0.0,0.0,0.0,0.0,0.0,0.0,0.0,0.0,0.0,0.0,0.0,0.0,0.0,0.0,0.0,0.0,0.0,0.0,0.0,0.0,0.0,0.0,0.0,0.0,0.0,0.0,0.0,0.0,0.0,0.0,0.0,0.0,0.0,0.0,0.0,0.0,0.0,0.0,0.0,0.0,0.0,0.0,0.0,0.0,0.0,0.0,0.0,2.4279,2.4124,2.3853,2.3449,2.3015,2.297,0.0,0.0,0.0,0.0,0.0,0.0,0.0,0.0,0.0,0.0,0.0,0.0,0.0,0.0,0.0,0.0,0.0,0.0,0.0,0.0,0.0,0.0,0.0,0.0,0.0,0.0,0.0,0.0,0.0,0.0,0.0,0.0,0.0,0.0,0.0,0.0,0.0,0.0,0.0,0.0,0.0,0.0,0.0,0.0,0.0,0.0,0.0,0.0,0.0,0.0,0.0,0.0,0.0,0.0,0.0,0.0,0.0,0.0,0.0,0.0,0.0,0.0,0.0,0.0,0.0,0.0,0.0,0.0,0.0,0.0,0.0,0.0,0.0,0.0,0.0,0.0,0.0,0.0,0.0,0.0,0.0,0.0,0.0,0.0,0.0,0.0,0.0,0.0,0.0,0.0,0.0,0.0,0.0,0.0,0.0,0.0,0.0,0.0,0.0,0.0,0.0,0.0,0.0,0.0,0.0,0.0,0.0,0.0,0.0,2.5857,2.5504,2.5354,2.5438,2.473,2.4244,2.3995,0.0,0.0,0.0,0.0,0.0,0.0,0.0,0.0,0.0,0.0,0.0,0.0,0.0,0.0,0.0,0.0,0.0,0.0,0.0,0.0,0.0,0.0,0.0,0.0,0.0,0.0,0.0,0.0,0.0,0.0,0.0,0.0,0.0,0.0,0.0,0.0,0.0,0.0,0.0,0.0,0.0,0.0,0.0,0.0,0.0,0.0,0.0,0.0,0.0,0.0,0.0,0.0,0.0,0.0,0.0,0.0,0.0,0.0,0.0,0.0,0.0,0.0,0.0,0.0,0.0,0.0,0.0,0.0,0.0,0.0,0.0,0.0,0.0,0.0,0.0,0.0,0.0,0.0,0.0,0.0,0.0,0.0,0.0,0.0,0.0,0.0,0.0,0.0,0.0,0.0,0.0,0.0,0.0,0.0,0.0,0.0,0.0,0.0,0.0,0.0,0.0,0.0,0.0,0.0,0.0,0.0,0.0,0.0,2.7958,2.8077,2.8145,2.8109,2.7291,2.65,0.0,0.0,0.0,0.0,0.0,0.0,0.0,0.0,0.0,0.0,0.0,0.0,0.0,0.0,0.0,0.0,0.0,0.0,0.0,0.0,0.0,0.0,0.0,0.0,0.0,0.0,0.0,0.0,0.0,0.0,0.0,0.0,0.0,0.0,0.0,0.0,0.0,0.0,0.0,0.0,0.0,0.0,0.0,0.0,0.0,0.0,0.0,0.0,0.0,0.0,0.0,0.0,0.0,0.0,0.0,0.0,0.0,0.0,0.0,0.0,0.0,0.0,0.0,0.0,0.0,0.0,0.0,0.0,0.0,0.0,0.0,0.0,0.0,0.0,0.0,0.0,0.0,0.0,0.0,0.0,0.0,0.0,0.0,0.0,0.0,0.0,0.0,0.0,0.0,0.0,0.0,0.0,0.0,0.0,0.0,0.0,0.0,0.0,0.0,0.0,0.0,0.0,0.0,0.0,0.0,0.0,0.0,0.0,0.0,2.907,3.0955,3.1318,3.003,2.8593,2.7426,0.0,0.0,0.0,0.0,0.0,0.0,0.0,0.0,0.0,0.0,0.0,0.0,0.0,0.0,0.0,0.0,0.0,0.0,0.0,0.0,0.0,0.0,0.0,0.0,0.0,0.0,0.0,0.0,0.0,0.0,0.0,0.0,0.0,0.0,0.0,0.0,0.0,0.0,0.0,0.0,0.0,0.0,0.0,0.0,0.0,0.0,0.0,0.0,0.0,0.0,0.0,0.0,0.0,0.0,0.0,0.0,0.0,0.0,0.0,0.0,0.0,0.0,0.0,0.0,0.0,0.0,0.0,0.0,0.0,0.0,0.0,0.0,0.0,0.0,0.0,0.0,0.0,0.0,0.0,0.0,0.0,0.0,0.0,0.0,0.0,0.0,0.0,0.0,0.0,0.0,0.0,0.0,0.0,0.0,0.0,0.0,0.0,0.0,0.0,0.0,0.0,0.0,0.0,0.0,0.0,0.0,0.0,0.0,2.8738,3.0523,3.2617,3.3359,3.269,3.0816,2.8984,0.0,0.0,0.0,0.0,0.0,0.0,0.0,0.0,0.0,0.0,0.0,0.0,0.0,0.0,0.0,0.0,0.0,0.0,0.0,0.0,0.0,0.0,0.0,0.0,0.0,0.0,0.0,0.0,0.0,0.0,0.0,0.0,0.0,0.0,0.0,0.0,0.0,0.0,0.0,0.0,0.0,0.0,0.0,0.0,0.0,0.0,0.0,0.0,0.0,0.0,0.0,0.0,0.0,0.0,0.0,0.0,0.0,0.0,0.0,0.0,0.0,0.0,0.0,0.0,0.0,0.0,0.0,0.0,0.0,0.0,0.0,0.0,0.0,0.0,0.0,0.0,0.0,0.0,0.0,0.0,0.0,0.0,0.0,0.0,0.0,0.0,0.0,0.0,0.0,0.0,0.0,0.0,0.0,0.0,0.0,0.0,0.0,0.0,0.0,0.0,0.0,0.0,0.0,0.0,0.0,0.0,0.0,0.0,3.0191,3.2048,3.349,3.4579,3.5208,3.329,3.0923,0.0,0.0,0.0,0.0,0.0,0.0,0.0,0.0,0.0,0.0,0.0,0.0,0.0,0.0,0.0,0.0,0.0,0.0,0.0,0.0,0.0,0.0,0.0,0.0,0.0,0.0,0.0,0.0,0.0,0.0,0.0,0.0,0.0,0.0,0.0,0.0,0.0,0.0,0.0,0.0,0.0,0.0,0.0,0.0,0.0,0.0,0.0,0.0,0.0,0.0,0.0,0.0,0.0,0.0,0.0,0.0,0.0,0.0,0.0,0.0,0.0,0.0,0.0,0.0,0.0,0.0,0.0,0.0,0.0,0.0,0.0,0.0,0.0,0.0,0.0,0.0,0.0,0.0,0.0,0.0,0.0,0.0,0.0,0.0,0.0,0.0,0.0,0.0,0.0,0.0,0.0,0.0,0.0,0.0,0.0,0.0,0.0,0.0,0.0,0.0,0.0,0.0,0.0,0.0,0.0,0.0,0.0,0.0,3.0354,3.2522,3.4197,3.4955,3.4767,3.3986,3.2609,0.0,0.0,0.0,0.0,0.0,0.0,0.0,0.0,0.0,0.0,0.0,0.0,0.0,0.0,0.0,0.0,0.0,0.0,0.0,0.0,0.0,0.0,0.0,0.0,0.0,0.0,0.0,0.0,0.0,0.0,0.0,0.0,0.0,0.0,0.0,0.0,0.0,0.0,0.0,0.0,0.0,0.0,0.0,0.0,0.0,0.0,0.0,0.0,-0.21,0.0,0.0,0.0,0.0,0.0,0.0,0.0,0.0,0.0,0.0,0.0,0.0,0.0,0.0,0.0,0.0,0.0,0.0,0.0,0.0,0.0,0.0,0.0,0.0,0.0,0.0,0.0,0.0,0.0,0.0,0.0,0.0,0.0,0.0,0.0,0.0,0.0,0.0,0.0,0.0,0.0,0.0,0.0,0.0,0.0,0.0,0.0,0.0,0.0,0.0,0.0,0.0,0.0,0.0,0.0,0.0,0.0,0.0,0.0,3.1212,3.3081,3.4301,3.4734,3.4386,3.3979,3.2862,0.0,0.0,0.0,0.0,0.0,0.0,0.0,0.0,0.0,0.0,0.0,0.0,0.0,0.0,0.0,0.0,0.0,0.0,0.0,0.0,0.0,0.0,0.0,0.0,0.0,0.0,0.0,0.0,0.0,0.0,0.0,0.0,0.0,0.0,0.0,0.0,0.0,0.0,0.0,0.0,0.0,0.0,0.0,0.0,0.0,0.0,0.0,0.0,0.0,0.0,0.0,0.0,0.0,0.0,0.0,0.0,0.0,0.0,0.0,0.0,0.0,0.0,0.0,0.0,0.0,0.0,0.0,0.0,0.0,0.0,0.0,0.0,0.0,0.0,0.0,0.0,0.0,0.0,0.0,0.0,0.0,0.0,0.0,0.0,0.0,0.0,0.0,0.0,0.0,0.0,0.0,0.0,0.0,0.0,0.0,0.0,0.0,0.0,0.0,0.0,0.0,0.0,0.0,0.0,0.0,0.0,0.0,3.01,3.2041,3.3487,3.4135,3.426,3.3957,3.3652,3.2491,3.0351,0.0,0.0,0.0,0.0,0.0,0.0,0.0,0.0,0.0,0.0,0.0,0.0,0.0,0.0,0.0,0.0,0.0,0.0,0.0,0.0,0.0,0.0,0.0,0.0,0.0,0.0,0.0,0.0,0.0,0.0,0.0,0.0,0.0,0.0,0.0,0.0,0.0,0.0,-0.2545,-0.3604,0.0,0.0,0.0,0.0,0.0,0.0,0.0,0.0,-0.5315,0.0,0.0,0.0,0.0,0.0,0.0,0.0,0.0,0.0,0.0,0.0,0.0,0.0,0.0,0.0,0.0,0.0,0.0,0.0,0.0,0.0,0.0,0.0,0.0,0.0,0.0,0.0,0.0,0.0,0.0,0.0,0.0,0.0,0.0,0.0,0.0,0.0,0.0,0.0,0.0,0.0,0.0,0.0,0.0,0.0,0.0,0.0,0.0,0.0,0.0,0.0,0.0,0.0,0.0,0.0,0.0,2.6847,2.9646,3.1786,3.3238,3.3806,3.3831,3.3314,3.3368,3.2148,2.9508,0.0,0.0,0.0,0.0,0.0,0.0,0.0,0.0,0.0,0.0,0.0,0.0,0.0,0.0,0.0,0.0,0.0,0.0,0.0,0.0,0.0,0.0,0.0,0.0,0.0,0.0,0.0,0.0,0.0,0.0,0.0,0.0,0.0,0.0,0.0,0.0,0.0,0.0,0.0,-0.4908,-0.5104,0.0,0.0,0.0,0.0,0.0,0.0,0.0,0.0,-0.6358,0.0,0.0,0.0,0.0,0.0,0.0,0.0,0.0,0.0,0.0,0.0,0.0,0.0,0.0,0.0,0.0,0.0,0.0,0.0,0.0,0.0,0.0,0.0,0.0,0.0,0.0,0.0,0.0,0.0,0.0,0.0,0.0,0.0,0.0,0.0,0.0,0.0,0.0,0.0,0.0,0.0,0.0,0.0,0.0,0.0,0.0,0.0,0.0,0.0,0.0,0.0,0.0,0.0,0.0,0.0,2.7078,2.94,3.1136,3.2456,3.2675,3.2553,3.216,3.1844,3.0882,0.0,0.0,0.0,0.0,0.0,0.0,0.0,0.0,0.0,0.0,0.0,0.0,0.0,0.0,0.0,0.0,0.0,0.0,0.0,0.0,0.0,0.0,0.0,0.0,0.0,0.0,0.0,0.0,0.0,0.0,0.0,0.0,0.0,0.0,0.0,0.0,0.0,0.0,0.0,0.0,-0.64,-0.6371,-0.6503,0.0,0.0,0.0,0.0,0.0,0.0,-0.7977,-0.8273,0.0,0.0,0.0,0.0,0.0,0.0,0.0,0.0,0.0,0.0,0.0,0.0,0.0,0.0,0.0,0.0,0.0,0.0,0.0,0.0,0.0,0.0,0.0,0.0,0.0,0.0,0.0,0.0,0.0,0.0,0.0,0.0,0.0,0.0,0.0,0.0,0.0,0.0,0.0,0.0,0.0,0.0,0.0,0.0,0.0,0.0,0.0,0.0,0.0,0.0,0.0,0.0,0.0,0.0,0.0,2.6392,2.7893,2.9145,3.0226,3.0429,3.047,3.0419,2.9721,2.908,0.0,0.0,0.0,0.0,0.0,0.0,0.0,0.0,0.0,0.0,0.0,0.0,0.0,0.0,0.0,0.0,0.0,0.0,0.0,0.0,0.0,0.0,0.0,0.0,0.0,0.0,0.0,0.0,0.0,0.0,0.0,0.0,0.0,0.0,0.0,0.0,0.0,0.0,0.0,0.0,0.0,-0.7702,-0.7737,-0.8219,0.0,0.0,0.0,0.0,-0.9152,-0.9791,0.0,0.0,0.0,0.0,0.0,0.0,0.0,0.0,0.0,0.0,0.0,0.0,0.0,0.0,0.0,0.0,0.0,0.0,0.0,0.0,0.0,0.0,0.0,0.0,0.0,0.0,0.0,0.0,0.0,0.0,0.0,0.0,0.0,0.0,0.0,0.0,0.0,0.0,0.0,0.0,0.0,0.0,0.0,0.0,0.0,0.0,0.0,0.0,0.0,0.0,0.0,0.0,0.0,0.0,0.0,0.0,2.2118,2.3359,2.4089,2.4776,2.6105,2.7056,2.7471,2.7281,2.6686,0.0,0.0,0.0,0.0,0.0,0.0,0.0,0.0,0.0,0.0,0.0,0.0,0.0,0.0,0.0,0.0,0.0,0.0,0.0,0.0,0.0,0.0,0.0,0.0,0.0,0.0,0.0,0.0,0.0,0.0,0.0,0.0,0.0,0.0,0.0,0.0,0.0,0.0,0.0,0.0,0.0,-0.8847,-0.8669,-0.9367,-0.9874,0.0,0.0,-1.0109,-1.1169,-1.1429,0.0,0.0,0.0,0.0,0.0,0.0,0.0,0.0,0.0,0.0,0.0,0.0,0.0,0.0,0.0,0.0,0.0,0.0,0.0,0.0,0.0,0.0,0.0,0.0,0.0,0.0,0.0,0.0,0.0,0.0,0.0,0.0,0.0,0.0,0.0,0.0,0.0,0.0,0.0,0.0,0.0,0.0,0.0,0.0,0.0,0.0,0.0,0.0,0.0,0.0,0.0,0.0,0.0,0.0,0.0,1.2416,2.2946,2.1811,2.1872,2.3625,2.4249,2.4885,2.5753,2.5327,2.474,0.0,0.0,0.0,0.0,0.0,0.0,0.0,0.0,0.0,0.0,0.0,0.0,0.0,0.0,0.0,0.0,0.0,0.0,0.0,0.0,0.0,0.0,0.0,0.0,0.0,0.0,0.0,0.0,0.0,0.0,0.0,0.0,0.0,0.0,0.0,0.0,0.0,0.0,0.0,0.0,0.0,0.0,-1.046,-1.0849,0.0,0.0,0.0,-1.1991,-1.2227,0.0,0.0,0.0,0.0,0.0,0.0,0.0,0.0,0.0,0.0,0.0,0.0,0.0,0.0,0.0,0.0,0.0,0.0,0.0,0.0,0.0,0.0,0.0,0.0,0.0,0.0,0.0,0.0,0.0,0.0,0.0,0.0,0.0,0.0,0.0,0.0,0.0,0.0,0.0,0.0,0.0,0.0,0.0,0.0,0.0,0.0,0.0,0.0,0.0,0.0,0.0,0.0,0.0,0.0,0.0,0.0,0.0,1.9386,1.7404,1.7219,1.9351,2.0178,2.1104,2.2109,2.156,0.0,0.0,0.0,0.0,0.0,0.0,0.0,0.0,0.0,0.0,0.0,0.0,0.0,0.0,0.0,0.0,0.0,0.0,0.0,0.0,0.0,0.0,0.0,0.0,0.0,0.0,0.0,-1.6578,0.0,0.0,0.0,0.0,0.0,0.0,0.0,0.0,0.0,0.0,0.0,0.0,0.0,0.0,-1.2224,-1.2372,-1.2713,-1.2936,0.0,0.0,-1.3536,-1.3174,-1.3502,-1.3634,0.0,0.0,0.0,0.0,0.0,0.0,0.0,0.0,0.0,0.0,0.0,0.0,0.0,0.0,0.0,0.0,0.0,0.0,0.0,0.0,0.0,0.0,0.0,0.0,0.0,0.0,0.0,0.0,0.0,0.0,0.0,0.0,0.0,0.0,0.0,0.0,0.0,0.0,0.0,0.0,0.0,0.0,0.0,0.0,0.0,0.0,0.0,0.0,0.0,0.0,0.0,0.0,0.0,0.0,0.0051,0.59,0.6971,0.7667,0.8086,1.1557,1.3923,1.4864,1.4416,1.4543,0.0,0.0,0.0,0.0,0.0,0.0,0.0,0.0,0.0,0.0,0.0,0.0,0.0,0.0,0.0,0.0,0.0,0.0,0.0,0.0,0.0,0.0,0.0,0.0,0.0,0.0,0.0,0.0,0.0,0.0,0.0,0.0,0.0,0.0,0.0,0.0,0.0,0.0,0.0,0.0,0.0,-1.4747,-1.3978,-1.5108,-1.5568,0.0,-1.4102,-1.4206,-1.4397,-1.4345,-1.4071,-1.3622,0.0,0.0,0.0,0.0,0.0,0.0,0.0,0.0,0.0,0.0,0.0,0.0,0.0,0.0,0.0,0.0,0.0,0.0,0.0,0.0,0.0,0.0,0.0,0.0,0.0,0.0,0.0,0.0,0.0,0.0,0.0,0.0,0.0,0.0,0.0,0.0,0.0,0.0,0.0,0.0,0.0,0.0,0.0,0.0,0.0,0.0,0.0,0.0,0.0,0.0,0.0,0.0,0.0,-0.2868,0.1863,0.2549,0.3362,0.4496,0.5994,0.7398,0.8835,0.8513,0.8881,0.0,0.0,0.0,0.0,0.0,0.0,0.0,0.0,0.0,0.0,0.0,0.0,0.0,0.0,0.0,0.0,0.0,0.0,0.0,0.0,0.0,0.0,0.0,0.0,0.0,0.0,0.0,0.0,-1.8411,-1.816,-1.7923,0.0,0.0,0.0,0.0,0.0,0.0,0.0,0.0,0.0,0.0,-1.5872,-1.5839,-1.6475,0.0,0.0,-1.6522,-1.6572,-1.5582,-1.5669,-1.5402,-1.4253,-1.3824,0.0,0.0,0.0,0.0,0.0,0.0,0.0,0.0,0.0,0.0,0.0,0.0,0.0,0.0,0.0,0.0,0.0,0.0,0.0,0.0,0.0,0.0,0.0,0.0,0.0,0.0,0.0,0.0,0.0,0.0,0.0,0.0,0.0,0.0,0.0,0.0,0.0,0.0,0.0,0.0,0.0,0.0,0.0,0.0,0.0,0.0,0.0,0.0,0.0,0.0,0.0,0.0,-0.7541,-0.4125,-0.3071,-0.208,-0.1072,-0.0415,0.0734,0.2251,0.2157,0.2663,0.0,0.0,0.0,0.0,0.0,0.0,0.0,0.0,0.0,0.0,0.0,0.0,0.0,0.0,0.0,0.0,0.0,0.0,0.0,0.0,0.0,0.0,0.0,0.0,0.0,0.0,0.0,0.0,-1.9537,-1.9208,-1.9102,0.0,0.0,0.0,0.0,0.0,0.0,0.0,0.0,0.0,0.0,-1.7532,-1.7624,-1.793,-1.8057,-1.7524,-1.8092,-1.8081,-1.6577,-1.6455,-1.6163,-1.4909,0.0,0.0,0.0,0.0,0.0,0.0,0.0,0.0,0.0,0.0,0.0,0.0,0.0,0.0,0.0,0.0,0.0,0.0,0.0,0.0,0.0,0.0,0.0,0.0,0.0,0.0,0.0,-1.6532,0.0,0.0,-1.7529,0.0,0.0,0.0,0.0,0.0,0.0,0.0,0.0,0.0,0.0,0.0,0.0,0.0,0.0,0.0,0.0,0.0,0.0,0.0,0.0,0.0,0.0,-1.5211,-1.3852,-1.0914,-0.9777,-1.0258,-0.8168,-0.6273,-0.502,-0.514,-0.4328,-0.2448,0.0,0.0,0.0,0.0,0.0,0.0,0.0,0.0,0.0,0.0,0.0,0.0,0.0,0.0,0.0,0.0,0.0,0.0,0.0,0.0,0.0,0.0,0.0,0.0,0.0,0.0,-2.3169,-2.2236,-2.129,0.0,0.0,0.0,0.0,0.0,0.0,0.0,0.0,0.0,0.0,-1.9417,-1.9865,-1.9079,-1.9813,-1.9926,-1.8272,-1.8295,-1.8126,-1.7431,-1.6642,-1.5877,0.0,0.0,0.0,0.0,0.0,0.0,0.0,0.0,0.0,0.0,0.0,0.0,0.0,0.0,0.0,0.0,0.0,0.0,0.0,0.0,0.0,0.0,0.0,0.0,0.0,0.0,0.0,-1.9978,-1.89,0.0,0.0,0.0,0.0,0.0,0.0,0.0,0.0,0.0,0.0,0.0,-2.3359,-2.3302,0.0,0.0,0.0,0.0,0.0,0.0,0.0,0.0,0.0,0.0,0.0,0.0,-1.7543,-1.9019,-1.6075,-1.4335,-1.4135,-1.4422,-1.3586,-1.1708,-1.1837,-1.0807,-0.8289,0.0,0.0,0.0,0.0,0.0,0.0,0.0,0.0,0.0,0.0,0.0,0.0,0.0,0.0,0.0,0.0,0.0,0.0,0.0,0.0,0.0,0.0,0.0,0.0,0.0,-2.2599,0.0,0.0,0.0,0.0,0.0,0.0,0.0,0.0,0.0,0.0,0.0,-2.0502,-2.1055,-2.1393,-2.1398,-2.1076,-2.1248,-2.0979,0.0,0.0,0.0,0.0,0.0,0.0,0.0,0.0,0.0,0.0,0.0,0.0,0.0,0.0,-1.3693,-1.1878,-1.0952,-1.0564,-1.048,0.0,0.0,0.0,0.0,0.0,0.0,0.0,0.0,0.0,0.0,0.0,0.0,0.0,0.0,-2.2091,0.0,-2.3208,0.0,0.0,0.0,0.0,0.0,0.0,0.0,0.0,-2.4192,-2.4733,-2.4827,-2.4764,-2.505,0.0,-2.42,-2.3952,0.0,0.0,0.0,0.0,0.0,0.0,0.0,0.0,-1.9767,-2.1637,-1.9207,-1.7789,-1.7743,-1.8608,-1.8326,-1.6779,-1.6522,-1.532,-1.3148,-1.2675,-1.2591,0.0,0.0,0.0,0.0,0.0,0.0,0.0,0.0,0.0,0.0,0.0,0.0,0.0,0.0,0.0,0.0,0.0,0.0,0.0,0.0,0.0,0.0,0.0,-2.3171,0.0,0.0,0.0,0.0,0.0,0.0,0.0,0.0,0.0,-2.2503,-2.2167,-2.219,-2.2675,-2.2526,-2.239,-2.2385,0.0,0.0,0.0,0.0,0.0,0.0,0.0,-1.9455,-1.8292,-1.7895,-1.7681,-1.7613,-1.7449,-1.7133,-1.6828,0.0,0.0,-1.3429,-1.254,-1.2092,-1.2086,-1.1552,-1.1146,-1.1099,-1.0306,-0.9694,0.0,0.0,0.0,0.0,0.0,0.0,0.0,0.0,-2.0853,-2.2207,0.0,-2.4312,0.0,0.0,0.0,0.0,-2.5272,-2.643,0.0,0.0,-2.5276,-2.5755,-2.626,-2.668,-2.6883,-2.6679,-2.6025,-2.6154,-2.6708,-2.3153,0.0,0.0,0.0,0.0,0.0,0.0,-2.2129,-2.1992,-2.0587,-2.0284,-2.1073,-2.0857,-2.0562,-2.0068,-1.9128,-1.8066,-1.7071,-1.6994,-1.6484,-1.5442,-1.6554,0.0,0.0,0.0,0.0,0.0,0.0,0.0,0.0,0.0,0.0,0.0,0.0,0.0,0.0,0.0,0.0,0.0,0.0,0.0,0.0,-2.3732,0.0,0.0,0.0,0.0,0.0,0.0,0.0,0.0,0.0,0.0,-2.3597,-2.3698,-2.3805,-2.3314,0.0,0.0,0.0,0.0,-2.1825,-2.1942,-2.1728,-2.1591,-2.1475,-2.1256,-2.0754,-1.9629,0.0,0.0,-1.8442,-1.8427,-1.8238,-1.7725,-1.7082,-1.6367,-1.5673,-1.5185,-1.4962,-1.4968,-1.3896,-1.3152,-1.2975,-1.1747,-1.0578,3.6337,0.0,0.0,0.0,0.0,0.4555,-0.4763,-1.4107,-2.3862,-2.5745,-2.2408,-2.7362,0.0,0.0,0.0,0.0,0.0,0.0,-2.5812,-2.5455,-2.6341,-2.5843,-2.4285,-2.4701,-2.427,-2.3107,-2.4171,-2.4446,-2.386,-2.3486,-2.4028,-2.5427,0.0,0.0,0.0,0.0,-2.2114,-2.3417,-2.2889,-2.2473,-2.239,-2.3436,-2.3435,-2.2287,-2.2002,-2.1124,-1.9758,-1.9843,-1.9673,-1.912,-1.9447,0.0,0.0,0.0,0.0,0.0,0.0,0.0,0.0,0.0,0.0,0.0,0.0,0.0,0.0,0.0,0.0,0.0,0.0,0.0,-2.2877,-2.3037,-2.3912,0.0,0.0,0.0,0.0,0.0,0.0,0.0,0.0,0.0,-2.6645,-2.5371,-2.4588,0.0,0.0,-2.4568,-2.4058,-2.3677,-2.3279,-2.3039,-2.2712,0.0,-2.2257,-2.221,-2.1778,-2.088,-2.0342,-1.9851,-1.9449,-1.9502,-1.9684,-1.9476,-1.9313,-1.9063,-1.8682,-1.6464,-1.4678,-1.4148,-1.4078,-1.4054,-1.3915,-1.3662,-1.3454,4.0249,3.6359,3.5305,2.9112,1.9458,1.2202,0.2628,-0.8538,-1.8965,-2.3022,-2.272,-2.9026,-2.9764,-2.6442,-2.8576,0.0,0.0,0.0,-2.5974,-2.5576,-2.5757,-2.502,-2.3699,-2.3742,-2.346,-2.2828,-2.2905,-2.321,-2.3497,-2.353,-2.4254,-2.5622,0.0,0.0,-2.3238,-2.2701,-2.3191,-2.4626,-2.4756,-2.4461,-2.3868,-2.4502,-2.4352,-2.3575,-2.4026,-2.377,-2.2535,-2.2604,-2.2441,-2.1985,-2.1681,-2.1368,0.0,0.0,0.0,0.0,0.0,0.0,0.0,0.0,0.0,0.0,0.0,-2.4223,-2.4179,0.0,0.0,0.0,-2.2352,-2.2379,-2.3688,-2.4034,0.0,0.0,0.0,0.0,0.0,0.0,0.0,-2.942,-2.9464,-2.9185,-2.8657,-2.751,-2.6561,-2.598,-2.59,-2.5711,-2.5269,0.0,-2.4769,-2.4704,-2.43,-2.4053,-2.4041,-2.4128,-2.4012,-2.3272,-2.1966,-2.0978,-2.0895,-2.0636,-2.0377,-2.0281,-2.034,-2.0274,-2.015,-1.8163,-1.652,-1.6107,-1.5919,-1.5767,-1.5711,-1.5418,-1.5188,4.222,3.8635,3.4708,2.8586,2.1258,1.6938,0.7346,-0.5391,-1.1094,-1.75,-2.4587,-2.9511,-3.2701,-3.4325,-3.3151,0.0,-2.7648,-2.7229,-2.6414,-2.5394,-2.4336,-2.3801,-2.3811,-2.3748,-2.3887,-2.4295,-2.2319,-2.2666,-2.4937,-2.3708,-2.3941,-2.5577,-2.3238,-2.2355,-2.2971,-2.4011,-2.5004,-2.5843,-2.6292,-2.6205,-2.5573,-2.4769,-2.4273,-2.41,-2.5453,-2.5797,-2.5087,-2.505,-2.4797,-2.4153,-2.3328,-2.2728,-2.2452,0.0,0.0,0.0,0.0,0.0,0.0,0.0,0.0,0.0,0.0,0.0,0.0,0.0,0.0,-2.3005,-2.2527,0.0,-2.491,-2.605,0.0,0.0,0.0,-2.8786,-2.968,-2.9353,-2.9674,-3.1161,0.0,0.0,-3.008,-3.0111,-2.9341,-2.7263,-2.6674,-2.6449,-2.632,-2.6131,-2.6149,-2.6427,-2.6245,-2.6208,-2.6182,-2.6313,-2.6194,-2.5742,-2.402,-2.2352,-2.236,-2.1406,-2.0729,-2.0406,-2.0567,-2.0565,-2.0017,-1.996,-2.0201,-1.9821,-1.8795,-1.7903,-1.7785,-1.7142,-1.65,3.3769,2.9466,2.2875,1.9762,1.8228,0.6513,-0.3354,-1.196,-2.1854,-2.5588,-2.4863,-2.8321,-2.9794,-2.9709,-2.857,-2.808,-2.8088,-2.6358,-2.5351,-2.493,-2.5546,-2.443,-2.214,-2.4189,-2.3832,-2.1512,-2.3228,-2.4409,-2.5114,-2.6187,-2.6933,-2.7208,-2.582,-2.5608,-2.6589,-2.6176,-2.6851,-2.8541,-2.8096,-2.7747,-2.7408,-2.6822,-2.6177,-2.5623,-2.635,-2.6151,-2.4859,-2.5074,-2.5031,-2.45,-2.3657,-2.3282,-2.3497,-2.2978,0.0,0.0,0.0,0.0,0.0,0.0,0.0,0.0,0.0,-2.6093,-2.6636,0.0,-2.6614,0.0,-2.6126,-2.5707,-2.5967,-2.6572,0.0,0.0,-2.8937,-2.9771,-3.1767,-3.172,-3.1973,-3.3208,-3.328,-3.3058,-3.2793,-3.2388,-3.1612,-3.0153,-2.8688,-2.7671,-2.7303,-2.712,-2.7092,-2.727,-2.6985,-2.6741,-2.7093,-2.619,-2.5802,-2.6334,-2.4082,-2.2401,-2.3021,-2.2015,-2.1064,-2.0991,-2.1035,-2.105,-2.0856,-2.0976,-2.0969,-2.0841,-2.0217,-1.9591,-1.936,-1.9185,-1.9219,2.8955,2.4745,1.6224,1.1529,0.9089,0.2359,-0.4104,-1.0647,-1.958,-2.3938,-2.5051,-2.9416,-3.0618,-2.9263,-2.8673,-2.8233,-2.7734,-2.6161,-2.5402,-2.5525,-2.5389,-2.4361,-2.2795,-2.377,-2.375,-2.2921,-2.3674,-2.4607,-2.5732,-2.686,-2.7325,-2.7205,-2.7375,-2.8047,-2.9114,-2.7751,-2.7693,-2.8903,-2.8703,-2.8476,-2.8341,-2.7225,-2.6384,-2.6166,-2.6425,-2.6264,-2.5611,-2.567,-2.5764,-2.5959,-2.4625,-2.4025,-2.4513,-2.3657,-2.3313,0.0,0.0,0.0,0.0,0.0,0.0,0.0,0.0,0.0,0.0,0.0,-2.8853,-2.9322,-2.8269,-2.7769,-2.8338,-2.8652,-2.9309,-3.0335,-3.0323,-3.0958,-3.2692,-3.2733,-3.3127,-3.4426,-3.4564,-3.4272,-3.3419,-3.3089,-3.2448,-3.0799,-2.9706,-2.8884,-2.8497,-2.8461,-2.8656,-2.8669,-2.8436,-2.8305,-2.8552,-2.7912,-2.7365,-2.7257,-2.5617,-2.4069,-2.3838,-2.2636,-2.1546,-2.1211,-2.1211,-2.1211,-2.1211,-2.1211,-2.1211,-2.1189,-2.0958,-2.0615,-2.048,-2.0616,-2.0737,2.4519,2.0589,1.0967,0.3147,-0.273,-0.1032,-0.3349,-0.858,-1.4061,-1.9818,-2.5836,-3.146,-3.2786,-3.082,-3.0745,-2.9524,-2.7522,-2.6412,-2.608,-2.6329,-2.4893,-2.4221,-2.4221,-2.3454,-2.3943,-2.5597,-2.3887,-2.4231,-2.6389,-2.6483,-2.6565,-2.673,-2.8143,-2.9431,-3.036,-2.8748,-2.8168,-2.8735,-2.8927,-2.8974,-2.8876,-2.7043,-2.6067,-2.6104,-2.6168,-2.6296,-2.6481,-2.6251,-2.653,-2.742,-2.5675,-2.4832,-2.5256,-2.4399,-2.3794,0.0,-2.4272,0.0,0.0,0.0,0.0,0.0,0.0,0.0,0.0,-2.9855,-3.0777,-3.1143,-3.0016,-2.9854,-3.1316,-3.1443,-3.1509,-3.1669,-3.1758,-3.223,-3.3131,-3.3345,-3.3884,-3.5109,-3.5458,-3.4965,-3.3311,-3.3221,-3.26,-3.0732,-3.0296,-3.0036,-2.9477,-2.9691,-2.995,-3.0057,-2.9994,-2.9743,-2.9774,-2.9774,-2.9448,-2.8794,-2.7365,-2.6173,-2.5136,-2.3721,-2.2511,-2.2063,-2.1842,-2.1598,-2.1447,-2.1318,-2.1211,-2.1211,-2.1189,-2.1181,-2.1181,-2.1081,-2.1211,1.3282,0.8291,-0.0671,-0.7045,-1.1561,-1.5839,-1.9097,-2.1849,-2.4987,-2.736,-2.9114,-3.1926,-3.2259,-3.0739,-3.0284,-2.9927,-2.9551,-2.751,-2.6438,-2.6113,-2.6025,-2.4988,-2.3391,-2.5346,-2.5378,-2.372,-2.4114,-2.5062,-2.6202,-2.6378,-2.6894,-2.7557,-2.7891,-2.8234,-2.8523,0.0,0.0,0.0,-3.042,-2.9816,-2.9193,-2.8096,-2.7176,-2.6269,-2.6661,0.0,-2.537,-2.5848,-2.6168,-2.634,-2.5824,0.0,0.0,0.0,0.0,0.0,0.0,0.0,0.0,0.0,0.0,0.0,-3.0036,-3.0881,-3.0774,-3.1632,-3.2474,-3.2925,-3.3166,-3.3384,-3.3578,-3.3496,-3.3292,-3.3091,-3.2906,-3.328,-3.4274,-3.4788,-3.5341,-3.6062,-3.6238,-3.5792,-3.4619,-3.4423,-3.3674,-3.1688,-3.1278,-3.0856,-2.9974,-2.9943,-2.9995,-2.9984,-2.9994,-2.9994,-2.9994,-2.9438,-2.9237,-2.9333,-2.7912,-2.6936,-2.7315,-2.6385,-2.5406,-2.4972,-2.4179,-2.3398,-2.2828,-2.1873,-2.1325,-2.1211,-2.1211,-2.1211,-2.1211,-2.1211,-2.1211,0.7018,0.137,-0.4998,-1.0014,0.0,-2.0182,-2.3648,-2.5377,-2.8149,-3.0245,-3.1837,-3.3111,-3.2981,-3.1733,-3.0691,-2.9898,-2.9426,-2.7766,-2.7124,-2.7284,-2.6761,-2.6157,-2.5466,-2.6157,-2.5986,-2.5094,-2.5221,-2.5735,-2.6648,-2.6741,-2.708,-2.7499,-2.7903,-2.8303,-2.8626,-2.9256,-3.0168,-3.1223,-3.0604,-2.9904,-2.928,-2.8137,-2.7378,-2.6899,-2.6697,0.0,0.0,0.0,0.0,0.0,0.0,0.0,0.0,-2.6205,0.0,-2.6393,-2.6937,-2.7229,-2.7275,-2.825,-2.9037,-2.9454,-3.1789,-3.3123,-3.2926,-3.368,-3.4316,-3.4806,-3.5169,-3.5238,-3.5099,-3.4857,-3.458,-3.4363,-3.404,-3.4223,-3.4989,-3.5378,-3.5768,-3.6245,-3.637,-3.5966,-3.4969,-3.4775,-3.4178,-3.2689,-3.188,-3.1381,-3.0888,-3.0287,-2.9994,-2.9994,-2.9994,-2.9994,-2.9994,-2.9669,-2.9227,-2.9237,-2.8349,-2.7752,-2.7804,-2.7308,-2.6686,-2.6406,-2.5752,-2.5023,-2.4716,-2.3901,-2.3255,-2.3181,-2.2663,-2.2101,-2.2093,-2.1653,-2.1211,0.2939,-0.248,-0.7029,-1.107,-1.5016,-2.0724,-2.4316,-2.6357,-2.9056,0.0,0.0,-3.4623,-3.4443,-3.3341,-3.1993,-3.0641,-2.9352,-2.8304,-2.8198,-2.8917,-2.7573,-2.7417,-2.8214,-2.6948,-2.664,-2.7229,-2.6373,-2.6412,-2.7174,-2.7174,-2.7174,-2.7255,-2.8099,-2.8775,-2.9292,-2.9833,-3.0254,-3.0567,-3.0254,-2.976,-2.916,-2.7882,-2.7411,-2.7656,-2.6748,-2.6539,-2.6949,-2.6263,-2.6398,-2.7475,-2.6426,-2.6308,-2.7509,-2.7288,-2.7328,-2.7747,-2.8273,-2.8418,-2.7816,-2.8786,-2.9741,-3.0563,-3.2965,-3.4499,-3.4621,-3.535,-3.5863,-3.6187,-3.6331,-3.6271,-3.5878,-3.5757,-3.5572,-3.5241,-3.4971,-3.5039,-3.5479,-3.5642,-3.5893,-3.627,-3.637,-3.5966,-3.4969,-3.4775,-3.4385,-3.3289,-3.2286,-3.1472,-3.1278,-3.0484,-2.9994,-2.9994,-2.9994,-2.9994,-2.9994,-2.9994,-2.9669,-2.9122,-2.9016,-2.8623,-2.8077,-2.776,-2.7781,-2.7678,-2.7158,-2.6749,-2.6572,-2.569,-2.5316,-2.5388,-2.4303,-2.3311,-2.3199,-2.2539,-2.1759,-0.0219,-0.3169,-0.9685,-1.4417,-1.7853,-2.1759,-2.5983,-3.014,-3.2106,-3.342,-3.4219,-3.6241,-3.657,-3.553,-3.5063,-3.3842,-3.216,-3.081,-3.0202,-3.0037,-2.9113,-2.8955,-2.9425,-2.8584,-2.7995,-2.7542,-2.6956,-2.6835,-2.7174,-2.7174,-2.7174,-2.7336,-2.8099,-2.8763,-2.9304,-2.9821,-2.9893,-2.952,-2.9764,-2.946,-2.8631,-2.8174,-2.7964,-2.816,-2.7432,-2.7361,-2.7931,-2.8112,-2.8351,-2.8705,-2.8734,-2.8486,-2.8006,-2.7997,-2.7777,-2.7576,-2.7653,-2.8003,-2.8646,-2.9525,-3.1002,-3.3294,-3.3735,-3.4148,-3.4874,-3.5727,-3.6043,-3.577,-3.6585,-3.6618,-3.5612,-3.5967,-3.6042,-3.5398,-3.5328,-3.5466,-3.5579,-3.5956,-3.6245,-3.6345,-3.637,-3.5966,-3.5078,-3.4872,-3.4581,-3.3388,-3.2488,-3.1392,-3.0495,-3.0088,-2.9994,-2.9994,-2.9994,-2.9994,-2.9994,-2.9994,-2.9879,-2.9889,-2.9784,-2.9813,-2.9931,-2.9904,-2.9826,-2.9758,-2.8826,-2.8024,-2.7506,-2.6163,-2.5578,-2.5445,-2.4923,-2.4514,-2.4514,-2.4181,-2.3519,-0.5329,-0.9054,-1.2802,-1.716,-2.1904,-2.5516,-2.8907,-3.1765,-3.314,-3.413,-3.474,-3.6132,-3.6263,-3.5421,-3.4526,-3.342,-3.2255,-3.1228,-3.0864,-3.1122,-3.0097,-2.9964,-3.0422,-2.9629,-2.9045,-2.8745,-2.8244,-2.8081,-2.8327,-2.7906,-2.7765,-2.7938,-2.8339,-2.8551,-2.8698,-2.8937,-2.8855,-2.8373,-2.9054,-2.9189,-2.8828,-2.8088,-2.8125,-2.8913,-2.82,-2.8089,-2.8774,-2.8608,-2.8724,-2.9177,-2.8833,-2.8737,-2.9015,-2.8898,-2.8895,-2.903,-2.9055,-2.9211,-2.9505,-3.0454,-3.1428,-3.2641,-3.4091,-3.4826,-3.4657,-3.6183,-3.7092,-3.7021,-3.7078,-3.7028,-3.6656,-3.6424,-3.6214,-3.6096,-3.6029,-3.5968,-3.6006,-3.6182,-3.6358,-3.637,-3.637,-3.6263,-3.5763,-3.5667,-3.5571,-3.4872,-3.3586,-3.1891,-3.0297,-2.9994,-2.9994,-2.9994,-2.9994,-2.9994,-2.9994,-2.9994,-2.9994,-2.9994,-2.9994,-3.0191,-3.0584,-3.0688,-3.0781,-3.0751,-3.0055,-2.948,-2.8986,-2.8013,-2.7328,-2.7131,-2.6299,-2.5762,-2.5626,-2.5177,-2.4069,-1.0079,-1.4445,-1.5741,-1.9763,-2.5479,-2.8544,-3.08,-3.2513,-3.3615,-3.4538,-3.5114,-3.5696,-3.5696,-3.5305,-3.3957,-3.3021,-3.2374,-3.1664,-3.1642,-3.1978,-3.11,-3.087,-3.1186,-3.0324,-2.983,-2.977,-2.9296,-2.9213,-2.933,-2.8769,-2.8458,-2.8522,-2.851,-2.8431,-2.8179,-2.8179,-2.8007,-2.7638,-2.849,-2.8907,-2.8907,-2.8235,-2.8415,-2.9453,-2.8937,-2.8963,-2.9535,-2.9138,-2.9112,-2.9529,-2.8938,-2.9034,-2.9774,-2.9715,-2.9845,-3.0241,-3.0292,-3.0292,-3.0265,-3.0932,-3.1615,-3.1919,-3.4176,-3.5333,-3.4939,-3.6494,-3.7667,-3.7676,-3.7317,-3.7163,-3.7112,-3.669,-3.6259,-3.6457,-3.6472,-3.6414,-3.6358,-3.637,-3.637,-3.637,-3.637,-3.637,-3.637,-3.637,-3.6061,-3.5367,-3.419,-3.2398,-3.0495,-2.9994,-2.9994,-2.9994,-2.9994,-2.9994,-2.9994,-2.9994,-2.9994,-2.9994,-2.9994,-3.0149,-3.0419,-3.0512,-3.0626,-3.0853,-3.0504,-3.0156,-3.0225,-2.9527,-2.8896,-2.8711,-2.7889,-2.7178,-2.6952,-2.64,-2.5287,-1.2981,-1.5686,-1.8137,-2.2568,-2.7746,-2.8691,-3.0339,-3.2513,-3.3953,-3.4881,-3.5386,-3.5615,-3.6004,-3.6336,-3.5278,-3.4489,-3.3952,-3.3403,-3.2978,-3.2587,-3.229,-3.1918,-3.1568,-3.0826,-3.0351,-3.0154,-2.9671,-2.9665,-3.0061,-2.9472,-2.8979,-2.8558,-2.851,-2.8351,-2.8179,-2.8179,-2.8111,-2.7881,-2.8319,-2.8467,-2.8351,-2.87,-2.9303,-2.9884,-2.9872,-3.0037,-3.0465,-3.0491,-3.039,-3.0277,-3.02,-3.0087,-3.005,-3.0075,-3.0024,-2.9869,-2.9882,-3.0083,-3.047,-3.0662,-3.1529,-3.3125,-3.41,-3.4952,-3.5399,-3.6201,-3.6623,-3.6742,-3.7299,-3.7112,-3.6187,-3.6387,-3.6393,-3.5869,-3.615,-3.637,-3.637,-3.637,-3.637,-3.637,-3.637,-3.637,-3.637,-3.637,-3.5667,-3.419,-3.3796,-3.27,-3.0795,-3.0193,-3.0193,-3.0099,-2.9994,-2.9994,-2.9994,-2.9994,-2.9994,-2.9994,-2.9994,-3.0056,-3.0118,-3.0118,-3.0108,-3.0315,-3.0085,-3.0075,-2.9969,-2.97,-2.9489,-2.9349,-2.899,-2.8698,-2.8504,-2.8184,-2.7511,-1.6819,-1.8452,-2.1643,-2.5192,-2.8675,-3.0226,-3.1633,-3.2871,-3.3979,-3.4881,-3.5548,-3.5548,-3.571,-3.5871,-3.5535,-3.4937,-3.4204,-3.3894,-3.3823,-3.3641,-3.3202,-3.2859,-3.2575,-3.177,-3.1312,-3.0937,-3.0265,-3.0372,-3.0942,-3.0725,-2.9951,-2.8934,-2.8805,-2.8488,-2.7881,-2.7765,-2.7857,-2.8099,-2.8271,-2.8407,-2.8712,-2.9003,-2.9561,-3.0432,-3.0203,-3.0203,-3.0622,-3.0698,-3.0609,-3.0444,-3.0292,-3.0228,-3.0075,-3.0011,-3.0007,-3.0244,-3.0281,-3.0382,-3.0608,-3.1363,-3.2102,-3.2733,-3.4687,-3.565,-3.4979,-3.6056,-3.6841,-3.6849,-3.6505,-3.6244,-3.6348,-3.6186,-3.6011,-3.6062,-3.6232,-3.637,-3.637,-3.637,-3.637,-3.637,-3.637,-3.637,-3.637,-3.637,-3.5763,-3.4483,-3.4091,-3.3388,-3.2095,-3.1392,-3.0981,-3.0888,-3.0495,-2.9994,-2.9994,-2.9994,-2.9994,-2.9994,-2.9994,-2.9994,-2.9994,-2.9994,-3.0005,-2.9994,-2.9889,-2.9774,-2.9815,-2.9564,-2.9343,-2.9343,-2.9237,-2.9026,-2.892,-2.8834,-2.8408,-2.064,-2.1806,-2.4792,-2.7482,-2.9913,-3.1681,-3.2784,-3.3467,-3.4451,-3.5205,-3.5656,-3.5805,-3.5859,-3.5723,-3.5535,-3.5032,-3.4397,-3.423,-3.4243,-3.4314,-3.3894,-3.3569,-3.3313,-3.2686,-3.2251,-3.184,-3.1077,-3.0987,-3.1503,-3.123,-3.0418,-2.9332,-2.9261,-2.8976,-2.8281,-2.8221,-2.8357,-2.8691,-2.873,-2.8937,-2.9328,-2.9484,-2.9883,-3.0596,-3.0432,-3.0368,-3.0609,-3.0609,-3.0533,-3.0216,-3.0075,-3.0011,-3.0023,-2.9995,-3.0256,-3.0758,-3.0834,-3.0896,-3.1035,-3.2034,-3.2658,-3.2963,-3.5036,-3.5749,-3.4977,-3.5885,-3.6674,-3.6564,-3.6082,-3.6149,-3.6779,-3.6284,-3.5956,-3.6307,-3.637,-3.637,-3.637,-3.637,-3.637,-3.637,-3.637,-3.637,-3.637,-3.637,-3.5953,-3.4981,-3.4775,-3.4385,-3.34,-3.2499,-3.1982,-3.1688,-3.0877,-3.0391,-3.0099,-2.9994,-2.9994,-2.9994,-2.9994,-2.9994,-2.9994,-2.9994,-2.9994,-2.9994,-2.9774,-2.9774,-2.9774,-2.9564,-2.9353,-2.9353,-2.9353,-2.9343,-2.9237,-2.9036,-2.894,-2.3956,-2.5344,-2.7055,-2.9349,-3.1769,-3.2289,-3.3205,-3.4259,-3.5534,-3.5992,-3.5994,-3.6647,-3.6902,-3.6512,-3.5412,-3.4895,-3.4881,-3.4564,-3.4314,-3.4397,-3.4314,-3.3979,-3.3386,-3.33,-3.3056,-3.2624,-3.2115,-3.1412,-3.0742,-3.0521,-3.0001,-2.9432,-3.0037,-3.024,-2.9904,-2.9996,-3.0029,-2.9924,-2.9924,-2.9921,-2.9985,-3.0407,-3.0432,-3.0203,-3.0596,-3.0748,-3.0444,-3.0432,-3.0216,-2.9869,-2.9894,-2.9817,-2.9842,-3.0319,-3.0846,-3.126,-3.1348,-3.1587,-3.2001,-3.2268,-3.2784,-3.3965,-3.4511,-3.4564,-3.4507,-3.5651,-3.6045,-3.4997,-3.6057,-3.6934,-3.7404,-3.6756,-3.627,-3.6332,-3.637,-3.637,-3.637,-3.637,-3.637,-3.637,-3.637,-3.6408,-3.6395,-3.637,-3.6015,-3.526,-3.4932,-3.4628,-3.3878,-3.3346,-3.2734,-3.2106,-3.1597,-3.1187,-3.0308,-3.0005,-2.9994,-2.9994,-2.9994,-2.9994,-2.9994,-2.9994,-2.9994,-2.9994,-2.9994,-2.9889,-2.9994,-2.9994,-2.9889,-2.9889,-2.9784,-2.9774,-2.9564,-2.9554,-2.9448,-2.6023,-2.8889,-3.0434,-3.1878,-3.3173,-3.3869,-3.4578,-3.5298,-3.6385,-3.7039,-3.7318,-3.7497,-3.729,-3.6766,-3.6066,-3.5584,-3.5181,-3.4397,-3.4134,-3.4397,-3.4397,-3.423,-3.4063,-3.3725,-3.3471,-3.3142,-3.2698,-3.1991,-3.1384,-3.1846,-3.159,-3.0663,-3.0992,-3.106,-3.0646,-3.0589,-3.0735,-3.1085,-3.1124,-3.1108,-3.1022,-3.1487,-3.1293,-3.033,-3.052,-3.052,-3.0368,-3.0305,-3.0088,-2.9792,-3.0131,-3.0319,-3.0407,-3.116,-3.1537,-3.1436,-3.1725,-3.2001,-3.2261,-3.2702,-3.3193,-3.3564,-3.4607,-3.4964,-3.4643,-3.5231,-3.5614,-3.5605,-3.5749,-3.6297,-3.6663,-3.6534,-3.637,-3.637,-3.637,-3.637,-3.637,-3.637,-3.637,-3.637,-3.637,-3.6483,-3.6747,-3.6596,-3.6538,-3.6738,-3.6504,-3.6112,-3.5685,-3.4686,-3.3657,-3.3538,-3.2836,-3.224,-3.2663,-3.0966,-3.0005,-3.0005,-2.9994,-3.0005,-3.0005,-3.0005,-2.9994,-2.9994,-2.9994,-3.0099,-3.0088,-3.0099,-3.0099,-3.0193,-3.0088,-2.9994,-2.9889,-2.9774,-2.9554,-2.8453,-3.1338,-3.2588,-3.3707,-3.4676,-3.5288,-3.59,-3.6322,-3.7184,-3.7847,-3.8131,-3.8184,-3.7847,-3.7214,-3.6817,-3.6188,-3.5515,-3.4601,-3.4244,-3.4314,-3.4397,-3.4397,-3.4314,-3.405,-3.3882,-3.3641,-3.3142,-3.2612,-3.2077,-3.2649,-3.2364,-3.1466,-3.2042,-3.2122,-3.176,-3.1642,-3.1978,-3.2316,-3.2149,-3.1988,-3.1876,-3.2107,-3.1873,-3.1035,-3.0816,-3.0547,-3.033,-3.0317,-3.0276,-3.0131,-3.057,-3.0947,-3.1185,-3.1813,-3.2139,-3.2001,-3.2265,-3.2491,-3.2575,-3.3302,-3.3788,-3.3914,-3.4778,-3.5272,-3.5116,-3.5496,-3.5826,-3.5852,-3.6173,-3.6354,-3.6339,-3.637,-3.637,-3.637,-3.637,-3.637,-3.637,-3.637,-3.6471,-3.6621,-3.6671,-3.6897,-3.7287,-3.7098,-3.7287,-3.7939,-3.7651,-3.7475,-3.7242,-3.6149,-3.5058,-3.5131,-3.4291,-3.3891,-3.3617,-3.229,-3.1251,-3.1104,-3.0684,-3.0538,-3.0109,-3.0005,-3.0099,-2.9994,-3.0099,-3.0193,-3.0297,-3.0193,-3.0297,-3.0391,-3.0193,-2.9994,-2.9889,-2.9879,-2.9774,-3.144,-3.2801,-3.3388,-3.4569,-3.5891,-3.6445,-3.6908,-3.7368,-3.8061,-3.8396,-3.8574,-3.8737,-3.8611,-3.8112,-3.7281,-3.6608,-3.6021,-3.5463,-3.4842,-3.4212,-3.4314,-3.4397,-3.4397,-3.4314,-3.4314,-3.423,-3.3641,-3.3142,-3.2711,-3.2587,-3.2364,-3.2463,-3.2955,-3.3331,-3.3322,-3.3398,-3.3506,-3.3414,-3.3023,-3.2631,-3.2406,-3.2349,-3.2137,-3.1877,-3.1554,-3.1032,-3.0227,-3.0646,-3.0767,-3.067,-3.111,-3.165,-3.2077,-3.2265,-3.2478,-3.2867,-3.3018,-3.3056,-3.3167,-3.3823,-3.4551,-3.508,-3.5328,-3.5548,-3.596,-3.6511,-3.6457,-3.5938,-3.6647,-3.7256,-3.6534,-3.637,-3.637,-3.637,-3.637,-3.637,-3.637,-3.6383,-3.6558,-3.6973,-3.7098,-3.7412,-3.7814,-3.7839,-3.7914,-3.8115,-3.8103,-3.8027,-3.799,-3.7196,-3.685,-3.6451,-3.5848,-3.5353,-3.4589,-3.3566,-3.2971,-3.2493,-3.1808,-3.1377,-3.0496,-3.0203,-3.0495,-3.0495,-3.0899,-3.1094,-3.1392,-3.13,-3.0991,-3.0981,-3.0599,-3.0099,-2.9994,-2.9889,-2.9994,-3.2577,-3.3499,-3.4787,-3.5667,-3.6345,-3.7028,-3.7717,-3.8359,-3.883,-3.9422,-3.9871,-3.9033,-3.9019,-3.9011,-3.7727,-3.6858,-3.6801,-3.6397,-3.5544,-3.4523,-3.4424,-3.4424,-3.441,-3.4397,-3.4397,-3.4314,-3.3725,-3.3313,-3.3227,-3.3129,-3.3031,-3.3202,-3.3713,-3.4063,-3.4063,-3.4145,-3.4136,-3.411,-3.3966,-3.3528,-3.2877,-3.3008,-3.2676,-3.1769,-3.1833,-3.1599,-3.1027,-3.114,-3.1228,-3.116,-3.1662,-3.2227,-3.2679,-3.2805,-3.288,-3.3043,-3.3081,-3.3282,-3.3583,-3.3908,-3.4395,-3.4938,-3.5531,-3.5535,-3.545,-3.6426,-3.6522,-3.5777,-3.6311,-3.664,-3.6452,-3.637,-3.637,-3.637,-3.637,-3.637,-3.6408,-3.6684,-3.6784,-3.6734,-3.7274,-3.7776,-3.7965,-3.804,-3.8379,-3.8944,-3.8831,-3.8605,-3.8454,-3.7878,-3.7442,-3.7343,-3.7079,-3.6921,-3.6561,-3.5824,-3.4958,-3.3821,-3.2794,-3.2012,-3.1141,-3.0795,-3.0991,-3.1197,-3.1597,-3.2095,-3.2398,-3.2398,-3.1993,-3.1677,-3.1278,-3.0785,-3.0193,-2.9994,-2.9994,-3.3808,-3.4495,-3.5667,-3.6439,-3.6841,-3.7479,-3.8213,-3.9011,-3.8997,-3.9692,-4.0388,-3.9224,-3.8868,-3.9135,-3.7782,-3.7038,-3.6831,-3.6522,-3.5838,-3.4938,-3.4953,-3.4933,-3.4724,-3.4489,-3.4397,-3.4314,-3.3979,-3.381,-3.3725,-3.3725,-3.3725,-3.3907,-3.423,-3.4397,-3.4397,-3.4397,-3.4397,-3.4314,-3.4217,-3.3894,-3.3328,-3.3449,-3.3043,-3.2261,-3.2353,-3.234,-3.2026,-3.2014,-3.1913,-3.1851,-3.2227,-3.2704,-3.3056,-3.3081,-3.3169,-3.3431,-3.3741,-3.403,-3.4287,-3.4879,-3.5344,-3.5768,-3.6077,-3.6371,-3.6146,-3.7022,-3.6806,-3.6092,-3.6519,-3.6828,-3.6452,-3.637,-3.637,-3.637,-3.637,-3.637,-3.6445,-3.6847,-3.7174,-3.7211,-3.7789,-3.8304,-3.8567,-3.8655,-3.8881,-3.9509,-3.9408,-3.9182,-3.9018,-3.8435,-3.8403,-3.8354,-3.8125,-3.8324,-3.8878,-3.8054,-3.7006,-3.536,-3.3731,-3.2846,-3.1889,-3.2015,-3.2196,-3.2297,-3.2488,-3.2989,-3.3388,-3.3101,-3.2789,-3.2387,-3.2072,-3.1381,-3.0785,-3.0193,-2.9994,-3.5102,-3.5559,-3.6156,-3.6747,-3.7214,-3.7743,-3.8381,-3.9024,-3.8626,-3.9237,-4.0055,-3.906,-3.8509,-3.8509,-3.7978,-3.7182,-3.6325,-3.6286,-3.6238,-3.5839,-3.5911,-3.5839,-3.5351,-3.4894,-3.4711,-3.4646,-3.4554,-3.4405,-3.4457,-3.4353,-3.4397,-3.4314,-3.4314,-3.4397,-3.4397,-3.4397,-3.4314,-3.416,-3.4076,-3.3882,-3.342,-3.3373,-3.3288,-3.3054,-3.298,-3.298,-3.2918,-3.2893,-3.2729,-3.2403,-3.2754,-3.3129,-3.3205,-3.3205,-3.3555,-3.4135,-3.493,-3.5066,-3.5302,-3.596,-3.697,-3.713,-3.7166,-3.7227,-3.7838,-3.7828,-3.7508,-3.6726,-3.7044,-3.7176,-3.6546,-3.6458,-3.6483,-3.6483,-3.6558,-3.6521,-3.6521,-3.7023,-3.75,-3.7939,-3.8504,-3.9032,-3.9408,-3.9459,-3.9597,-3.9647,-3.9647,-3.9597,-3.9521,-3.9231,-3.927,-3.9105,-3.8941,-3.9016,-3.9396,-3.8177,-3.723,-3.6982,-3.5121,-3.3694,-3.2914,-3.3024,-3.3586,-3.3586,-3.3586,-3.4091,-3.4288,-3.419,-3.3796,-3.3388,-3.2778,-3.1971,-3.1176,-3.0391,-3.0088,-3.5078,-3.4288,-3.575,-3.6238,-3.6156,-3.6427,-3.7441,-3.8522,-3.7782,-3.8522,-3.953,-3.8881,-3.8419,-3.8854,-3.7978,-3.7625,-3.7495,-3.6932,-3.6944,-3.7182,-3.7144,-3.6623,-3.6057,-3.5744,-3.5626,-3.5561,-3.5208,-3.5064,-3.5025,-3.4672,-3.4463,-3.4397,-3.445,-3.441,-3.4397,-3.4397,-3.4327,-3.416,-3.4076,-3.3823,-3.3484,-3.3398,-3.3326,-3.3167,-3.3081,-3.3081,-3.3081,-3.3081,-3.3031,-3.2893,-3.298,-3.3687,-3.4593,-3.4658,-3.4917,-3.5383,-3.5774,-3.6096,-3.6224,-3.6187,-3.6638,-3.7646,-3.8007,-3.8359,-3.7936,-3.8492,-3.8238,-3.7625,-3.7163,-3.676,-3.654,-3.6747,-3.7086,-3.745,-3.7249,-3.7136,-3.75,-3.8065,-3.8354,-3.8191,-3.8881,-3.927,-3.9295,-3.9471,-3.9685,-3.9697,-3.9697,-3.9697,-3.9634,-3.9609,-3.9496,-3.9546,-3.9431,-3.9572,-3.929,-3.8057,-3.7545,-3.7975,-3.6557,-3.4645,-3.4117,-3.3906,-3.4678,-3.5367,-3.5078,-3.5379,-3.5667,-3.5763,-3.5174,-3.4385,-3.3586,-3.2678,-3.1084,-3.0088,-3.0193,-3.4787,-3.4483,-3.5451,-3.575,-3.575,-3.6483,-3.723,-3.7586,-3.752,-3.7991,-3.8626,-3.7704,-3.752,-3.816,-3.7453,-3.7268,-3.7533,-3.7083,-3.7015,-3.7108,-3.7268,-3.6936,-3.6517,-3.6279,-3.6109,-3.607,-3.5783,-3.5665,-3.56,-3.5273,-3.5012,-3.4829,-3.4692,-3.4478,-3.4243,-3.4147,-3.3992,-3.3823,-3.3823,-3.3654,-3.3313,-3.3227,-3.324,-3.3167,-3.3093,-3.3144,-3.3382,-3.3646,-3.3846,-3.3977,-3.4097,-3.473,-3.5995,-3.5805,-3.5909,-3.6446,-3.6862,-3.7025,-3.6806,-3.6858,-3.7442,-3.8055,-3.8405,-3.837,-3.8529,-3.8959,-3.8556,-3.7882,-3.768,-3.7502,-3.7195,-3.7362,-3.7776,-3.8191,-3.8078,-3.7927,-3.804,-3.8467,-3.8668,-3.868,-3.9069,-3.9609,-3.9245,-3.9521,-3.9647,-3.9697,-3.9697,-3.9697,-3.9685,-3.9697,-3.9697,-3.9697,-3.9697,-3.9672,-3.9672,-3.8844,-3.8152,-3.8452,-3.7643,-3.5719,-3.5198,-3.4945,-3.5404,-3.6098,-3.6275,-3.6383,-3.6433,-3.642,-3.5966,-3.5174,-3.4276,-3.3487,-3.2185,-3.0899,-3.0888,-3.4288,-3.5271,-3.5162,-3.5283,-3.5655,-3.7019,-3.7111,-3.6858,-3.7057,-3.7441,-3.7533,-3.6345,-3.6534,-3.7015,-3.6909,-3.6546,-3.6546,-3.6828,-3.6828,-3.6841,-3.6989,-3.7077,-3.7129,-3.6711,-3.6515,-3.6436,-3.6266,-3.6188,-3.6149,-3.6109,-3.5809,-3.5383,-3.5094,-3.4775,-3.4542,-3.4191,-3.3845,-3.3789,-3.3852,-3.3779,-3.3532,-3.3532,-3.347,-3.3458,-3.3445,-3.3621,-3.3997,-3.4438,-3.4882,-3.5647,-3.5411,-3.593,-3.7165,-3.6744,-3.67,-3.7161,-3.7736,-3.7682,-3.7114,-3.7964,-3.8868,-3.8899,-3.7663,-3.7497,-3.9124,-3.919,-3.8704,-3.8311,-3.8891,-3.8549,-3.8212,-3.809,-3.8366,-3.8793,-3.8919,-3.8693,-3.8442,-3.8642,-3.8956,-3.8969,-3.9433,-3.9634,-3.9697,-3.9697,-3.9697,-3.9697,-3.9697,-3.9697,-3.9697,-3.9697,-3.9697,-3.9697,-3.9697,-3.9697,-3.9697,-3.9544,-3.9168,-3.8906,-3.7991,-3.6787,-3.6304,-3.6056,-3.6281,-3.6458,-3.6471,-3.6533,-3.6596,-3.6546,-3.6338,-3.5667,-3.4678,-3.4483,-3.4178,-3.2789,-3.2196,-3.3796,-3.3201,-3.419,-3.4507,-3.4445,-3.4823,-3.5559,-3.6307,-3.575,-3.6238,-3.6909,-3.664,-3.6439,-3.6546,-3.6909,-3.7083,-3.664,-3.664,-3.6653,-3.7002,-3.7214,-3.7559,-3.7586,-3.7469,-3.7482,-3.7351,-3.6985,-3.6815,-3.675,-3.6436,-3.607,-3.5891,-3.5691,-3.5564,-3.5321,-3.4917,-3.4895,-3.473,-3.4692,-3.4451,-3.4261,-3.4261,-3.4274,-3.4274,-3.4311,-3.4399,-3.4512,-3.465,-3.571,-3.6696,-3.6113,-3.595,-3.7658,-3.7443,-3.7457,-3.8185,-3.8103,-3.8092,-3.8302,-3.7861,-3.7912,-3.95,-3.886,-3.8522,-3.9302,-3.9393,-3.9159,-3.9013,-3.8664,-3.8576,-3.8705,-3.868,-3.8931,-3.9308,-3.9446,-3.9421,-3.9358,-3.9408,-3.9446,-3.9509,-3.9584,-3.9697,-3.9697,-3.9697,-3.9697,-3.9697,-3.9697,-3.9697,-3.9697,-3.9697,-3.9697,-3.9697,-3.9697,-3.9697,-3.9697,-3.9659,-3.9383,-3.9032,-3.8304,-3.7651,-3.7161,-3.6835,-3.681,-3.6709,-3.6596,-3.6684,-3.686,-3.6621,-3.6388,-3.5741,-3.509,-3.4945,-3.4664,-3.3843,-3.3492,-3.3312,-3.3224,-3.3732,-3.3854,-3.3953,-3.4531,-3.4993,-3.5379,-3.5571,-3.5667,-3.5966,-3.6073,-3.6168,-3.6086,-3.6628,-3.6815,-3.6628,-3.6452,-3.664,-3.7015,-3.7214,-3.74,-3.7598,-3.7795,-3.79,-3.7848,-3.7612,-3.7442,-3.7312,-3.6987,-3.6662,-3.6261,-3.6006,-3.5647,-3.5494,-3.5302,-3.4958,-3.4868,-3.4918,-3.4816,-3.4726,-3.4726,-3.4726,-3.4813,-3.4951,-3.5115,-3.5115,-3.5391,-3.6157,-3.6819,-3.6248,-3.6728,-3.8727,-3.8573,-3.847,-3.8863,-3.8328,-3.8149,-3.8372,-3.8596,-3.8912,-4.0289,-3.9614,-3.9838,-3.9909,-3.979,-3.9312,-3.938,-3.912,-3.8969,-3.922,-3.9258,-3.9459,-3.9584,-3.9697,-3.9697,-3.9697,-3.9697,-3.9697,-3.9697,-3.9685,-3.9697,-3.9697,-3.9697,-3.9697,-3.9697,-3.9697,-3.9697,-3.9697,-3.9697,-3.9697,-3.9697,-3.9697,-3.9697,-3.9697,-3.9609,-3.9421,-3.9107,-3.8668,-3.814,-3.7688,-3.7412,-3.7211,-3.7136,-3.7086,-3.7061,-3.7149,-3.686,-3.6584,-3.6136,-3.5716,-3.5417,-3.5175,-3.5175,-3.499,-3.3012,-3.3854,-3.3469,-3.3481,-3.3866,-3.4799,-3.4993,-3.4714,-3.5571,-3.5571,-3.5114,-3.5416,-3.5704,-3.58,-3.6181,-3.6395,-3.6496,-3.6628,-3.6893,-3.7368,-3.7296,-3.7365,-3.7513,-3.7609,-3.7808,-3.79,-3.7835,-3.7835,-3.7743,-3.7572,-3.7091,-3.6716,-3.6286,-3.5951,-3.5479,-3.5093,-3.5115,-3.5152,-3.5165,-3.514,-3.5102,-3.5102,-3.5115,-3.5203,-3.5441,-3.5655,-3.5742,-3.6006,-3.6483,-3.6546,-3.664,-3.7874,-3.921,-3.9482,-3.9078,-3.9029,-3.8293,-3.841,-3.9071,-3.9468,-3.9867,-4.0896,-4.0306,-4.0202,-4.061,-4.0231,-3.9739,-3.96,-3.9546,-3.9546,-3.9685,-3.9622,-3.9634,-3.9697,-3.9697,-3.9697,-3.9697,-3.9697,-3.9697,-3.9697,-3.9697,-3.9697,-3.9697,-3.9697,-3.9697,-3.9697,-3.9697,-3.9697,-3.9697,-3.9697,-3.9697,-3.9697,-3.9697,-3.9697,-3.9697,-3.9685,-3.9484,-3.9283,-3.8944,-3.8592,-3.8216,-3.809,-3.7889,-3.7739,-3.7676,-3.7626,-3.745,-3.7174,-3.6872,-3.6546,-3.6438,-3.6254,-3.6388,-3.6722,-3.6306,-3.2835,-3.3369,-3.3281,-3.358,-3.3977,-3.4261,-3.4543,-3.4738,-3.5017,-3.5211,-3.5428,-3.532,-3.5692,-3.6086,-3.6111,-3.643,-3.696,-3.7061,-3.7442,-3.7851,-3.7756,-3.7648,-3.7869,-3.7603,-3.7596,-3.7808,-3.79,-3.79,-3.7795,-3.7585,-3.7309,-3.7245,-3.673,-3.6417,-3.6286,-3.6243,-3.5931,-3.5868,-3.5893,-3.5918,-3.5918,-3.5918,-3.5918,-3.5918,-3.6069,-3.6132,-3.6182,-3.6377,-3.6722,-3.7441,-3.7546,-3.7808,-3.8175,-3.7948,-3.8101,-3.8434,-3.8273,-3.8569,-3.9906,-3.9294,-3.9856,-4.08,-4.0877,-4.0192,-4.0308,-4.0374,-4.0122,-3.9802,-3.9697,-3.9697,-3.9697,-3.9697,-3.9697,-3.9697,-3.9697,-3.9697,-3.9697,-3.9697,-3.9697,-3.9697,-3.9697,-3.9697,-3.9697,-3.9697,-3.9697,-3.9697,-3.9697,-3.9697,-3.9697,-3.9697,-3.9697,-3.9697,-3.9697,-3.9697,-3.9697,-3.9697,-3.9609,-3.9496,-3.9245,-3.9019,-3.8755,-3.8743,-3.8617,-3.8479,-3.8228,-3.804,-3.7814,-3.75,-3.6998,-3.6546,-3.6759,-3.7048,-3.7123,-3.7174,-3.7224,-3.3058,-3.3281,-3.3281,-3.358,-3.4075,-3.4075,-3.4359,-3.4726,-3.4823,-3.4932,-3.5126,-3.532,-3.5608,-3.6065,-3.6518,-3.7014,-3.75,-3.7613,-3.7874,-3.8111,-3.8045,-3.8015,-3.8229,-3.7826,-3.7715,-3.7774,-3.7699,-3.7729,-3.769,-3.74,-3.7214,-3.7015,-3.6734,-3.6546,-3.6534,-3.6402,-3.637,-3.637,-3.637,-3.637,-3.637,-3.637,-3.637,-3.637,-3.637,-3.637,-3.637,-3.637,-3.6546,-3.6909,-3.7083,-3.7083,-3.7151,-3.754,-3.7947,-3.8407,-3.8311,-3.8745,-4.0367,-4.0062,-4.0794,-4.1272,-4.1475,-4.1215,-4.0666,-4.044,-4.0262,-3.989,-3.9697,-3.9697,-3.9697,-3.9697,-3.9697,-3.9697,-3.9697,-3.9697,-3.9697,-3.9697,-3.9697,-3.9697,-3.9697,-3.9697,-3.9697,-3.9697,-3.9697,-3.9697,-3.9697,-3.9697,-3.9697,-3.9697,-3.9697,-3.9697,-3.9697,-3.9697,-3.9697,-3.9697,-3.9697,-3.9609,-3.9521,-3.9295,-3.9233,-3.9195,-3.9245,-3.922,-3.8944,-3.858,-3.809,-3.7739,-3.7149,-3.6659,-3.6923,-3.7199,-3.7475,-3.7638,-3.7701,-3.2757,-3.2969,-3.2969,-3.3358,-3.4075,-3.4075,-3.4359,-3.4726,-3.4823,-3.4932,-3.5017,-3.5332,-3.5682,-3.6096,-3.693,-3.7651,-3.8153,-3.8191,-3.8278,-3.8504,-3.8464,-3.8389,-3.8336,-3.8163,-3.8069,-3.7718,-3.78,-3.7619,-3.7413,-3.7108,-3.6909,-3.6722,-3.6546,-3.637,-3.637,-3.6452,-3.637,-3.637,-3.637,-3.637,-3.637,-3.637,-3.637,-3.6408,-3.6458,-3.6558,-3.6596,-3.6784,-3.6822,-3.6918,-3.688,-3.6842,-3.686,-3.7638,-3.832,-3.8537,-3.8434,-3.9213,-4.0187,-4.0736,-4.092,-4.1274,-4.1959,-4.1703,-4.1032,-4.0083,-3.98,-3.9697,-3.9697,-3.9697,-3.9697,-3.9697,-3.9697,-3.9697,-3.9697,-3.9697,-3.9697,-3.9697,-3.9697,-3.9697,-3.9697,-3.9697,-3.9697,-3.9697,-3.9697,-3.9697,-3.9697,-3.9697,-3.9697,-3.9697,-3.9697,-3.9697,-3.9697,-3.9697,-3.9697,-3.9697,-3.9697,-3.9672,-3.9634,-3.9534,-3.9559,-3.9597,-3.9622,-3.9572,-3.9546,-3.9157,-3.858,-3.799,-3.745,-3.7149,-3.7211,-3.7374,-3.7688,-3.8052,-3.8266,-3.0856,-3.179,-3.179,-3.2723,-3.3965,-3.4064,-3.4359,-3.4726,-3.4726,-3.503,-3.5332,-3.5381,-3.5903,-3.6883,-3.7578,-3.8228,-3.863,-3.8793,-3.8969,-3.9182,-3.9045,-3.8957,-3.8856,-3.8265,-3.8227,-3.7973,-3.8112,-3.7776,-3.7386,-3.7049,-3.6722,-3.664,-3.6546,-3.637,-3.637,-3.6471,-3.637,-3.637,-3.637,-3.6383,-3.6408,-3.642,-3.6433,-3.6584,-3.6835,-3.7086,-3.7149,-3.74,-3.7626,-3.7688,-3.7739,-3.7776,-3.7914,-3.8404,-3.8693,-3.8932,-3.9335,-3.9995,-4.0676,-4.065,-4.0563,-4.0906,-4.1406,-4.0844,-4.0275,-3.989,-3.9697,-3.9697,-3.9697,-3.9697,-3.9697,-3.9697,-3.9697,-3.9697,-3.9697,-3.9697,-3.9697,-3.9697,-3.9697,-3.9697,-3.9697,-3.9697,-3.9697,-3.9697,-3.9697,-3.9697,-3.9697,-3.9697,-3.9697,-3.9697,-3.9697,-3.9697,-3.9697,-3.9697,-3.9697,-3.9697,-3.9697,-3.9697,-3.9697,-3.9697,-3.9697,-3.9697,-3.9697,-3.9672,-3.9697,-3.9584,-3.9019,-3.8417,-3.7826,-3.7626,-3.7663,-3.7776,-3.7939,-3.8329,-3.8793,-3.0203,-3.1768,-3.1143,-3.1779,-3.3235,-3.3335,-3.3534,-3.4017,-3.4519,-3.492,-3.5199,-3.5563,-3.6505,-3.7693,-3.8317,-3.8806,-3.9245,-3.9308,-3.9433,-3.9634,-3.9446,-3.9423,-3.9297,-3.8982,-3.8601,-3.845,-3.8421,-3.8108,-3.766,-3.7305,-3.6995,-3.6597,-3.6477,-3.637,-3.6521,-3.6709,-3.6609,-3.6471,-3.6395,-3.6533,-3.6734,-3.6835,-3.696,-3.7262,-3.7525,-3.7626,-3.7726,-3.7826,-3.8002,-3.8002,-3.8002,-3.8002,-3.8128,-3.8504,-3.8856,-3.8906,-3.9371,-3.9827,-4.0262,-4.0364,-4.0453,-4.0453,-4.0743,-4.0743,-3.9981,-3.9697,-3.9697,-3.9697,-3.9697,-3.9697,-3.9697,-3.9697,-3.9697,-3.9697,-3.9697,-3.9697,-3.9697,-3.9697,-3.9697,-3.9697,-3.9697,-3.9697,-3.9697,-3.9697,-3.9697,-3.9697,-3.9697,-3.9697,-3.9697,-3.9697,-3.9697,-3.9697,-3.9697,-3.9697,-3.9697,-3.9697,-3.9697,-3.9697,-3.9697,-3.9697,-3.9697,-3.9697,-3.9697,-3.9697,-3.9697,-3.9521,-3.927,-3.8856,-3.8278,-3.8165,-3.8128,-3.8241,-3.8404,-3.8906,-3.9283,-2.9367,-3.1154,-3.0628,-3.1348,-3.2801,-3.2801,-3.3012,-3.33,-3.4323,-3.4726,-3.4906,-3.5695,-3.7145,-3.8301,-3.888,-3.9181,-3.9659,-3.9697,-3.9697,-3.9697,-3.9697,-3.9672,-3.9624,-3.9411,-3.9184,-3.8894,-3.8894,-3.849,-3.8051,-3.7934,-3.7581,-3.6797,-3.6948,-3.6872,-3.691,-3.7149,-3.7224,-3.6948,-3.6897,-3.7073,-3.7312,-3.7387,-3.7613,-3.7889,-3.8128,-3.8228,-3.8241,-3.8442,-3.8479,-3.8504,-3.853,-3.8592,-3.8668,-3.8944,-3.9145,-3.922,-3.9546,-3.9685,-3.9981,-4.0173,-4.0275,-4.0173,-4.0173,-4.0364,-3.989,-3.9697,-3.9697,-3.9697,-3.9697,-3.9697,-3.9697,-3.9697,-3.9697,-3.9697,-3.9697,-3.9697,-3.9697,-3.9697,-3.9697,-3.9697,-3.9697,-3.9697,-3.9697,-3.9697,-3.9697,-3.9697,-3.9697,-3.9697,-3.9697,-3.9697,-3.9697,-3.9697,-3.9697,-3.9697,-3.9697,-3.9697,-3.9697,-3.9697,-3.9697,-3.9697,-3.9697,-3.9697,-3.9697,-3.9697,-3.9697,-3.9634,-3.9484,-3.912,-3.8768,-3.8605,-3.8517,-3.868,-3.8944,-3.9408,-3.9634,-2.7736,-2.9387,-3.0317,-3.144,-3.27,-3.2801,-3.2901,-3.3101,-3.4225,-3.4371,-3.4386,-3.6045,-3.7653,-3.8678,-3.9128,-3.9378,-3.9697,-3.9697,-3.9697,-3.9697,-3.9697,-3.9697,-3.9634,-3.9534,-3.946,-3.9082,-3.9209,-3.8907,-3.8391,-3.8693,-3.839,-3.7965,-3.7701,-3.7814,-3.7789,-3.7713,-3.7864,-3.7713,-3.7701,-3.7751,-3.7902,-3.7965,-3.804,-3.8178,-3.853,-3.8818,-3.8831,-3.917,-3.9358,-3.9358,-3.932,-3.9333,-3.9308,-3.9421,-3.9484,-3.9546,-3.9597,-3.9697,-3.9788,-3.989,-3.9788,-3.9788,-3.9788,-3.9981,-3.9697,-3.9697,-3.9697,-3.9697,-3.9697,-3.9697,-3.9697,-3.9697,-3.9697,-3.9697,-3.9697,-3.9697,-3.9697,-3.9697,-3.9697,-3.9697,-3.976,-3.9873,-3.9898,-3.9936,-3.976,-3.9735,-3.9697,-3.9697,-3.9697,-3.9697,-3.9697,-3.9697,-3.9697,-3.9697,-3.9697,-3.9697,-3.9697,-3.9697,-3.9697,-3.9697,-3.9697,-3.9697,-3.9697,-3.9697,-3.9697,-3.9697,-3.9659,-3.9333,-3.9057,-3.8919,-3.8906,-3.9057,-3.917,-3.9459,-3.9634,-2.8048,-2.8155,-2.9608,-3.0421,-3.0835,-3.0949,-3.1462,-3.2286,-3.3312,-3.4504,-3.5349,-3.6658,-3.7811,-3.8695,-3.9315,-3.9581,-3.9697,-3.9697,-3.9697,-3.9697,-3.9697,-3.9697,-3.9697,-3.9672,-3.9572,-3.9433,-3.9584,-3.9597,-3.9195,-3.9233,-3.9245,-3.8956,-3.8417,-3.8052,-3.799,-3.814,-3.8253,-3.8379,-3.8253,-3.8153,-3.8517,-3.8567,-3.8705,-3.9069,-3.917,-3.9371,-3.9408,-3.9572,-3.9672,-3.9697,-3.9697,-3.9697,-3.9697,-3.9697,-3.9697,-3.9697,-3.9697,-3.9697,-3.9697,-3.9697,-3.9697,-3.9697,-3.9697,-3.9697,-3.9697,-3.9697,-3.9697,-3.9697,-3.9697,-3.9697,-3.9697,-3.9697,-3.9697,-3.9697,-3.9747,-3.981,-3.9772,-3.981,-3.981,-3.986,-4.0074,-4.0262,-4.0249,-4.0237,-3.9986,-3.9772,-3.9735,-3.9697,-3.9697,-3.9697,-3.9697,-3.9697,-3.9697,-3.9697,-3.9697,-3.9697,-3.9697,-3.9697,-3.9697,-3.9697,-3.9697,-3.9697,-3.9697,-3.9697,-3.9697,-3.9697,-3.9634,-3.9509,-3.9371,-3.927,-3.9295,-3.9408,-3.9509,-3.9559,-3.9622,-2.8145,-2.7745,-2.8794,-2.9398,-2.9692,-3.0224,-3.0845,-3.1779,-3.3201,-3.4686,-3.6372,-3.6956,-3.7811,-3.8757,-3.9324,-3.9581,-3.9697,-3.9697,-3.9697,-3.9697,-3.9697,-3.9697,-3.9697,-3.9697,-3.9672,-3.9697,-3.9697,-3.9634,-3.9584,-3.9672,-3.9609,-3.9358,-3.8981,-3.8668,-3.858,-3.853,-3.873,-3.8894,-3.8818,-3.8655,-3.9107,-3.9132,-3.9207,-3.9572,-3.9634,-3.9634,-3.9622,-3.9685,-3.9685,-3.9697,-3.9697,-3.9697,-3.9697,-3.9697,-3.9697,-3.9697,-3.9697,-3.9697,-3.9697,-3.9697,-3.9697,-3.9697,-3.9697,-3.9697,-3.9697,-3.9697,-3.9697,-3.9697,-3.9697,-3.9697,-3.9722,-3.9848,-3.9998,-4.0086,-4.0388,-4.045,-4.0162,-4.0086,-4.0049,-4.0061,-4.0275,-4.04,-4.0136,-4.0061,-3.9961,-3.976,-3.9722,-3.9697,-3.9697,-3.9697,-3.9697,-3.9697,-3.9697,-3.9697,-3.9697,-3.9697,-3.9697,-3.9697,-3.9697,-3.9697,-3.9697,-3.9697,-3.9697,-3.9697,-3.9697,-3.9697,-3.9659,-3.9584,-3.9609,-3.9647,-3.9647,-3.9597,-3.9609,-3.9634,-3.9647,-2.7413,-2.7853,-2.796,-2.8678,-2.9817,-3.1051,-3.1483,-3.188,-3.372,-3.5258,-3.6234,-3.6661,-3.7513,-3.8639,-3.9088,-3.9378,-3.9697,-3.9697,-3.9697,-3.9697,-3.9697,-3.9697,-3.9697,-3.9697,-3.9697,-3.9697,-3.9697,-3.9697,-3.9697,-3.9697,-3.9697,-3.9697,-3.9471,-3.9421,-3.9609,-3.9634,-3.9647,-3.9659,-3.9546,-3.9546,-3.9546,-3.9546,-3.9622,-3.9659,-3.9697,-3.9697,-3.9697,-3.9697,-3.9697,-3.9697,-3.9697,-3.9697,-3.9697,-3.9697,-3.9697,-3.9697,-3.9697,-3.9697,-3.9697,-3.9697,-3.9697,-3.9697,-3.9697,-3.9697,-3.9697,-3.9697,-3.9697,-3.9697,-3.9697,-3.9697,-3.986,-4.0074,-4.0199,-4.0325,-4.0576,-4.0601,-4.0262,-4.0111,-4.0036,-4.0249,-4.0375,-4.0388,-4.0023,-3.9798,-3.9798,-3.9735,-3.971,-3.9697,-3.9697,-3.9697,-3.9697,-3.9697,-3.9697,-3.9697,-3.9697,-3.9697,-3.9697,-3.9697,-3.9697,-3.9697,-3.9697,-3.9697,-3.9697,-3.9697,-3.9697,-3.9697,-3.9697,-3.9685,-3.9697,-3.9697,-3.9697,-3.9672,-3.9697,-3.9697,-3.9697,-2.7745,-2.796,-2.8067,-2.8388,-2.9016,-3.0026,-3.0856,-3.188,-3.3755,-3.5234,-3.5767,-3.6157,-3.7042,-3.8098,-3.8764,-3.9153,-3.9672,-3.9697,-3.9697,-3.9697,-3.9697,-3.9697,-3.9697,-3.9697,-3.9697,-3.9697,-3.9697,-3.9697,-3.9697,-3.9697,-3.9697,-3.9697,-3.9697,-3.9697,-3.9685,-3.9697,-3.9697,-3.9697,-3.9672,-3.9685,-3.9697,-3.9697,-3.9697,-3.9697,-3.9697,-3.9697,-3.9697,-3.9697,-3.9697,-3.9697,-3.9697,-3.9697,-3.9697,-3.9697,-3.9697,-3.9697,-3.9697,-3.9697,-3.9697,-3.9697,-3.9697,-3.9697,-3.9697,-3.9697,-3.9697,-3.9697,-3.9697,-3.9697,-3.9697,-3.9697,-3.9785,-3.9823,-3.9898,-3.9885,-4.0011,-4.0023,-3.986,-3.9873,-3.991,-4.04,-4.0676,-4.0814,-4.0639,-4.0124,-3.9973,-3.976,-3.9697,-3.9697,-3.9697,-3.9697,-3.9697,-3.9697,-3.9697,-3.9697,-3.9697,-3.9697,-3.9697,-3.9697,-3.9697,-3.9697,-3.9697,-3.9697,-3.9697,-3.9697,-3.9697,-3.9697,-3.9697,-3.9697,-3.9697,-3.9697,-3.9697,-3.9697,-3.9697,-3.9697,-3.9697,-2.796,-2.8067,-2.8184,-2.8301,-2.8504,-2.9408,-3.0753,-3.2286,-3.4028,-3.504,-3.5525,-3.5953,-3.6812,-3.7814,-3.8401,-3.8953,-3.9659,-3.9697,-3.9697,-3.9697,-3.9697,-3.9697,-3.9697,-3.9697,-3.9697,-3.9697,-3.9697,-3.9697,-3.9697,-3.9697,-3.9697,-3.9697,-3.9697,-3.9697,-3.9697,-3.9697,-3.9697,-3.9697,-3.9697,-3.9697,-3.9697,-3.9697,-3.9697,-3.9697,-3.9697,-3.9697,-3.9697,-3.9697,-3.9697,-3.9697,-3.9697,-3.9697,-3.9697,-3.9697,-3.9697,-3.9697,-3.9697,-3.9697,-3.9697,-3.9697,-3.9697,-3.9697,-3.9697,-3.9697,-3.9697,-3.9697,-3.9697,-3.9697,-3.9697,-3.9697,-3.9697,-3.971,-3.9898,-3.9898,-4.0074,-4.0099,-3.9961,-3.9998,-3.991,-4.0413,-4.0714,-4.094,-4.1065,-4.0689,-4.0249,-3.9973,-3.9697,-3.9697,-3.9697,-3.9697,-3.9697,-3.9697,-3.9697,-3.9697,-3.9697,-3.9697,-3.9697,-3.9697,-3.9697,-3.9697,-3.9697,-3.9697,-3.9697,-3.9697,-3.9697,-3.9697,-3.9697,-3.9697,-3.9697,-3.9697,-3.9697,-3.9697,-3.9697,-3.9697,-3.9697,-2.8067,-2.8291,-2.8291,-2.8301,-2.8495,-2.9408,-3.1143,-3.3201,-3.4225,-3.4835,-3.5175,-3.5795,-3.6467,-3.7494,-3.814,-3.8764,-3.9443,-3.9634,-3.9697,-3.9697,-3.9697,-3.9697,-3.9697,-3.9697,-3.9697,-3.9697,-3.9697,-3.9697,-3.9697,-3.9697,-3.9697,-3.9697,-3.9697,-3.9697,-3.9697,-3.9697,-3.9697,-3.9697,-3.9697,-3.9697,-3.9697,-3.9697,-3.9697,-3.9697,-3.9697,-3.9697,-3.9697,-3.9697,-3.9697,-3.9697,-3.9697,-3.9697,-3.9697,-3.9697,-3.9697,-3.9697,-3.9697,-3.9697,-3.9697,-3.9697,-3.9697,-3.9697,-3.9697,-3.9697,-3.9697,-3.9697,-3.9697,-3.9697,-3.9697,-3.9697,-3.9697,-3.9986,-4.0262,-4.0438,-4.0676,-4.0576,-4.035,-4.0212,-4.0036,-4.0199,-4.0413,-4.0601,-4.0689,-4.0463,-4.0337,-3.9948,-3.9697,-3.9697,-3.9697,-3.9697,-3.9697,-3.9697,-3.9697,-3.9697,-3.9697,-3.9697,-3.9697,-3.9697,-3.9697,-3.9697,-3.9697,-3.9697,-3.9697,-3.9697,-3.9697,-3.9697,-3.9697,-3.9697,-3.9697,-3.9697,-3.9697,-3.9697,-3.9697,-3.9697,-3.9697,-2.8184,-2.8301,-2.8301,-2.8301,-2.8504,-2.9408,-3.1154,-3.3101,-3.361,-3.4115,-3.4945,-3.5089,-3.5708,-3.6467,-3.7306,-3.8064,-3.8841,-3.9356,-3.9647,-3.9697,-3.9672,-3.9685,-3.9697,-3.9697,-3.9697,-3.9697,-3.9697,-3.9697,-3.9697,-3.9697,-3.9697,-3.9697,-3.9697,-3.9697,-3.9697,-3.9697,-3.9697,-3.9697,-3.9697,-3.9697,-3.9697,-3.9697,-3.9697,-3.9697,-3.9697,-3.9697,-3.9697,-3.9697,-3.9697,-3.9697,-3.9697,-3.9697,-3.9697,-3.9697,-3.9697,-3.9697,-3.9697,-3.9697,-3.9697,-3.9697,-3.9697,-3.9697,-3.9697,-3.9697,-3.9697,-3.9697,-3.9697,-3.9697,-3.9697,-3.9697,-3.9697,-3.991,-4.0086,-4.0212,-4.0375,-4.0275,-4.0086,-4.0036,-3.9885,-3.9961,-4.0174,-4.0388,-4.045,-4.0513,-4.035,-3.9936,-3.9697,-3.9697,-3.9697,-3.9697,-3.9697,-3.9697,-3.9697,-3.9697,-3.9697,-3.9697,-3.9697,-3.9697,-3.9697,-3.9697,-3.9697,-3.9697,-3.9697,-3.9697,-3.9697,-3.9697,-3.9697,-3.9697,-3.9697,-3.9697,-3.9697,-3.9697,-3.9697,-3.9697,-3.9697,-2.8301,-2.8301,-2.8301,-2.8301,-2.8398,-2.9006,-3.0338,-3.1768,-3.2387,-3.33,-3.4628,-3.4335,-3.4915,-3.6173,-3.6997,-3.7729,-3.8354,-3.9218,-3.9597,-3.9358,-3.9609,-3.9672,-3.9697,-3.9697,-3.9697,-3.9697,-3.9697,-3.9697,-3.9697,-3.9697,-3.9697,-3.9697,-3.9697,-3.9697,-3.9697,-3.9697,-3.9697,-3.9697,-3.9697,-3.9697,-3.9697,-3.9697,-3.9697,-3.9697,-3.9697,-3.9697,-3.9697,-3.9697,-3.9697,-3.9697,-3.9697,-3.9697,-3.9697,-3.9697,-3.9697,-3.9697,-3.9697,-3.9697,-3.9697,-3.9697,-3.9697,-3.9697,-3.9697,-3.9697,-3.9697,-3.9697,-3.9697,-3.9697,-3.9697,-3.9697,-3.9697,-3.971,-3.971,-3.9735,-3.9735,-3.9735,-3.9722,-3.9722,-3.9747,-3.9798,-3.9973,-4.0224,-4.0362,-4.045,-4.035,-3.9923,-3.9697,-3.9697,-3.9697,-3.9697,-3.9697,-3.9697,-3.9697,-3.9697,-3.9697,-3.9697,-3.9697,-3.9697,-3.9697,-3.9697,-3.9697,-3.9697,-3.9697,-3.9697,-3.9697,-3.9697,-3.9697,-3.9697,-3.9697,-3.9697,-3.9697,-3.9697,-3.9697,-3.9697,-3.9697,-2.8301,-2.8301,-2.8301,-2.8301,-2.8291,-2.8495,-2.9207,-3.0026,-3.1257,-3.27,-3.4213,-3.3808,-3.456,-3.599,-3.6887,-3.732,-3.8067,-3.8956,-3.932,-3.8931,-3.9484,-3.9685,-3.9697,-3.9697,-3.9697,-3.9697,-3.9697,-3.9697,-3.9697,-3.9697,-3.9697,-3.9697,-3.9697,-3.9697,-3.9697,-3.9697,-3.9697,-3.9697,-3.9697,-3.9697,-3.9697,-3.9697,-3.9697,-3.9697,-3.9697,-3.9697,-3.9697,-3.9697,-3.9697,-3.9697,-3.9697,-3.9697,-3.9697,-3.9697,-3.9697,-3.9697,-3.9697,-3.9697,-3.9697,-3.9697,-3.9697,-3.9697,-3.9697,-3.9697,-3.9697,-3.9697,-3.9697,-3.9697,-3.9697,-3.9697,-3.9697,-3.9697,-3.9697,-3.9697,-3.9697,-3.9697,-3.9697,-3.9697,-3.971,-3.9772,-3.9885,-4.0086,-4.0023,-4.0086,-4.0136,-3.9798,-3.9697,-3.9697,-3.9697,-3.9697,-3.9697,-3.9697,-3.9697,-3.9697,-3.9697,-3.9697,-3.9697,-3.9697,-3.9697,-3.9697,-3.9697,-3.9697,-3.9697,-3.9697,-3.9697,-3.9697,-3.9697,-3.9697,-3.9697,-3.9697,-3.9697,-3.9697,-3.9697,-3.9697,-3.9697,-2.8301,-2.8301,-2.8301,-2.8301,-2.8398,-2.9217,-3.013,-3.1165,-3.1472,-3.2387,-3.3499,-3.4335,-3.4883,-3.5624,-3.653,-3.7034,-3.7344,-3.8567,-3.8906,-3.9057,-3.9396,-3.9685,-3.9697,-3.9697,-3.9697,-3.9697,-3.9697,-3.9697,-3.9697,-3.9697,-3.9697,-3.9697,-3.9697,-3.9697,-3.9697,-3.9697,-3.9697,-3.9697,-3.9697,-3.9697,-3.9697,-3.9697,-3.9697,-3.9697,-3.9697,-3.9697,-3.9697,-3.9697,-3.9697,-3.9697,-3.9697,-3.9697,-3.9697,-3.9697,-3.9697,-3.9697,-3.9697,-3.9697,-3.9697,-3.9697,-3.9697,-3.9697,-3.9697,-3.9697,-3.9697,-3.9697,-3.9697,-3.9697,-3.9697,-3.9697,-3.9697,-3.9697,-3.9697,-3.9697,-3.9697,-3.9697,-3.9697,-3.9697,-3.9697,-3.976,-3.9848,-3.9823,-3.976,-3.9747,-3.9772,-3.976,-3.971,-3.9697,-3.9697,-3.9697,-3.9697,-3.9697,-3.9697,-3.9697,-3.9697,-3.9697,-3.9697,-3.9697,-3.9697,-3.9697,-3.9697,-3.9697,-3.9697,-3.9697,-3.9697,-3.9697,-3.9697,-3.9697,-3.9697,-3.9697,-3.9697,-3.9697,-3.9697,-3.9697,-3.9697,-2.8301,-2.8301,-2.8291,-2.8601,-2.9112,-2.9618,-3.0546,-3.1575,-3.2083,-3.2689,-3.33,-3.4005,-3.4714,-3.5308,-3.6259,-3.6587,-3.6955,-3.8304,-3.853,-3.8743,-3.9283,-3.9609,-3.9697,-3.9697,-3.9697,-3.9697,-3.9697,-3.9697,-3.9697,-3.9697,-3.9697,-3.9697,-3.9697,-3.9697,-3.9697,-3.9697,-3.9697,-3.9697,-3.9697,-3.9697,-3.9697,-3.9697,-3.9697,-3.9697,-3.9697,-3.9697,-3.9697,-3.9697,-3.9697,-3.9697,-3.9697,-3.9697,-3.9697,-3.9697,-3.9697,-3.9697,-3.9697,-3.9697,-3.9697,-3.9697,-3.9697,-3.9697,-3.9697,-3.9697,-3.9697,-3.9697,-3.9697,-3.9697,-3.9697,-3.9697,-3.9697,-3.9697,-3.9697,-3.9697,-3.9697,-3.9697,-3.9697,-3.9697,-3.9697,-3.9722,-3.9772,-3.976,-3.971,-3.971,-3.9735,-3.9735,-3.9697,-3.9697,-3.9697,-3.9697,-3.9697,-3.9697,-3.9697,-3.9697,-3.9697,-3.9697,-3.9697,-3.9697,-3.9697,-3.9697,-3.9697,-3.9697,-3.9697,-3.9697,-3.9697,-3.9697,-3.9697,-3.9697,-3.9697,-3.9697,-3.9697,-3.9697,-3.9697,-3.9697,-3.9697,-2.8301,-2.8291,-2.8504,-2.9006,-2.9922,-3.0224,-3.0949,-3.1982,-3.3001,-3.361,-3.3906,-3.3796,-3.4409,-3.5405,-3.6135,-3.6347,-3.6864,-3.8027,-3.8241,-3.8492,-3.9233,-3.9559,-3.9697,-3.9697,-3.9697,-3.9697,-3.9697,-3.9697,-3.9697,-3.9697,-3.9697,-3.9697,-3.9697,-3.9697,-3.9697,-3.9697,-3.9697,-3.9697,-3.9697,-3.9697,-3.9697,-3.9697,-3.9697,-3.9697,-3.9697,-3.9697,-3.9697,-3.9697,-3.9697,-3.9697,-3.9697,-3.9697,-3.9697,-3.9697,-3.9697,-3.9697,-3.9697,-3.9697,-3.9697,-3.9697,-3.9697,-3.9697,-3.9697,-3.9697,-3.9697,-3.9697,-3.9697,-3.9697,-3.9697,-3.9697,-3.9697,-3.9697,-3.9697,-3.9697,-3.9697,-3.9697,-3.9697,-3.9697,-3.9697,-3.9697,-3.9697,-3.9697,-3.9697,-3.9697,-3.9697,-3.9697,-3.9697,-3.9697,-3.9697,-3.9697,-3.9697,-3.9697,-3.9697,-3.9697,-3.9697,-3.9697,-3.9697,-3.9697,-3.9697,-3.9697,-3.9697,-3.9697,-3.9697,-3.9697,-3.9697,-3.9697,-3.9697,-3.9697,-3.9697,-3.9697,-3.9697,-3.9697,-3.9697,-3.9697,-3.9697,-2.8301,-2.8398,-2.9207,-2.9713,-3.0224,-3.1768,-3.2789,-3.34,-3.4311,-3.492,-3.5017,-3.5211,-3.5524,-3.592,-3.6243,-3.642,-3.6634,-3.7688,-3.8052,-3.8216,-3.9107,-3.9509,-3.9697,-3.9697,-3.9697,-3.9697,-3.9697,-3.9697,-3.9697,-3.9697,-3.9697,-3.9697,-3.9697,-3.9697,-3.9697,-3.9697,-3.9697,-3.9697,-3.9697,-3.9697,-3.9697,-3.9697,-3.9697,-3.9697,-3.9697,-3.9697,-3.9697,-3.9697,-3.9697,-3.9697,-3.9697,-3.9697,-3.9697,-3.9697,-3.9697,-3.9697,-3.9697,-3.9697,-3.9697,-3.9697,-3.9697,-3.9697,-3.9697,-3.9697,-3.9697,-3.9697,-3.9697,-3.9697,-3.9697,-3.9697,-3.9697,-3.9697,-3.9697,-3.9697,-3.9697,-3.9697,-3.9697,-3.9697,-3.9697,-3.9697,-3.9697,-3.9697,-3.9697,-3.9697,-3.9697,-3.9697,-3.9697,-3.9697,-3.9697,-3.9697,-3.9697,-3.9697,-3.9697,-3.9697,-3.9697,-3.9697,-3.9697,-3.9697,-3.9697,-3.9697,-3.9697,-3.9697,-3.9697,-3.9697,-3.9697,-3.9697,-3.9697,-3.9697,-3.9697,-3.9697,-3.9697,-3.9697,-3.9697,-3.9697,-3.9697]}]]